<?xml version="1.0" encoding="UTF-8" standalone="no" ?>
<gpx xmlns="http://www.topografix.com/GPX/1/1" xmlns:xsi="http://www.w3.org/2001/XMLSchema-instance" xsi:schemaLocation="http://www.topografix.com/GPX/1/1 http://www.topografix.com/GPX/1/1/gpx.xsd" version="1.1" creator="VisuGPX - https://www.visugpx.com">
  <metadata>
    <name>Autour de Guiperreux</name>
    <desc><![CDATA[Impossible de trouver le chemin qui conduit à l\'étang...soit chemin cul de sac, soit (deux fois) face à un grillage !]]></desc>
  </metadata>
  <trk>
    <name><![CDATA[Autour de Guiperreux]]></name>
    <desc><![CDATA[Impossible de trouver le chemin qui conduit à l'étang...soit chemin cul de sac, soit (deux fois) face à un grillage !]]></desc>
    <trkseg>
      <trkpt lat="48.70447" lon="1.75234">
        <ele>178.39999389648</ele>
        <time>2014-08-02T08:54:09.000Z</time>
      </trkpt>
      <trkpt lat="48.70448" lon="1.75219">
        <ele>179</ele>
        <time>2014-08-02T08:54:16.000Z</time>
      </trkpt>
      <trkpt lat="48.70448" lon="1.75215">
        <ele>179.19999694824</ele>
        <time>2014-08-02T08:54:18.000Z</time>
      </trkpt>
      <trkpt lat="48.70451" lon="1.75202">
        <ele>179.60000610352</ele>
        <time>2014-08-02T08:54:25.000Z</time>
      </trkpt>
      <trkpt lat="48.70452" lon="1.75199">
        <ele>179.60000610352</ele>
        <time>2014-08-02T08:54:27.000Z</time>
      </trkpt>
      <trkpt lat="48.70456" lon="1.75194">
        <ele>179.39999389648</ele>
        <time>2014-08-02T08:54:31.000Z</time>
      </trkpt>
      <trkpt lat="48.70463" lon="1.75184">
        <ele>179.39999389648</ele>
        <time>2014-08-02T08:54:38.000Z</time>
      </trkpt>
      <trkpt lat="48.70467" lon="1.75184">
        <ele>179</ele>
        <time>2014-08-02T08:54:39.000Z</time>
      </trkpt>
      <trkpt lat="48.7047" lon="1.75174">
        <ele>178.80000305176</ele>
        <time>2014-08-02T08:54:45.000Z</time>
      </trkpt>
      <trkpt lat="48.70472" lon="1.75164">
        <ele>178.60000610352</ele>
        <time>2014-08-02T08:54:51.000Z</time>
      </trkpt>
      <trkpt lat="48.70478" lon="1.75157">
        <ele>178</ele>
        <time>2014-08-02T08:54:56.000Z</time>
      </trkpt>
      <trkpt lat="48.70478" lon="1.75144">
        <ele>177.80000305176</ele>
        <time>2014-08-02T08:55:03.000Z</time>
      </trkpt>
      <trkpt lat="48.70479" lon="1.75137">
        <ele>177.39999389648</ele>
        <time>2014-08-02T08:55:07.000Z</time>
      </trkpt>
      <trkpt lat="48.7048" lon="1.7513">
        <ele>177.19999694824</ele>
        <time>2014-08-02T08:55:11.000Z</time>
      </trkpt>
      <trkpt lat="48.70483" lon="1.75123">
        <ele>176.80000305176</ele>
        <time>2014-08-02T08:55:15.000Z</time>
      </trkpt>
      <trkpt lat="48.70482" lon="1.75112">
        <ele>177</ele>
        <time>2014-08-02T08:55:20.000Z</time>
      </trkpt>
      <trkpt lat="48.70481" lon="1.75105">
        <ele>177.39999389648</ele>
        <time>2014-08-02T08:55:23.000Z</time>
      </trkpt>
      <trkpt lat="48.7048" lon="1.75101">
        <ele>177.80000305176</ele>
        <time>2014-08-02T08:55:25.000Z</time>
      </trkpt>
      <trkpt lat="48.70485" lon="1.7509">
        <ele>178.39999389648</ele>
        <time>2014-08-02T08:55:31.000Z</time>
      </trkpt>
      <trkpt lat="48.70483" lon="1.75083">
        <ele>179</ele>
        <time>2014-08-02T08:55:36.000Z</time>
      </trkpt>
      <trkpt lat="48.70479" lon="1.75076">
        <ele>179.60000610352</ele>
        <time>2014-08-02T08:55:40.000Z</time>
      </trkpt>
      <trkpt lat="48.70476" lon="1.75069">
        <ele>180</ele>
        <time>2014-08-02T08:55:43.000Z</time>
      </trkpt>
      <trkpt lat="48.70476" lon="1.75057">
        <ele>180</ele>
        <time>2014-08-02T08:55:48.000Z</time>
      </trkpt>
      <trkpt lat="48.70474" lon="1.75049">
        <ele>180</ele>
        <time>2014-08-02T08:55:52.000Z</time>
      </trkpt>
      <trkpt lat="48.70472" lon="1.75039">
        <ele>180.19999694824</ele>
        <time>2014-08-02T08:55:58.000Z</time>
      </trkpt>
      <trkpt lat="48.70472" lon="1.75026">
        <ele>180.19999694824</ele>
        <time>2014-08-02T08:56:04.000Z</time>
      </trkpt>
      <trkpt lat="48.70472" lon="1.75011">
        <ele>180.80000305176</ele>
        <time>2014-08-02T08:56:11.000Z</time>
      </trkpt>
      <trkpt lat="48.70468" lon="1.74999">
        <ele>181.19999694824</ele>
        <time>2014-08-02T08:56:17.000Z</time>
      </trkpt>
      <trkpt lat="48.70469" lon="1.74991">
        <ele>181.60000610352</ele>
        <time>2014-08-02T08:56:21.000Z</time>
      </trkpt>
      <trkpt lat="48.7047" lon="1.74979">
        <ele>181.39999389648</ele>
        <time>2014-08-02T08:56:27.000Z</time>
      </trkpt>
      <trkpt lat="48.70467" lon="1.74968">
        <ele>181</ele>
        <time>2014-08-02T08:56:33.000Z</time>
      </trkpt>
      <trkpt lat="48.70466" lon="1.74956">
        <ele>180.60000610352</ele>
        <time>2014-08-02T08:56:40.000Z</time>
      </trkpt>
      <trkpt lat="48.70464" lon="1.74953">
        <ele>180.39999389648</ele>
        <time>2014-08-02T08:56:42.000Z</time>
      </trkpt>
      <trkpt lat="48.7047" lon="1.74947">
        <ele>180.39999389648</ele>
        <time>2014-08-02T08:56:46.000Z</time>
      </trkpt>
      <trkpt lat="48.70474" lon="1.74937">
        <ele>180.39999389648</ele>
        <time>2014-08-02T08:56:51.000Z</time>
      </trkpt>
      <trkpt lat="48.70476" lon="1.74923">
        <ele>180.80000305176</ele>
        <time>2014-08-02T08:56:57.000Z</time>
      </trkpt>
      <trkpt lat="48.70475" lon="1.74914">
        <ele>181</ele>
        <time>2014-08-02T08:57:01.000Z</time>
      </trkpt>
      <trkpt lat="48.70476" lon="1.74907">
        <ele>181.19999694824</ele>
        <time>2014-08-02T08:57:04.000Z</time>
      </trkpt>
      <trkpt lat="48.70477" lon="1.74896">
        <ele>181.39999389648</ele>
        <time>2014-08-02T08:57:10.000Z</time>
      </trkpt>
      <trkpt lat="48.7048" lon="1.74883">
        <ele>181.39999389648</ele>
        <time>2014-08-02T08:57:17.000Z</time>
      </trkpt>
      <trkpt lat="48.70483" lon="1.74879">
        <ele>181.60000610352</ele>
        <time>2014-08-02T08:57:22.000Z</time>
      </trkpt>
      <trkpt lat="48.70484" lon="1.74878">
        <ele>181.60000610352</ele>
        <time>2014-08-02T08:57:23.000Z</time>
      </trkpt>
      <trkpt lat="48.70484" lon="1.7486">
        <ele>181.39999389648</ele>
        <time>2014-08-02T08:57:30.000Z</time>
      </trkpt>
      <trkpt lat="48.70481" lon="1.74848">
        <ele>181</ele>
        <time>2014-08-02T08:57:35.000Z</time>
      </trkpt>
      <trkpt lat="48.70482" lon="1.74843">
        <ele>181.19999694824</ele>
        <time>2014-08-02T08:57:39.000Z</time>
      </trkpt>
      <trkpt lat="48.70485" lon="1.74833">
        <ele>181.19999694824</ele>
        <time>2014-08-02T08:57:43.000Z</time>
      </trkpt>
      <trkpt lat="48.70483" lon="1.74826">
        <ele>181</ele>
        <time>2014-08-02T08:57:47.000Z</time>
      </trkpt>
      <trkpt lat="48.70485" lon="1.74814">
        <ele>181</ele>
        <time>2014-08-02T08:57:53.000Z</time>
      </trkpt>
      <trkpt lat="48.70478" lon="1.74803">
        <ele>180.19999694824</ele>
        <time>2014-08-02T08:57:59.000Z</time>
      </trkpt>
      <trkpt lat="48.70476" lon="1.74791">
        <ele>180</ele>
        <time>2014-08-02T08:58:06.000Z</time>
      </trkpt>
      <trkpt lat="48.70478" lon="1.74782">
        <ele>180</ele>
        <time>2014-08-02T08:58:12.000Z</time>
      </trkpt>
      <trkpt lat="48.70481" lon="1.74768">
        <ele>180</ele>
        <time>2014-08-02T08:58:21.000Z</time>
      </trkpt>
      <trkpt lat="48.7048" lon="1.7476">
        <ele>180</ele>
        <time>2014-08-02T08:58:26.000Z</time>
      </trkpt>
      <trkpt lat="48.70479" lon="1.74749">
        <ele>179.80000305176</ele>
        <time>2014-08-02T08:58:32.000Z</time>
      </trkpt>
      <trkpt lat="48.70481" lon="1.7474">
        <ele>179.80000305176</ele>
        <time>2014-08-02T08:58:37.000Z</time>
      </trkpt>
      <trkpt lat="48.70484" lon="1.74729">
        <ele>180</ele>
        <time>2014-08-02T08:58:43.000Z</time>
      </trkpt>
      <trkpt lat="48.70486" lon="1.7472">
        <ele>180.39999389648</ele>
        <time>2014-08-02T08:58:49.000Z</time>
      </trkpt>
      <trkpt lat="48.70484" lon="1.74705">
        <ele>180.39999389648</ele>
        <time>2014-08-02T08:58:56.000Z</time>
      </trkpt>
      <trkpt lat="48.70484" lon="1.74692">
        <ele>180.19999694824</ele>
        <time>2014-08-02T08:59:03.000Z</time>
      </trkpt>
      <trkpt lat="48.70485" lon="1.74685">
        <ele>180</ele>
        <time>2014-08-02T08:59:08.000Z</time>
      </trkpt>
      <trkpt lat="48.70488" lon="1.74675">
        <ele>180</ele>
        <time>2014-08-02T08:59:13.000Z</time>
      </trkpt>
      <trkpt lat="48.70488" lon="1.74668">
        <ele>179.80000305176</ele>
        <time>2014-08-02T08:59:17.000Z</time>
      </trkpt>
      <trkpt lat="48.70491" lon="1.74656">
        <ele>179.60000610352</ele>
        <time>2014-08-02T08:59:22.000Z</time>
      </trkpt>
      <trkpt lat="48.7049" lon="1.74649">
        <ele>179.60000610352</ele>
        <time>2014-08-02T08:59:26.000Z</time>
      </trkpt>
      <trkpt lat="48.70489" lon="1.74642">
        <ele>179.60000610352</ele>
        <time>2014-08-02T08:59:30.000Z</time>
      </trkpt>
      <trkpt lat="48.70489" lon="1.74634">
        <ele>179.80000305176</ele>
        <time>2014-08-02T08:59:35.000Z</time>
      </trkpt>
      <trkpt lat="48.70489" lon="1.7463">
        <ele>179.80000305176</ele>
        <time>2014-08-02T08:59:37.000Z</time>
      </trkpt>
      <trkpt lat="48.7049" lon="1.7462">
        <ele>180</ele>
        <time>2014-08-02T08:59:42.000Z</time>
      </trkpt>
      <trkpt lat="48.70489" lon="1.74612">
        <ele>180</ele>
        <time>2014-08-02T08:59:46.000Z</time>
      </trkpt>
      <trkpt lat="48.70491" lon="1.746">
        <ele>180.19999694824</ele>
        <time>2014-08-02T08:59:52.000Z</time>
      </trkpt>
      <trkpt lat="48.70492" lon="1.74591">
        <ele>180.39999389648</ele>
        <time>2014-08-02T08:59:57.000Z</time>
      </trkpt>
      <trkpt lat="48.70488" lon="1.74574">
        <ele>180.39999389648</ele>
        <time>2014-08-02T09:00:04.000Z</time>
      </trkpt>
      <trkpt lat="48.70488" lon="1.74562">
        <ele>180.39999389648</ele>
        <time>2014-08-02T09:00:09.000Z</time>
      </trkpt>
      <trkpt lat="48.70486" lon="1.74548">
        <ele>180.39999389648</ele>
        <time>2014-08-02T09:00:16.000Z</time>
      </trkpt>
      <trkpt lat="48.70484" lon="1.74541">
        <ele>180.19999694824</ele>
        <time>2014-08-02T09:00:20.000Z</time>
      </trkpt>
      <trkpt lat="48.70482" lon="1.74526">
        <ele>180.19999694824</ele>
        <time>2014-08-02T09:00:26.000Z</time>
      </trkpt>
      <trkpt lat="48.70484" lon="1.74525">
        <ele>180.19999694824</ele>
        <time>2014-08-02T09:00:27.000Z</time>
      </trkpt>
      <trkpt lat="48.70485" lon="1.74523">
        <ele>180.39999389648</ele>
        <time>2014-08-02T09:00:33.000Z</time>
      </trkpt>
      <trkpt lat="48.7049" lon="1.74525">
        <ele>180.60000610352</ele>
        <time>2014-08-02T09:00:41.000Z</time>
      </trkpt>
      <trkpt lat="48.70488" lon="1.74521">
        <ele>180.39999389648</ele>
        <time>2014-08-02T09:00:47.000Z</time>
      </trkpt>
      <trkpt lat="48.70487" lon="1.74521">
        <ele>180.39999389648</ele>
        <time>2014-08-02T09:00:50.000Z</time>
      </trkpt>
      <trkpt lat="48.70494" lon="1.74527">
        <ele>180.80000305176</ele>
        <time>2014-08-02T09:01:18.000Z</time>
      </trkpt>
      <trkpt lat="48.70497" lon="1.74525">
        <ele>180.80000305176</ele>
        <time>2014-08-02T09:01:27.000Z</time>
      </trkpt>
      <trkpt lat="48.705" lon="1.74517">
        <ele>181</ele>
        <time>2014-08-02T09:01:32.000Z</time>
      </trkpt>
      <trkpt lat="48.70498" lon="1.74507">
        <ele>181</ele>
        <time>2014-08-02T09:01:37.000Z</time>
      </trkpt>
      <trkpt lat="48.70497" lon="1.74506">
        <ele>180.80000305176</ele>
        <time>2014-08-02T09:01:38.000Z</time>
      </trkpt>
      <trkpt lat="48.70491" lon="1.74497">
        <ele>180.60000610352</ele>
        <time>2014-08-02T09:01:43.000Z</time>
      </trkpt>
      <trkpt lat="48.70489" lon="1.74488">
        <ele>180.60000610352</ele>
        <time>2014-08-02T09:01:48.000Z</time>
      </trkpt>
      <trkpt lat="48.70489" lon="1.7448">
        <ele>180.39999389648</ele>
        <time>2014-08-02T09:01:52.000Z</time>
      </trkpt>
      <trkpt lat="48.7049" lon="1.74471">
        <ele>180.19999694824</ele>
        <time>2014-08-02T09:01:57.000Z</time>
      </trkpt>
      <trkpt lat="48.70492" lon="1.74464">
        <ele>180.19999694824</ele>
        <time>2014-08-02T09:02:01.000Z</time>
      </trkpt>
      <trkpt lat="48.7049" lon="1.74458">
        <ele>179.80000305176</ele>
        <time>2014-08-02T09:02:07.000Z</time>
      </trkpt>
      <trkpt lat="48.70491" lon="1.74452">
        <ele>179.80000305176</ele>
        <time>2014-08-02T09:02:11.000Z</time>
      </trkpt>
      <trkpt lat="48.70494" lon="1.74441">
        <ele>179.80000305176</ele>
        <time>2014-08-02T09:02:15.000Z</time>
      </trkpt>
      <trkpt lat="48.70492" lon="1.74432">
        <ele>179.60000610352</ele>
        <time>2014-08-02T09:02:19.000Z</time>
      </trkpt>
      <trkpt lat="48.7049" lon="1.74419">
        <ele>179.39999389648</ele>
        <time>2014-08-02T09:02:24.000Z</time>
      </trkpt>
      <trkpt lat="48.7049" lon="1.74411">
        <ele>179.19999694824</ele>
        <time>2014-08-02T09:02:28.000Z</time>
      </trkpt>
      <trkpt lat="48.70491" lon="1.74403">
        <ele>179.19999694824</ele>
        <time>2014-08-02T09:02:33.000Z</time>
      </trkpt>
      <trkpt lat="48.70493" lon="1.74397">
        <ele>179.60000610352</ele>
        <time>2014-08-02T09:02:36.000Z</time>
      </trkpt>
      <trkpt lat="48.70495" lon="1.74387">
        <ele>179.80000305176</ele>
        <time>2014-08-02T09:02:41.000Z</time>
      </trkpt>
      <trkpt lat="48.70497" lon="1.74379">
        <ele>180.19999694824</ele>
        <time>2014-08-02T09:02:46.000Z</time>
      </trkpt>
      <trkpt lat="48.70496" lon="1.74371">
        <ele>180</ele>
        <time>2014-08-02T09:02:51.000Z</time>
      </trkpt>
      <trkpt lat="48.70495" lon="1.74362">
        <ele>179.60000610352</ele>
        <time>2014-08-02T09:02:55.000Z</time>
      </trkpt>
      <trkpt lat="48.70496" lon="1.7435">
        <ele>179.39999389648</ele>
        <time>2014-08-02T09:03:00.000Z</time>
      </trkpt>
      <trkpt lat="48.70495" lon="1.74344">
        <ele>179.19999694824</ele>
        <time>2014-08-02T09:03:03.000Z</time>
      </trkpt>
      <trkpt lat="48.7049" lon="1.74326">
        <ele>178.80000305176</ele>
        <time>2014-08-02T09:03:12.000Z</time>
      </trkpt>
      <trkpt lat="48.70491" lon="1.74324">
        <ele>178.80000305176</ele>
        <time>2014-08-02T09:03:13.000Z</time>
      </trkpt>
      <trkpt lat="48.70491" lon="1.7431">
        <ele>178.80000305176</ele>
        <time>2014-08-02T09:03:21.000Z</time>
      </trkpt>
      <trkpt lat="48.70492" lon="1.74296">
        <ele>179</ele>
        <time>2014-08-02T09:03:29.000Z</time>
      </trkpt>
      <trkpt lat="48.70495" lon="1.74284">
        <ele>178.80000305176</ele>
        <time>2014-08-02T09:03:35.000Z</time>
      </trkpt>
      <trkpt lat="48.70495" lon="1.74276">
        <ele>178.80000305176</ele>
        <time>2014-08-02T09:03:39.000Z</time>
      </trkpt>
      <trkpt lat="48.70497" lon="1.74265">
        <ele>178.60000610352</ele>
        <time>2014-08-02T09:03:44.000Z</time>
      </trkpt>
      <trkpt lat="48.70497" lon="1.7426">
        <ele>178.60000610352</ele>
        <time>2014-08-02T09:03:46.000Z</time>
      </trkpt>
      <trkpt lat="48.70493" lon="1.74247">
        <ele>178.39999389648</ele>
        <time>2014-08-02T09:03:52.000Z</time>
      </trkpt>
      <trkpt lat="48.70495" lon="1.74237">
        <ele>178.39999389648</ele>
        <time>2014-08-02T09:03:57.000Z</time>
      </trkpt>
      <trkpt lat="48.70494" lon="1.74226">
        <ele>178.19999694824</ele>
        <time>2014-08-02T09:04:04.000Z</time>
      </trkpt>
      <trkpt lat="48.70492" lon="1.74222">
        <ele>178.19999694824</ele>
        <time>2014-08-02T09:04:08.000Z</time>
      </trkpt>
      <trkpt lat="48.70488" lon="1.74218">
        <ele>178.19999694824</ele>
        <time>2014-08-02T09:04:13.000Z</time>
      </trkpt>
      <trkpt lat="48.70483" lon="1.7421">
        <ele>178.19999694824</ele>
        <time>2014-08-02T09:04:18.000Z</time>
      </trkpt>
      <trkpt lat="48.70478" lon="1.74203">
        <ele>178</ele>
        <time>2014-08-02T09:04:22.000Z</time>
      </trkpt>
      <trkpt lat="48.70473" lon="1.74195">
        <ele>178</ele>
        <time>2014-08-02T09:04:27.000Z</time>
      </trkpt>
      <trkpt lat="48.70472" lon="1.74184">
        <ele>178</ele>
        <time>2014-08-02T09:04:32.000Z</time>
      </trkpt>
      <trkpt lat="48.70468" lon="1.74176">
        <ele>178</ele>
        <time>2014-08-02T09:04:38.000Z</time>
      </trkpt>
      <trkpt lat="48.70463" lon="1.74172">
        <ele>178</ele>
        <time>2014-08-02T09:04:41.000Z</time>
      </trkpt>
      <trkpt lat="48.70457" lon="1.74167">
        <ele>178</ele>
        <time>2014-08-02T09:04:48.000Z</time>
      </trkpt>
      <trkpt lat="48.70449" lon="1.74159">
        <ele>178</ele>
        <time>2014-08-02T09:04:57.000Z</time>
      </trkpt>
      <trkpt lat="48.70448" lon="1.74151">
        <ele>178</ele>
        <time>2014-08-02T09:05:01.000Z</time>
      </trkpt>
      <trkpt lat="48.70451" lon="1.74151">
        <ele>178</ele>
        <time>2014-08-02T09:05:07.000Z</time>
      </trkpt>
      <trkpt lat="48.70447" lon="1.74139">
        <ele>178</ele>
        <time>2014-08-02T09:05:38.000Z</time>
      </trkpt>
      <trkpt lat="48.70443" lon="1.74136">
        <ele>178</ele>
        <time>2014-08-02T09:05:41.000Z</time>
      </trkpt>
      <trkpt lat="48.70442" lon="1.74135">
        <ele>178</ele>
        <time>2014-08-02T09:05:45.000Z</time>
      </trkpt>
      <trkpt lat="48.70438" lon="1.74132">
        <ele>178</ele>
        <time>2014-08-02T09:05:51.000Z</time>
      </trkpt>
      <trkpt lat="48.70431" lon="1.74123">
        <ele>178.19999694824</ele>
        <time>2014-08-02T09:05:57.000Z</time>
      </trkpt>
      <trkpt lat="48.70428" lon="1.74121">
        <ele>178.19999694824</ele>
        <time>2014-08-02T09:06:00.000Z</time>
      </trkpt>
      <trkpt lat="48.70418" lon="1.74109">
        <ele>178.39999389648</ele>
        <time>2014-08-02T09:06:07.000Z</time>
      </trkpt>
      <trkpt lat="48.70411" lon="1.74102">
        <ele>178.60000610352</ele>
        <time>2014-08-02T09:06:13.000Z</time>
      </trkpt>
      <trkpt lat="48.70405" lon="1.74094">
        <ele>178.80000305176</ele>
        <time>2014-08-02T09:06:19.000Z</time>
      </trkpt>
      <trkpt lat="48.70399" lon="1.74092">
        <ele>179</ele>
        <time>2014-08-02T09:06:25.000Z</time>
      </trkpt>
      <trkpt lat="48.70399" lon="1.74092">
        <ele>179</ele>
        <time>2014-08-02T09:06:29.000Z</time>
      </trkpt>
      <trkpt lat="48.70393" lon="1.74087">
        <ele>179</ele>
        <time>2014-08-02T09:06:35.000Z</time>
      </trkpt>
      <trkpt lat="48.70387" lon="1.74084">
        <ele>179.19999694824</ele>
        <time>2014-08-02T09:06:40.000Z</time>
      </trkpt>
      <trkpt lat="48.70384" lon="1.74082">
        <ele>179.19999694824</ele>
        <time>2014-08-02T09:06:42.000Z</time>
      </trkpt>
      <trkpt lat="48.70374" lon="1.74074">
        <ele>179.39999389648</ele>
        <time>2014-08-02T09:06:48.000Z</time>
      </trkpt>
      <trkpt lat="48.7037" lon="1.74069">
        <ele>179.60000610352</ele>
        <time>2014-08-02T09:06:52.000Z</time>
      </trkpt>
      <trkpt lat="48.70365" lon="1.74056">
        <ele>179.80000305176</ele>
        <time>2014-08-02T09:07:00.000Z</time>
      </trkpt>
      <trkpt lat="48.70358" lon="1.74049">
        <ele>179.80000305176</ele>
        <time>2014-08-02T09:07:07.000Z</time>
      </trkpt>
      <trkpt lat="48.70353" lon="1.74046">
        <ele>180</ele>
        <time>2014-08-02T09:07:13.000Z</time>
      </trkpt>
      <trkpt lat="48.70348" lon="1.74044">
        <ele>180</ele>
        <time>2014-08-02T09:07:16.000Z</time>
      </trkpt>
      <trkpt lat="48.70339" lon="1.74037">
        <ele>180.19999694824</ele>
        <time>2014-08-02T09:07:23.000Z</time>
      </trkpt>
      <trkpt lat="48.70332" lon="1.74031">
        <ele>180.19999694824</ele>
        <time>2014-08-02T09:07:28.000Z</time>
      </trkpt>
      <trkpt lat="48.70326" lon="1.74025">
        <ele>180.39999389648</ele>
        <time>2014-08-02T09:07:34.000Z</time>
      </trkpt>
      <trkpt lat="48.70321" lon="1.74019">
        <ele>180.39999389648</ele>
        <time>2014-08-02T09:07:40.000Z</time>
      </trkpt>
      <trkpt lat="48.70318" lon="1.74013">
        <ele>180.39999389648</ele>
        <time>2014-08-02T09:07:44.000Z</time>
      </trkpt>
      <trkpt lat="48.70309" lon="1.74004">
        <ele>180.60000610352</ele>
        <time>2014-08-02T09:07:49.000Z</time>
      </trkpt>
      <trkpt lat="48.70302" lon="1.73997">
        <ele>180.60000610352</ele>
        <time>2014-08-02T09:07:54.000Z</time>
      </trkpt>
      <trkpt lat="48.70292" lon="1.73991">
        <ele>180.80000305176</ele>
        <time>2014-08-02T09:07:59.000Z</time>
      </trkpt>
      <trkpt lat="48.70281" lon="1.73978">
        <ele>180.60000610352</ele>
        <time>2014-08-02T09:08:08.000Z</time>
      </trkpt>
      <trkpt lat="48.7028" lon="1.73969">
        <ele>180.19999694824</ele>
        <time>2014-08-02T09:08:13.000Z</time>
      </trkpt>
      <trkpt lat="48.70277" lon="1.73958">
        <ele>179.80000305176</ele>
        <time>2014-08-02T09:08:21.000Z</time>
      </trkpt>
      <trkpt lat="48.70274" lon="1.73954">
        <ele>179.80000305176</ele>
        <time>2014-08-02T09:08:26.000Z</time>
      </trkpt>
      <trkpt lat="48.70267" lon="1.73947">
        <ele>179.60000610352</ele>
        <time>2014-08-02T09:08:30.000Z</time>
      </trkpt>
      <trkpt lat="48.70265" lon="1.73942">
        <ele>179.39999389648</ele>
        <time>2014-08-02T09:08:36.000Z</time>
      </trkpt>
      <trkpt lat="48.70258" lon="1.73929">
        <ele>179</ele>
        <time>2014-08-02T09:08:41.000Z</time>
      </trkpt>
      <trkpt lat="48.70256" lon="1.73929">
        <ele>179</ele>
        <time>2014-08-02T09:08:45.000Z</time>
      </trkpt>
      <trkpt lat="48.70254" lon="1.73915">
        <ele>178.39999389648</ele>
        <time>2014-08-02T09:08:55.000Z</time>
      </trkpt>
      <trkpt lat="48.70251" lon="1.73912">
        <ele>178.19999694824</ele>
        <time>2014-08-02T09:08:57.000Z</time>
      </trkpt>
      <trkpt lat="48.70243" lon="1.73905">
        <ele>178</ele>
        <time>2014-08-02T09:09:04.000Z</time>
      </trkpt>
      <trkpt lat="48.70229" lon="1.73898">
        <ele>178</ele>
        <time>2014-08-02T09:09:15.000Z</time>
      </trkpt>
      <trkpt lat="48.70218" lon="1.73888">
        <ele>178</ele>
        <time>2014-08-02T09:09:20.000Z</time>
      </trkpt>
      <trkpt lat="48.70215" lon="1.73884">
        <ele>178</ele>
        <time>2014-08-02T09:09:26.000Z</time>
      </trkpt>
      <trkpt lat="48.7021" lon="1.73878">
        <ele>178</ele>
        <time>2014-08-02T09:09:31.000Z</time>
      </trkpt>
      <trkpt lat="48.70207" lon="1.73876">
        <ele>178</ele>
        <time>2014-08-02T09:09:35.000Z</time>
      </trkpt>
      <trkpt lat="48.70205" lon="1.73871">
        <ele>178</ele>
        <time>2014-08-02T09:09:39.000Z</time>
      </trkpt>
      <trkpt lat="48.70195" lon="1.73866">
        <ele>178</ele>
        <time>2014-08-02T09:09:46.000Z</time>
      </trkpt>
      <trkpt lat="48.70188" lon="1.7386">
        <ele>178</ele>
        <time>2014-08-02T09:09:50.000Z</time>
      </trkpt>
      <trkpt lat="48.70186" lon="1.73859">
        <ele>178</ele>
        <time>2014-08-02T09:09:53.000Z</time>
      </trkpt>
      <trkpt lat="48.70184" lon="1.73858">
        <ele>178</ele>
        <time>2014-08-02T09:09:56.000Z</time>
      </trkpt>
      <trkpt lat="48.70181" lon="1.73849">
        <ele>178</ele>
        <time>2014-08-02T09:10:01.000Z</time>
      </trkpt>
      <trkpt lat="48.70181" lon="1.73846">
        <ele>178</ele>
        <time>2014-08-02T09:10:05.000Z</time>
      </trkpt>
      <trkpt lat="48.70179" lon="1.73843">
        <ele>178</ele>
        <time>2014-08-02T09:10:07.000Z</time>
      </trkpt>
      <trkpt lat="48.70172" lon="1.73832">
        <ele>178</ele>
        <time>2014-08-02T09:10:13.000Z</time>
      </trkpt>
      <trkpt lat="48.70165" lon="1.73819">
        <ele>178</ele>
        <time>2014-08-02T09:10:19.000Z</time>
      </trkpt>
      <trkpt lat="48.70161" lon="1.7381">
        <ele>178</ele>
        <time>2014-08-02T09:10:23.000Z</time>
      </trkpt>
      <trkpt lat="48.70153" lon="1.73801">
        <ele>178</ele>
        <time>2014-08-02T09:10:31.000Z</time>
      </trkpt>
      <trkpt lat="48.7015" lon="1.73799">
        <ele>178</ele>
        <time>2014-08-02T09:10:33.000Z</time>
      </trkpt>
      <trkpt lat="48.70145" lon="1.73795">
        <ele>178</ele>
        <time>2014-08-02T09:10:40.000Z</time>
      </trkpt>
      <trkpt lat="48.70138" lon="1.73791">
        <ele>178</ele>
        <time>2014-08-02T09:10:44.000Z</time>
      </trkpt>
      <trkpt lat="48.70132" lon="1.73786">
        <ele>178</ele>
        <time>2014-08-02T09:10:48.000Z</time>
      </trkpt>
      <trkpt lat="48.70124" lon="1.73783">
        <ele>178</ele>
        <time>2014-08-02T09:10:52.000Z</time>
      </trkpt>
      <trkpt lat="48.70119" lon="1.73775">
        <ele>178</ele>
        <time>2014-08-02T09:10:58.000Z</time>
      </trkpt>
      <trkpt lat="48.70115" lon="1.73768">
        <ele>178</ele>
        <time>2014-08-02T09:11:03.000Z</time>
      </trkpt>
      <trkpt lat="48.7011" lon="1.73762">
        <ele>178</ele>
        <time>2014-08-02T09:11:08.000Z</time>
      </trkpt>
      <trkpt lat="48.70104" lon="1.73755">
        <ele>178</ele>
        <time>2014-08-02T09:11:12.000Z</time>
      </trkpt>
      <trkpt lat="48.70099" lon="1.7375">
        <ele>178</ele>
        <time>2014-08-02T09:11:18.000Z</time>
      </trkpt>
      <trkpt lat="48.70089" lon="1.73745">
        <ele>178</ele>
        <time>2014-08-02T09:11:26.000Z</time>
      </trkpt>
      <trkpt lat="48.70083" lon="1.73743">
        <ele>178</ele>
        <time>2014-08-02T09:11:31.000Z</time>
      </trkpt>
      <trkpt lat="48.70076" lon="1.73738">
        <ele>178</ele>
        <time>2014-08-02T09:11:38.000Z</time>
      </trkpt>
      <trkpt lat="48.70073" lon="1.73737">
        <ele>178</ele>
        <time>2014-08-02T09:11:41.000Z</time>
      </trkpt>
      <trkpt lat="48.70068" lon="1.73736">
        <ele>178</ele>
        <time>2014-08-02T09:11:47.000Z</time>
      </trkpt>
      <trkpt lat="48.7006" lon="1.73736">
        <ele>178</ele>
        <time>2014-08-02T09:11:53.000Z</time>
      </trkpt>
      <trkpt lat="48.70052" lon="1.73731">
        <ele>178</ele>
        <time>2014-08-02T09:11:59.000Z</time>
      </trkpt>
      <trkpt lat="48.70047" lon="1.73731">
        <ele>178</ele>
        <time>2014-08-02T09:12:03.000Z</time>
      </trkpt>
      <trkpt lat="48.70036" lon="1.73725">
        <ele>178.19999694824</ele>
        <time>2014-08-02T09:12:11.000Z</time>
      </trkpt>
      <trkpt lat="48.70031" lon="1.73718">
        <ele>178.19999694824</ele>
        <time>2014-08-02T09:12:15.000Z</time>
      </trkpt>
      <trkpt lat="48.70022" lon="1.73706">
        <ele>178.39999389648</ele>
        <time>2014-08-02T09:12:20.000Z</time>
      </trkpt>
      <trkpt lat="48.70018" lon="1.73694">
        <ele>178.39999389648</ele>
        <time>2014-08-02T09:12:27.000Z</time>
      </trkpt>
      <trkpt lat="48.70014" lon="1.73689">
        <ele>178.39999389648</ele>
        <time>2014-08-02T09:12:31.000Z</time>
      </trkpt>
      <trkpt lat="48.70011" lon="1.73682">
        <ele>178.39999389648</ele>
        <time>2014-08-02T09:12:36.000Z</time>
      </trkpt>
      <trkpt lat="48.70008" lon="1.73674">
        <ele>178.39999389648</ele>
        <time>2014-08-02T09:12:41.000Z</time>
      </trkpt>
      <trkpt lat="48.70002" lon="1.73667">
        <ele>178.39999389648</ele>
        <time>2014-08-02T09:12:48.000Z</time>
      </trkpt>
      <trkpt lat="48.69999" lon="1.73659">
        <ele>178.39999389648</ele>
        <time>2014-08-02T09:12:53.000Z</time>
      </trkpt>
      <trkpt lat="48.69996" lon="1.73649">
        <ele>178.39999389648</ele>
        <time>2014-08-02T09:12:59.000Z</time>
      </trkpt>
      <trkpt lat="48.69992" lon="1.73644">
        <ele>178.19999694824</ele>
        <time>2014-08-02T09:13:03.000Z</time>
      </trkpt>
      <trkpt lat="48.6999" lon="1.7364">
        <ele>178.19999694824</ele>
        <time>2014-08-02T09:13:08.000Z</time>
      </trkpt>
      <trkpt lat="48.69983" lon="1.73628">
        <ele>177.80000305176</ele>
        <time>2014-08-02T09:13:14.000Z</time>
      </trkpt>
      <trkpt lat="48.69979" lon="1.7362">
        <ele>177.60000610352</ele>
        <time>2014-08-02T09:13:20.000Z</time>
      </trkpt>
      <trkpt lat="48.69975" lon="1.73615">
        <ele>177.39999389648</ele>
        <time>2014-08-02T09:13:25.000Z</time>
      </trkpt>
      <trkpt lat="48.69968" lon="1.73604">
        <ele>177.19999694824</ele>
        <time>2014-08-02T09:13:32.000Z</time>
      </trkpt>
      <trkpt lat="48.69966" lon="1.73598">
        <ele>177</ele>
        <time>2014-08-02T09:13:36.000Z</time>
      </trkpt>
      <trkpt lat="48.69959" lon="1.7359">
        <ele>176.80000305176</ele>
        <time>2014-08-02T09:13:44.000Z</time>
      </trkpt>
      <trkpt lat="48.69952" lon="1.73582">
        <ele>176.39999389648</ele>
        <time>2014-08-02T09:13:49.000Z</time>
      </trkpt>
      <trkpt lat="48.69948" lon="1.73577">
        <ele>176.19999694824</ele>
        <time>2014-08-02T09:13:53.000Z</time>
      </trkpt>
      <trkpt lat="48.69941" lon="1.73568">
        <ele>176</ele>
        <time>2014-08-02T09:13:58.000Z</time>
      </trkpt>
      <trkpt lat="48.69937" lon="1.73563">
        <ele>176</ele>
        <time>2014-08-02T09:14:01.000Z</time>
      </trkpt>
      <trkpt lat="48.69932" lon="1.73558">
        <ele>176.19999694824</ele>
        <time>2014-08-02T09:14:06.000Z</time>
      </trkpt>
      <trkpt lat="48.69927" lon="1.73552">
        <ele>176.39999389648</ele>
        <time>2014-08-02T09:14:12.000Z</time>
      </trkpt>
      <trkpt lat="48.69922" lon="1.73542">
        <ele>176.60000610352</ele>
        <time>2014-08-02T09:14:18.000Z</time>
      </trkpt>
      <trkpt lat="48.69916" lon="1.73535">
        <ele>176.80000305176</ele>
        <time>2014-08-02T09:14:24.000Z</time>
      </trkpt>
      <trkpt lat="48.69913" lon="1.73531">
        <ele>176.80000305176</ele>
        <time>2014-08-02T09:14:28.000Z</time>
      </trkpt>
      <trkpt lat="48.69907" lon="1.73527">
        <ele>177</ele>
        <time>2014-08-02T09:14:33.000Z</time>
      </trkpt>
      <trkpt lat="48.69901" lon="1.73523">
        <ele>177.19999694824</ele>
        <time>2014-08-02T09:14:39.000Z</time>
      </trkpt>
      <trkpt lat="48.69897" lon="1.73519">
        <ele>177.39999389648</ele>
        <time>2014-08-02T09:14:43.000Z</time>
      </trkpt>
      <trkpt lat="48.69891" lon="1.73512">
        <ele>177.60000610352</ele>
        <time>2014-08-02T09:14:49.000Z</time>
      </trkpt>
      <trkpt lat="48.69887" lon="1.73502">
        <ele>177.80000305176</ele>
        <time>2014-08-02T09:14:55.000Z</time>
      </trkpt>
      <trkpt lat="48.69884" lon="1.73499">
        <ele>177.80000305176</ele>
        <time>2014-08-02T09:14:58.000Z</time>
      </trkpt>
      <trkpt lat="48.69874" lon="1.73478">
        <ele>178.19999694824</ele>
        <time>2014-08-02T09:15:07.000Z</time>
      </trkpt>
      <trkpt lat="48.69872" lon="1.7346">
        <ele>178.39999389648</ele>
        <time>2014-08-02T09:15:14.000Z</time>
      </trkpt>
      <trkpt lat="48.69875" lon="1.73444">
        <ele>178.19999694824</ele>
        <time>2014-08-02T09:15:21.000Z</time>
      </trkpt>
      <trkpt lat="48.69875" lon="1.73436">
        <ele>178.19999694824</ele>
        <time>2014-08-02T09:15:25.000Z</time>
      </trkpt>
      <trkpt lat="48.69873" lon="1.73424">
        <ele>178.19999694824</ele>
        <time>2014-08-02T09:15:33.000Z</time>
      </trkpt>
      <trkpt lat="48.69869" lon="1.73412">
        <ele>178.80000305176</ele>
        <time>2014-08-02T09:15:40.000Z</time>
      </trkpt>
      <trkpt lat="48.69866" lon="1.73405">
        <ele>179</ele>
        <time>2014-08-02T09:15:44.000Z</time>
      </trkpt>
      <trkpt lat="48.69864" lon="1.73391">
        <ele>178.80000305176</ele>
        <time>2014-08-02T09:15:50.000Z</time>
      </trkpt>
      <trkpt lat="48.69863" lon="1.73381">
        <ele>178.80000305176</ele>
        <time>2014-08-02T09:15:55.000Z</time>
      </trkpt>
      <trkpt lat="48.69864" lon="1.73372">
        <ele>178.60000610352</ele>
        <time>2014-08-02T09:15:59.000Z</time>
      </trkpt>
      <trkpt lat="48.69865" lon="1.73361">
        <ele>178.39999389648</ele>
        <time>2014-08-02T09:16:04.000Z</time>
      </trkpt>
      <trkpt lat="48.69867" lon="1.7335">
        <ele>178.39999389648</ele>
        <time>2014-08-02T09:16:09.000Z</time>
      </trkpt>
      <trkpt lat="48.69872" lon="1.73332">
        <ele>178</ele>
        <time>2014-08-02T09:16:18.000Z</time>
      </trkpt>
      <trkpt lat="48.69875" lon="1.73318">
        <ele>177.60000610352</ele>
        <time>2014-08-02T09:16:24.000Z</time>
      </trkpt>
      <trkpt lat="48.69873" lon="1.73313">
        <ele>177.39999389648</ele>
        <time>2014-08-02T09:16:27.000Z</time>
      </trkpt>
      <trkpt lat="48.6987" lon="1.73299">
        <ele>177</ele>
        <time>2014-08-02T09:16:34.000Z</time>
      </trkpt>
      <trkpt lat="48.69864" lon="1.73287">
        <ele>176.60000610352</ele>
        <time>2014-08-02T09:16:40.000Z</time>
      </trkpt>
      <trkpt lat="48.69859" lon="1.73281">
        <ele>176.60000610352</ele>
        <time>2014-08-02T09:16:45.000Z</time>
      </trkpt>
      <trkpt lat="48.69859" lon="1.7328">
        <ele>176.39999389648</ele>
        <time>2014-08-02T09:16:46.000Z</time>
      </trkpt>
      <trkpt lat="48.69851" lon="1.73267">
        <ele>176</ele>
        <time>2014-08-02T09:16:54.000Z</time>
      </trkpt>
      <trkpt lat="48.69847" lon="1.73255">
        <ele>175.39999389648</ele>
        <time>2014-08-02T09:17:00.000Z</time>
      </trkpt>
      <trkpt lat="48.69847" lon="1.73249">
        <ele>175.19999694824</ele>
        <time>2014-08-02T09:17:03.000Z</time>
      </trkpt>
      <trkpt lat="48.69847" lon="1.73243">
        <ele>175</ele>
        <time>2014-08-02T09:17:06.000Z</time>
      </trkpt>
      <trkpt lat="48.69845" lon="1.73234">
        <ele>174.60000610352</ele>
        <time>2014-08-02T09:17:10.000Z</time>
      </trkpt>
      <trkpt lat="48.69843" lon="1.73226">
        <ele>174.60000610352</ele>
        <time>2014-08-02T09:17:15.000Z</time>
      </trkpt>
      <trkpt lat="48.69839" lon="1.73219">
        <ele>174.39999389648</ele>
        <time>2014-08-02T09:17:19.000Z</time>
      </trkpt>
      <trkpt lat="48.69835" lon="1.73204">
        <ele>174.39999389648</ele>
        <time>2014-08-02T09:17:26.000Z</time>
      </trkpt>
      <trkpt lat="48.69831" lon="1.73187">
        <ele>174.19999694824</ele>
        <time>2014-08-02T09:17:34.000Z</time>
      </trkpt>
      <trkpt lat="48.69832" lon="1.73172">
        <ele>174.19999694824</ele>
        <time>2014-08-02T09:17:41.000Z</time>
      </trkpt>
      <trkpt lat="48.69835" lon="1.7316">
        <ele>174.39999389648</ele>
        <time>2014-08-02T09:17:47.000Z</time>
      </trkpt>
      <trkpt lat="48.69839" lon="1.73151">
        <ele>174.60000610352</ele>
        <time>2014-08-02T09:17:52.000Z</time>
      </trkpt>
      <trkpt lat="48.69838" lon="1.73145">
        <ele>174.60000610352</ele>
        <time>2014-08-02T09:17:56.000Z</time>
      </trkpt>
      <trkpt lat="48.69837" lon="1.73141">
        <ele>174.80000305176</ele>
        <time>2014-08-02T09:17:59.000Z</time>
      </trkpt>
      <trkpt lat="48.69835" lon="1.73121">
        <ele>174.80000305176</ele>
        <time>2014-08-02T09:18:08.000Z</time>
      </trkpt>
      <trkpt lat="48.69833" lon="1.7311">
        <ele>174.80000305176</ele>
        <time>2014-08-02T09:18:14.000Z</time>
      </trkpt>
      <trkpt lat="48.69828" lon="1.73094">
        <ele>174.60000610352</ele>
        <time>2014-08-02T09:18:21.000Z</time>
      </trkpt>
      <trkpt lat="48.69827" lon="1.73091">
        <ele>174.60000610352</ele>
        <time>2014-08-02T09:18:23.000Z</time>
      </trkpt>
      <trkpt lat="48.69825" lon="1.73079">
        <ele>174.60000610352</ele>
        <time>2014-08-02T09:18:29.000Z</time>
      </trkpt>
      <trkpt lat="48.69825" lon="1.73062">
        <ele>174.39999389648</ele>
        <time>2014-08-02T09:18:37.000Z</time>
      </trkpt>
      <trkpt lat="48.69826" lon="1.73052">
        <ele>174.19999694824</ele>
        <time>2014-08-02T09:18:42.000Z</time>
      </trkpt>
      <trkpt lat="48.69827" lon="1.73042">
        <ele>174</ele>
        <time>2014-08-02T09:18:47.000Z</time>
      </trkpt>
      <trkpt lat="48.69826" lon="1.73038">
        <ele>173.80000305176</ele>
        <time>2014-08-02T09:18:49.000Z</time>
      </trkpt>
      <trkpt lat="48.69825" lon="1.73034">
        <ele>173.60000610352</ele>
        <time>2014-08-02T09:18:51.000Z</time>
      </trkpt>
      <trkpt lat="48.69822" lon="1.73021">
        <ele>173.19999694824</ele>
        <time>2014-08-02T09:18:58.000Z</time>
      </trkpt>
      <trkpt lat="48.69818" lon="1.73001">
        <ele>172.39999389648</ele>
        <time>2014-08-02T09:19:07.000Z</time>
      </trkpt>
      <trkpt lat="48.69816" lon="1.72984">
        <ele>171.80000305176</ele>
        <time>2014-08-02T09:19:15.000Z</time>
      </trkpt>
      <trkpt lat="48.69812" lon="1.72968">
        <ele>171.39999389648</ele>
        <time>2014-08-02T09:19:23.000Z</time>
      </trkpt>
      <trkpt lat="48.6981" lon="1.72958">
        <ele>171</ele>
        <time>2014-08-02T09:19:28.000Z</time>
      </trkpt>
      <trkpt lat="48.69805" lon="1.72944">
        <ele>170.39999389648</ele>
        <time>2014-08-02T09:19:35.000Z</time>
      </trkpt>
      <trkpt lat="48.69805" lon="1.72942">
        <ele>170.39999389648</ele>
        <time>2014-08-02T09:19:36.000Z</time>
      </trkpt>
      <trkpt lat="48.69802" lon="1.72933">
        <ele>170</ele>
        <time>2014-08-02T09:19:41.000Z</time>
      </trkpt>
      <trkpt lat="48.69799" lon="1.72922">
        <ele>169.80000305176</ele>
        <time>2014-08-02T09:19:47.000Z</time>
      </trkpt>
      <trkpt lat="48.69797" lon="1.72918">
        <ele>169.60000610352</ele>
        <time>2014-08-02T09:19:50.000Z</time>
      </trkpt>
      <trkpt lat="48.69793" lon="1.72904">
        <ele>169.19999694824</ele>
        <time>2014-08-02T09:19:57.000Z</time>
      </trkpt>
      <trkpt lat="48.69792" lon="1.72898">
        <ele>169.19999694824</ele>
        <time>2014-08-02T09:20:00.000Z</time>
      </trkpt>
      <trkpt lat="48.69787" lon="1.72885">
        <ele>169</ele>
        <time>2014-08-02T09:20:07.000Z</time>
      </trkpt>
      <trkpt lat="48.69786" lon="1.72881">
        <ele>169</ele>
        <time>2014-08-02T09:20:09.000Z</time>
      </trkpt>
      <trkpt lat="48.69785" lon="1.72877">
        <ele>168.80000305176</ele>
        <time>2014-08-02T09:20:11.000Z</time>
      </trkpt>
      <trkpt lat="48.69781" lon="1.72871">
        <ele>168.80000305176</ele>
        <time>2014-08-02T09:20:14.000Z</time>
      </trkpt>
      <trkpt lat="48.69777" lon="1.72867">
        <ele>168.60000610352</ele>
        <time>2014-08-02T09:20:18.000Z</time>
      </trkpt>
      <trkpt lat="48.69769" lon="1.72852">
        <ele>168.39999389648</ele>
        <time>2014-08-02T09:20:26.000Z</time>
      </trkpt>
      <trkpt lat="48.69766" lon="1.72849">
        <ele>168.19999694824</ele>
        <time>2014-08-02T09:20:29.000Z</time>
      </trkpt>
      <trkpt lat="48.6976" lon="1.72843">
        <ele>168</ele>
        <time>2014-08-02T09:20:34.000Z</time>
      </trkpt>
      <trkpt lat="48.69749" lon="1.72839">
        <ele>167.80000305176</ele>
        <time>2014-08-02T09:20:41.000Z</time>
      </trkpt>
      <trkpt lat="48.69739" lon="1.72833">
        <ele>167.39999389648</ele>
        <time>2014-08-02T09:20:48.000Z</time>
      </trkpt>
      <trkpt lat="48.69732" lon="1.72832">
        <ele>167.19999694824</ele>
        <time>2014-08-02T09:20:54.000Z</time>
      </trkpt>
      <trkpt lat="48.69723" lon="1.72829">
        <ele>167</ele>
        <time>2014-08-02T09:21:01.000Z</time>
      </trkpt>
      <trkpt lat="48.69719" lon="1.72827">
        <ele>166.80000305176</ele>
        <time>2014-08-02T09:21:04.000Z</time>
      </trkpt>
      <trkpt lat="48.69711" lon="1.72825">
        <ele>166.60000610352</ele>
        <time>2014-08-02T09:21:10.000Z</time>
      </trkpt>
      <trkpt lat="48.69705" lon="1.72825">
        <ele>166.39999389648</ele>
        <time>2014-08-02T09:21:14.000Z</time>
      </trkpt>
      <trkpt lat="48.69696" lon="1.72818">
        <ele>166.19999694824</ele>
        <time>2014-08-02T09:21:21.000Z</time>
      </trkpt>
      <trkpt lat="48.69694" lon="1.72814">
        <ele>166.19999694824</ele>
        <time>2014-08-02T09:21:23.000Z</time>
      </trkpt>
      <trkpt lat="48.69684" lon="1.72803">
        <ele>166.19999694824</ele>
        <time>2014-08-02T09:21:32.000Z</time>
      </trkpt>
      <trkpt lat="48.69679" lon="1.72795">
        <ele>166.39999389648</ele>
        <time>2014-08-02T09:21:38.000Z</time>
      </trkpt>
      <trkpt lat="48.69675" lon="1.72786">
        <ele>166.60000610352</ele>
        <time>2014-08-02T09:21:43.000Z</time>
      </trkpt>
      <trkpt lat="48.69669" lon="1.72773">
        <ele>166.80000305176</ele>
        <time>2014-08-02T09:21:49.000Z</time>
      </trkpt>
      <trkpt lat="48.69664" lon="1.72759">
        <ele>167</ele>
        <time>2014-08-02T09:21:56.000Z</time>
      </trkpt>
      <trkpt lat="48.69658" lon="1.72746">
        <ele>167.19999694824</ele>
        <time>2014-08-02T09:22:02.000Z</time>
      </trkpt>
      <trkpt lat="48.69652" lon="1.72734">
        <ele>167.60000610352</ele>
        <time>2014-08-02T09:22:09.000Z</time>
      </trkpt>
      <trkpt lat="48.69651" lon="1.72724">
        <ele>167.80000305176</ele>
        <time>2014-08-02T09:22:15.000Z</time>
      </trkpt>
      <trkpt lat="48.69645" lon="1.7272">
        <ele>168</ele>
        <time>2014-08-02T09:22:21.000Z</time>
      </trkpt>
      <trkpt lat="48.69639" lon="1.72721">
        <ele>168</ele>
        <time>2014-08-02T09:22:26.000Z</time>
      </trkpt>
      <trkpt lat="48.6963" lon="1.72719">
        <ele>168.19999694824</ele>
        <time>2014-08-02T09:22:34.000Z</time>
      </trkpt>
      <trkpt lat="48.69623" lon="1.72707">
        <ele>168.39999389648</ele>
        <time>2014-08-02T09:22:42.000Z</time>
      </trkpt>
      <trkpt lat="48.6962" lon="1.72706">
        <ele>168.60000610352</ele>
        <time>2014-08-02T09:22:45.000Z</time>
      </trkpt>
      <trkpt lat="48.69611" lon="1.72708">
        <ele>168.60000610352</ele>
        <time>2014-08-02T09:22:51.000Z</time>
      </trkpt>
      <trkpt lat="48.69601" lon="1.72708">
        <ele>168.60000610352</ele>
        <time>2014-08-02T09:22:58.000Z</time>
      </trkpt>
      <trkpt lat="48.69589" lon="1.7271">
        <ele>167.60000610352</ele>
        <time>2014-08-02T09:23:06.000Z</time>
      </trkpt>
      <trkpt lat="48.69578" lon="1.72711">
        <ele>166.80000305176</ele>
        <time>2014-08-02T09:23:14.000Z</time>
      </trkpt>
      <trkpt lat="48.69569" lon="1.72708">
        <ele>166.39999389648</ele>
        <time>2014-08-02T09:23:21.000Z</time>
      </trkpt>
      <trkpt lat="48.69568" lon="1.72707">
        <ele>166.19999694824</ele>
        <time>2014-08-02T09:23:22.000Z</time>
      </trkpt>
      <trkpt lat="48.69555" lon="1.72707">
        <ele>165.39999389648</ele>
        <time>2014-08-02T09:23:31.000Z</time>
      </trkpt>
      <trkpt lat="48.69547" lon="1.72699">
        <ele>165</ele>
        <time>2014-08-02T09:23:38.000Z</time>
      </trkpt>
      <trkpt lat="48.69542" lon="1.72688">
        <ele>165</ele>
        <time>2014-08-02T09:23:45.000Z</time>
      </trkpt>
      <trkpt lat="48.69529" lon="1.72683">
        <ele>164.19999694824</ele>
        <time>2014-08-02T09:23:55.000Z</time>
      </trkpt>
      <trkpt lat="48.69519" lon="1.72681">
        <ele>163.60000610352</ele>
        <time>2014-08-02T09:24:03.000Z</time>
      </trkpt>
      <trkpt lat="48.6951" lon="1.72675">
        <ele>163.19999694824</ele>
        <time>2014-08-02T09:24:11.000Z</time>
      </trkpt>
      <trkpt lat="48.69504" lon="1.72673">
        <ele>163</ele>
        <time>2014-08-02T09:24:16.000Z</time>
      </trkpt>
      <trkpt lat="48.69496" lon="1.72664">
        <ele>162.80000305176</ele>
        <time>2014-08-02T09:24:24.000Z</time>
      </trkpt>
      <trkpt lat="48.69489" lon="1.72653">
        <ele>162.60000610352</ele>
        <time>2014-08-02T09:24:32.000Z</time>
      </trkpt>
      <trkpt lat="48.6948" lon="1.72641">
        <ele>162</ele>
        <time>2014-08-02T09:24:41.000Z</time>
      </trkpt>
      <trkpt lat="48.69471" lon="1.72626">
        <ele>161.60000610352</ele>
        <time>2014-08-02T09:24:51.000Z</time>
      </trkpt>
      <trkpt lat="48.69465" lon="1.72613">
        <ele>161.39999389648</ele>
        <time>2014-08-02T09:24:59.000Z</time>
      </trkpt>
      <trkpt lat="48.69458" lon="1.72594">
        <ele>161</ele>
        <time>2014-08-02T09:25:10.000Z</time>
      </trkpt>
      <trkpt lat="48.69452" lon="1.72579">
        <ele>160.80000305176</ele>
        <time>2014-08-02T09:25:18.000Z</time>
      </trkpt>
      <trkpt lat="48.69446" lon="1.72564">
        <ele>160.80000305176</ele>
        <time>2014-08-02T09:25:27.000Z</time>
      </trkpt>
      <trkpt lat="48.69442" lon="1.72554">
        <ele>161</ele>
        <time>2014-08-02T09:25:33.000Z</time>
      </trkpt>
      <trkpt lat="48.69436" lon="1.7254">
        <ele>161</ele>
        <time>2014-08-02T09:25:41.000Z</time>
      </trkpt>
      <trkpt lat="48.6943" lon="1.7253">
        <ele>161.60000610352</ele>
        <time>2014-08-02T09:25:48.000Z</time>
      </trkpt>
      <trkpt lat="48.69428" lon="1.72527">
        <ele>161.80000305176</ele>
        <time>2014-08-02T09:25:51.000Z</time>
      </trkpt>
      <trkpt lat="48.69427" lon="1.7252">
        <ele>162</ele>
        <time>2014-08-02T09:25:55.000Z</time>
      </trkpt>
      <trkpt lat="48.69425" lon="1.72514">
        <ele>162.39999389648</ele>
        <time>2014-08-02T09:25:59.000Z</time>
      </trkpt>
      <trkpt lat="48.69415" lon="1.72497">
        <ele>163.19999694824</ele>
        <time>2014-08-02T09:26:10.000Z</time>
      </trkpt>
      <trkpt lat="48.69409" lon="1.72488">
        <ele>163.60000610352</ele>
        <time>2014-08-02T09:26:17.000Z</time>
      </trkpt>
      <trkpt lat="48.69402" lon="1.72473">
        <ele>163.60000610352</ele>
        <time>2014-08-02T09:26:26.000Z</time>
      </trkpt>
      <trkpt lat="48.69397" lon="1.72467">
        <ele>163.80000305176</ele>
        <time>2014-08-02T09:26:30.000Z</time>
      </trkpt>
      <trkpt lat="48.69394" lon="1.72463">
        <ele>163.80000305176</ele>
        <time>2014-08-02T09:26:34.000Z</time>
      </trkpt>
      <trkpt lat="48.69384" lon="1.72447">
        <ele>163.80000305176</ele>
        <time>2014-08-02T09:26:44.000Z</time>
      </trkpt>
      <trkpt lat="48.69378" lon="1.72439">
        <ele>163.80000305176</ele>
        <time>2014-08-02T09:26:50.000Z</time>
      </trkpt>
      <trkpt lat="48.69374" lon="1.72428">
        <ele>163.80000305176</ele>
        <time>2014-08-02T09:26:56.000Z</time>
      </trkpt>
      <trkpt lat="48.6937" lon="1.72413">
        <ele>163.60000610352</ele>
        <time>2014-08-02T09:27:04.000Z</time>
      </trkpt>
      <trkpt lat="48.69365" lon="1.72403">
        <ele>163.39999389648</ele>
        <time>2014-08-02T09:27:10.000Z</time>
      </trkpt>
      <trkpt lat="48.69362" lon="1.724">
        <ele>163.60000610352</ele>
        <time>2014-08-02T09:27:13.000Z</time>
      </trkpt>
      <trkpt lat="48.69358" lon="1.72393">
        <ele>163.60000610352</ele>
        <time>2014-08-02T09:27:17.000Z</time>
      </trkpt>
      <trkpt lat="48.69349" lon="1.72379">
        <ele>164</ele>
        <time>2014-08-02T09:27:26.000Z</time>
      </trkpt>
      <trkpt lat="48.69345" lon="1.72367">
        <ele>164</ele>
        <time>2014-08-02T09:27:32.000Z</time>
      </trkpt>
      <trkpt lat="48.69341" lon="1.72361">
        <ele>164.19999694824</ele>
        <time>2014-08-02T09:27:35.000Z</time>
      </trkpt>
      <trkpt lat="48.69335" lon="1.7235">
        <ele>164.39999389648</ele>
        <time>2014-08-02T09:27:42.000Z</time>
      </trkpt>
      <trkpt lat="48.69332" lon="1.72336">
        <ele>164.39999389648</ele>
        <time>2014-08-02T09:27:49.000Z</time>
      </trkpt>
      <trkpt lat="48.69327" lon="1.72321">
        <ele>164.60000610352</ele>
        <time>2014-08-02T09:27:56.000Z</time>
      </trkpt>
      <trkpt lat="48.69325" lon="1.72317">
        <ele>164.80000305176</ele>
        <time>2014-08-02T09:27:58.000Z</time>
      </trkpt>
      <trkpt lat="48.69316" lon="1.72303">
        <ele>165.19999694824</ele>
        <time>2014-08-02T09:28:07.000Z</time>
      </trkpt>
      <trkpt lat="48.69313" lon="1.72299">
        <ele>165.39999389648</ele>
        <time>2014-08-02T09:28:10.000Z</time>
      </trkpt>
      <trkpt lat="48.69307" lon="1.72296">
        <ele>165.80000305176</ele>
        <time>2014-08-02T09:28:14.000Z</time>
      </trkpt>
      <trkpt lat="48.69304" lon="1.72283">
        <ele>166</ele>
        <time>2014-08-02T09:28:19.000Z</time>
      </trkpt>
      <trkpt lat="48.69303" lon="1.72277">
        <ele>166</ele>
        <time>2014-08-02T09:28:22.000Z</time>
      </trkpt>
      <trkpt lat="48.69299" lon="1.72266">
        <ele>166.19999694824</ele>
        <time>2014-08-02T09:28:27.000Z</time>
      </trkpt>
      <trkpt lat="48.69294" lon="1.72257">
        <ele>166.39999389648</ele>
        <time>2014-08-02T09:28:32.000Z</time>
      </trkpt>
      <trkpt lat="48.6929" lon="1.7225">
        <ele>166.60000610352</ele>
        <time>2014-08-02T09:28:38.000Z</time>
      </trkpt>
      <trkpt lat="48.6929" lon="1.7225">
        <ele>166.60000610352</ele>
        <time>2014-08-02T09:28:39.000Z</time>
      </trkpt>
      <trkpt lat="48.69287" lon="1.72248">
        <ele>166.80000305176</ele>
        <time>2014-08-02T09:28:43.000Z</time>
      </trkpt>
      <trkpt lat="48.69285" lon="1.72245">
        <ele>167</ele>
        <time>2014-08-02T09:28:44.000Z</time>
      </trkpt>
      <trkpt lat="48.6928" lon="1.72235">
        <ele>167.19999694824</ele>
        <time>2014-08-02T09:28:50.000Z</time>
      </trkpt>
      <trkpt lat="48.69272" lon="1.72223">
        <ele>167.60000610352</ele>
        <time>2014-08-02T09:28:58.000Z</time>
      </trkpt>
      <trkpt lat="48.69267" lon="1.72219">
        <ele>168</ele>
        <time>2014-08-02T09:29:02.000Z</time>
      </trkpt>
      <trkpt lat="48.69261" lon="1.72211">
        <ele>168.39999389648</ele>
        <time>2014-08-02T09:29:07.000Z</time>
      </trkpt>
      <trkpt lat="48.69252" lon="1.722">
        <ele>168.80000305176</ele>
        <time>2014-08-02T09:29:15.000Z</time>
      </trkpt>
      <trkpt lat="48.69246" lon="1.7219">
        <ele>169.19999694824</ele>
        <time>2014-08-02T09:29:21.000Z</time>
      </trkpt>
      <trkpt lat="48.69245" lon="1.72187">
        <ele>169.19999694824</ele>
        <time>2014-08-02T09:29:23.000Z</time>
      </trkpt>
      <trkpt lat="48.69243" lon="1.72182">
        <ele>169.19999694824</ele>
        <time>2014-08-02T09:29:26.000Z</time>
      </trkpt>
      <trkpt lat="48.69237" lon="1.72172">
        <ele>169.60000610352</ele>
        <time>2014-08-02T09:29:33.000Z</time>
      </trkpt>
      <trkpt lat="48.69232" lon="1.72169">
        <ele>170</ele>
        <time>2014-08-02T09:29:36.000Z</time>
      </trkpt>
      <trkpt lat="48.6922" lon="1.72161">
        <ele>170.60000610352</ele>
        <time>2014-08-02T09:29:45.000Z</time>
      </trkpt>
      <trkpt lat="48.6921" lon="1.72153">
        <ele>171.19999694824</ele>
        <time>2014-08-02T09:29:53.000Z</time>
      </trkpt>
      <trkpt lat="48.692" lon="1.72144">
        <ele>171.60000610352</ele>
        <time>2014-08-02T09:30:00.000Z</time>
      </trkpt>
      <trkpt lat="48.69199" lon="1.72139">
        <ele>171.39999389648</ele>
        <time>2014-08-02T09:30:02.000Z</time>
      </trkpt>
      <trkpt lat="48.69194" lon="1.72129">
        <ele>171.19999694824</ele>
        <time>2014-08-02T09:30:08.000Z</time>
      </trkpt>
      <trkpt lat="48.69187" lon="1.72117">
        <ele>171.19999694824</ele>
        <time>2014-08-02T09:30:16.000Z</time>
      </trkpt>
      <trkpt lat="48.69178" lon="1.72105">
        <ele>170.60000610352</ele>
        <time>2014-08-02T09:30:24.000Z</time>
      </trkpt>
      <trkpt lat="48.69172" lon="1.72097">
        <ele>170.19999694824</ele>
        <time>2014-08-02T09:30:29.000Z</time>
      </trkpt>
      <trkpt lat="48.69167" lon="1.7209">
        <ele>170</ele>
        <time>2014-08-02T09:30:33.000Z</time>
      </trkpt>
      <trkpt lat="48.69164" lon="1.72084">
        <ele>169.60000610352</ele>
        <time>2014-08-02T09:30:36.000Z</time>
      </trkpt>
      <trkpt lat="48.69159" lon="1.72073">
        <ele>169.19999694824</ele>
        <time>2014-08-02T09:30:42.000Z</time>
      </trkpt>
      <trkpt lat="48.69152" lon="1.7206">
        <ele>169.19999694824</ele>
        <time>2014-08-02T09:30:50.000Z</time>
      </trkpt>
      <trkpt lat="48.69146" lon="1.72052">
        <ele>169.19999694824</ele>
        <time>2014-08-02T09:30:54.000Z</time>
      </trkpt>
      <trkpt lat="48.69139" lon="1.7204">
        <ele>169.39999389648</ele>
        <time>2014-08-02T09:31:02.000Z</time>
      </trkpt>
      <trkpt lat="48.69133" lon="1.72033">
        <ele>169.39999389648</ele>
        <time>2014-08-02T09:31:06.000Z</time>
      </trkpt>
      <trkpt lat="48.69128" lon="1.72018">
        <ele>169.60000610352</ele>
        <time>2014-08-02T09:31:13.000Z</time>
      </trkpt>
      <trkpt lat="48.69127" lon="1.72016">
        <ele>169.60000610352</ele>
        <time>2014-08-02T09:31:14.000Z</time>
      </trkpt>
      <trkpt lat="48.69123" lon="1.72004">
        <ele>169.80000305176</ele>
        <time>2014-08-02T09:31:20.000Z</time>
      </trkpt>
      <trkpt lat="48.69121" lon="1.71992">
        <ele>169.80000305176</ele>
        <time>2014-08-02T09:31:26.000Z</time>
      </trkpt>
      <trkpt lat="48.69117" lon="1.71977">
        <ele>169.60000610352</ele>
        <time>2014-08-02T09:31:33.000Z</time>
      </trkpt>
      <trkpt lat="48.69114" lon="1.71966">
        <ele>169.39999389648</ele>
        <time>2014-08-02T09:31:39.000Z</time>
      </trkpt>
      <trkpt lat="48.69109" lon="1.71952">
        <ele>169</ele>
        <time>2014-08-02T09:31:46.000Z</time>
      </trkpt>
      <trkpt lat="48.69106" lon="1.71937">
        <ele>168.80000305176</ele>
        <time>2014-08-02T09:31:53.000Z</time>
      </trkpt>
      <trkpt lat="48.69101" lon="1.71927">
        <ele>168.60000610352</ele>
        <time>2014-08-02T09:31:59.000Z</time>
      </trkpt>
      <trkpt lat="48.69099" lon="1.71919">
        <ele>168.39999389648</ele>
        <time>2014-08-02T09:32:04.000Z</time>
      </trkpt>
      <trkpt lat="48.69096" lon="1.71912">
        <ele>168.19999694824</ele>
        <time>2014-08-02T09:32:08.000Z</time>
      </trkpt>
      <trkpt lat="48.69092" lon="1.71902">
        <ele>168.19999694824</ele>
        <time>2014-08-02T09:32:14.000Z</time>
      </trkpt>
      <trkpt lat="48.6909" lon="1.71892">
        <ele>168.19999694824</ele>
        <time>2014-08-02T09:32:19.000Z</time>
      </trkpt>
      <trkpt lat="48.69088" lon="1.71882">
        <ele>168.39999389648</ele>
        <time>2014-08-02T09:32:24.000Z</time>
      </trkpt>
      <trkpt lat="48.69086" lon="1.71874">
        <ele>168.19999694824</ele>
        <time>2014-08-02T09:32:28.000Z</time>
      </trkpt>
      <trkpt lat="48.69083" lon="1.71865">
        <ele>168.19999694824</ele>
        <time>2014-08-02T09:32:34.000Z</time>
      </trkpt>
      <trkpt lat="48.69083" lon="1.71863">
        <ele>168.19999694824</ele>
        <time>2014-08-02T09:32:35.000Z</time>
      </trkpt>
      <trkpt lat="48.69079" lon="1.7185">
        <ele>168.19999694824</ele>
        <time>2014-08-02T09:32:41.000Z</time>
      </trkpt>
      <trkpt lat="48.69074" lon="1.71844">
        <ele>168.39999389648</ele>
        <time>2014-08-02T09:32:45.000Z</time>
      </trkpt>
      <trkpt lat="48.69073" lon="1.71828">
        <ele>168.19999694824</ele>
        <time>2014-08-02T09:32:52.000Z</time>
      </trkpt>
      <trkpt lat="48.69068" lon="1.71813">
        <ele>168.19999694824</ele>
        <time>2014-08-02T09:33:00.000Z</time>
      </trkpt>
      <trkpt lat="48.69063" lon="1.71801">
        <ele>168.19999694824</ele>
        <time>2014-08-02T09:33:06.000Z</time>
      </trkpt>
      <trkpt lat="48.69063" lon="1.71799">
        <ele>168.19999694824</ele>
        <time>2014-08-02T09:33:07.000Z</time>
      </trkpt>
      <trkpt lat="48.69057" lon="1.71782">
        <ele>168.19999694824</ele>
        <time>2014-08-02T09:33:16.000Z</time>
      </trkpt>
      <trkpt lat="48.69053" lon="1.7177">
        <ele>168.19999694824</ele>
        <time>2014-08-02T09:33:23.000Z</time>
      </trkpt>
      <trkpt lat="48.69049" lon="1.71757">
        <ele>168.19999694824</ele>
        <time>2014-08-02T09:33:30.000Z</time>
      </trkpt>
      <trkpt lat="48.69044" lon="1.71744">
        <ele>168.19999694824</ele>
        <time>2014-08-02T09:33:36.000Z</time>
      </trkpt>
      <trkpt lat="48.69037" lon="1.71729">
        <ele>168.19999694824</ele>
        <time>2014-08-02T09:33:43.000Z</time>
      </trkpt>
      <trkpt lat="48.69033" lon="1.71718">
        <ele>168.39999389648</ele>
        <time>2014-08-02T09:33:48.000Z</time>
      </trkpt>
      <trkpt lat="48.69024" lon="1.71701">
        <ele>168.39999389648</ele>
        <time>2014-08-02T09:33:53.000Z</time>
      </trkpt>
      <trkpt lat="48.69012" lon="1.71674">
        <ele>168.60000610352</ele>
        <time>2014-08-02T09:34:00.000Z</time>
      </trkpt>
      <trkpt lat="48.69001" lon="1.71651">
        <ele>168.80000305176</ele>
        <time>2014-08-02T09:34:06.000Z</time>
      </trkpt>
      <trkpt lat="48.68992" lon="1.71631">
        <ele>169</ele>
        <time>2014-08-02T09:34:11.000Z</time>
      </trkpt>
      <trkpt lat="48.68979" lon="1.71606">
        <ele>169.60000610352</ele>
        <time>2014-08-02T09:34:17.000Z</time>
      </trkpt>
      <trkpt lat="48.68968" lon="1.71582">
        <ele>170.39999389648</ele>
        <time>2014-08-02T09:34:23.000Z</time>
      </trkpt>
      <trkpt lat="48.68956" lon="1.71559">
        <ele>170.80000305176</ele>
        <time>2014-08-02T09:34:29.000Z</time>
      </trkpt>
      <trkpt lat="48.68942" lon="1.71535">
        <ele>171</ele>
        <time>2014-08-02T09:34:35.000Z</time>
      </trkpt>
      <trkpt lat="48.68914" lon="1.7149">
        <ele>171.80000305176</ele>
        <time>2014-08-02T09:34:47.000Z</time>
      </trkpt>
      <trkpt lat="48.689" lon="1.71472">
        <ele>172.39999389648</ele>
        <time>2014-08-02T09:34:53.000Z</time>
      </trkpt>
      <trkpt lat="48.6889" lon="1.71455">
        <ele>172.60000610352</ele>
        <time>2014-08-02T09:34:58.000Z</time>
      </trkpt>
      <trkpt lat="48.68875" lon="1.71429">
        <ele>173.19999694824</ele>
        <time>2014-08-02T09:35:06.000Z</time>
      </trkpt>
      <trkpt lat="48.68866" lon="1.7141">
        <ele>173.60000610352</ele>
        <time>2014-08-02T09:35:13.000Z</time>
      </trkpt>
      <trkpt lat="48.68859" lon="1.71399">
        <ele>174</ele>
        <time>2014-08-02T09:35:20.000Z</time>
      </trkpt>
      <trkpt lat="48.68851" lon="1.71385">
        <ele>174.39999389648</ele>
        <time>2014-08-02T09:35:28.000Z</time>
      </trkpt>
      <trkpt lat="48.68842" lon="1.71371">
        <ele>175</ele>
        <time>2014-08-02T09:35:36.000Z</time>
      </trkpt>
      <trkpt lat="48.68835" lon="1.71357">
        <ele>175.60000610352</ele>
        <time>2014-08-02T09:35:45.000Z</time>
      </trkpt>
      <trkpt lat="48.68829" lon="1.71347">
        <ele>176</ele>
        <time>2014-08-02T09:35:51.000Z</time>
      </trkpt>
      <trkpt lat="48.68823" lon="1.71339">
        <ele>176.19999694824</ele>
        <time>2014-08-02T09:35:56.000Z</time>
      </trkpt>
      <trkpt lat="48.68819" lon="1.71332">
        <ele>176.60000610352</ele>
        <time>2014-08-02T09:36:01.000Z</time>
      </trkpt>
      <trkpt lat="48.68811" lon="1.71318">
        <ele>177</ele>
        <time>2014-08-02T09:36:10.000Z</time>
      </trkpt>
      <trkpt lat="48.68807" lon="1.71308">
        <ele>177.19999694824</ele>
        <time>2014-08-02T09:36:16.000Z</time>
      </trkpt>
      <trkpt lat="48.68803" lon="1.71299">
        <ele>177.19999694824</ele>
        <time>2014-08-02T09:36:21.000Z</time>
      </trkpt>
      <trkpt lat="48.68798" lon="1.71292">
        <ele>177.39999389648</ele>
        <time>2014-08-02T09:36:26.000Z</time>
      </trkpt>
      <trkpt lat="48.68789" lon="1.71284">
        <ele>177.60000610352</ele>
        <time>2014-08-02T09:36:33.000Z</time>
      </trkpt>
      <trkpt lat="48.68787" lon="1.71281">
        <ele>177.60000610352</ele>
        <time>2014-08-02T09:36:35.000Z</time>
      </trkpt>
      <trkpt lat="48.6878" lon="1.71271">
        <ele>177.80000305176</ele>
        <time>2014-08-02T09:36:42.000Z</time>
      </trkpt>
      <trkpt lat="48.68773" lon="1.71267">
        <ele>178</ele>
        <time>2014-08-02T09:36:47.000Z</time>
      </trkpt>
      <trkpt lat="48.68768" lon="1.71263">
        <ele>178</ele>
        <time>2014-08-02T09:36:51.000Z</time>
      </trkpt>
      <trkpt lat="48.68763" lon="1.71255">
        <ele>178</ele>
        <time>2014-08-02T09:36:57.000Z</time>
      </trkpt>
      <trkpt lat="48.68752" lon="1.71241">
        <ele>177.80000305176</ele>
        <time>2014-08-02T09:37:06.000Z</time>
      </trkpt>
      <trkpt lat="48.68746" lon="1.7123">
        <ele>177.80000305176</ele>
        <time>2014-08-02T09:37:13.000Z</time>
      </trkpt>
      <trkpt lat="48.68741" lon="1.71224">
        <ele>178</ele>
        <time>2014-08-02T09:37:19.000Z</time>
      </trkpt>
      <trkpt lat="48.68734" lon="1.71215">
        <ele>178</ele>
        <time>2014-08-02T09:37:25.000Z</time>
      </trkpt>
      <trkpt lat="48.68728" lon="1.71207">
        <ele>178.19999694824</ele>
        <time>2014-08-02T09:37:30.000Z</time>
      </trkpt>
      <trkpt lat="48.68719" lon="1.71195">
        <ele>178.39999389648</ele>
        <time>2014-08-02T09:37:38.000Z</time>
      </trkpt>
      <trkpt lat="48.68712" lon="1.71186">
        <ele>178.60000610352</ele>
        <time>2014-08-02T09:37:45.000Z</time>
      </trkpt>
      <trkpt lat="48.68712" lon="1.71185">
        <ele>178.60000610352</ele>
        <time>2014-08-02T09:37:47.000Z</time>
      </trkpt>
      <trkpt lat="48.68705" lon="1.71176">
        <ele>178.60000610352</ele>
        <time>2014-08-02T09:38:10.000Z</time>
      </trkpt>
      <trkpt lat="48.68704" lon="1.71175">
        <ele>178.60000610352</ele>
        <time>2014-08-02T09:38:11.000Z</time>
      </trkpt>
      <trkpt lat="48.68698" lon="1.71169">
        <ele>178.80000305176</ele>
        <time>2014-08-02T09:38:15.000Z</time>
      </trkpt>
      <trkpt lat="48.68689" lon="1.71157">
        <ele>179</ele>
        <time>2014-08-02T09:38:23.000Z</time>
      </trkpt>
      <trkpt lat="48.68681" lon="1.71149">
        <ele>179</ele>
        <time>2014-08-02T09:38:30.000Z</time>
      </trkpt>
      <trkpt lat="48.68672" lon="1.71139">
        <ele>178.80000305176</ele>
        <time>2014-08-02T09:38:37.000Z</time>
      </trkpt>
      <trkpt lat="48.6867" lon="1.71137">
        <ele>178.80000305176</ele>
        <time>2014-08-02T09:38:39.000Z</time>
      </trkpt>
      <trkpt lat="48.68661" lon="1.71127">
        <ele>178.60000610352</ele>
        <time>2014-08-02T09:38:47.000Z</time>
      </trkpt>
      <trkpt lat="48.6866" lon="1.71127">
        <ele>178.60000610352</ele>
        <time>2014-08-02T09:38:48.000Z</time>
      </trkpt>
      <trkpt lat="48.68648" lon="1.71119">
        <ele>178.60000610352</ele>
        <time>2014-08-02T09:38:57.000Z</time>
      </trkpt>
      <trkpt lat="48.68638" lon="1.71113">
        <ele>178.60000610352</ele>
        <time>2014-08-02T09:39:05.000Z</time>
      </trkpt>
      <trkpt lat="48.68627" lon="1.71108">
        <ele>178.39999389648</ele>
        <time>2014-08-02T09:39:12.000Z</time>
      </trkpt>
      <trkpt lat="48.68618" lon="1.71092">
        <ele>178.19999694824</ele>
        <time>2014-08-02T09:39:22.000Z</time>
      </trkpt>
      <trkpt lat="48.68611" lon="1.7108">
        <ele>178.19999694824</ele>
        <time>2014-08-02T09:39:30.000Z</time>
      </trkpt>
      <trkpt lat="48.68599" lon="1.71071">
        <ele>178</ele>
        <time>2014-08-02T09:39:39.000Z</time>
      </trkpt>
      <trkpt lat="48.68591" lon="1.71065">
        <ele>178</ele>
        <time>2014-08-02T09:39:45.000Z</time>
      </trkpt>
      <trkpt lat="48.68585" lon="1.71061">
        <ele>177.80000305176</ele>
        <time>2014-08-02T09:39:49.000Z</time>
      </trkpt>
      <trkpt lat="48.68575" lon="1.7105">
        <ele>177.80000305176</ele>
        <time>2014-08-02T09:39:57.000Z</time>
      </trkpt>
      <trkpt lat="48.68565" lon="1.71042">
        <ele>177.60000610352</ele>
        <time>2014-08-02T09:40:04.000Z</time>
      </trkpt>
      <trkpt lat="48.68559" lon="1.71035">
        <ele>177.60000610352</ele>
        <time>2014-08-02T09:40:10.000Z</time>
      </trkpt>
      <trkpt lat="48.68549" lon="1.71025">
        <ele>177.39999389648</ele>
        <time>2014-08-02T09:40:17.000Z</time>
      </trkpt>
      <trkpt lat="48.68542" lon="1.71017">
        <ele>177.39999389648</ele>
        <time>2014-08-02T09:40:23.000Z</time>
      </trkpt>
      <trkpt lat="48.68529" lon="1.7101">
        <ele>177.19999694824</ele>
        <time>2014-08-02T09:40:32.000Z</time>
      </trkpt>
      <trkpt lat="48.68515" lon="1.71003">
        <ele>177.19999694824</ele>
        <time>2014-08-02T09:40:40.000Z</time>
      </trkpt>
      <trkpt lat="48.68507" lon="1.70997">
        <ele>177</ele>
        <time>2014-08-02T09:40:46.000Z</time>
      </trkpt>
      <trkpt lat="48.68496" lon="1.70994">
        <ele>176.80000305176</ele>
        <time>2014-08-02T09:40:53.000Z</time>
      </trkpt>
      <trkpt lat="48.68486" lon="1.70987">
        <ele>176.60000610352</ele>
        <time>2014-08-02T09:41:00.000Z</time>
      </trkpt>
      <trkpt lat="48.68476" lon="1.7098">
        <ele>176.39999389648</ele>
        <time>2014-08-02T09:41:07.000Z</time>
      </trkpt>
      <trkpt lat="48.68466" lon="1.70972">
        <ele>176</ele>
        <time>2014-08-02T09:41:15.000Z</time>
      </trkpt>
      <trkpt lat="48.68455" lon="1.70967">
        <ele>175.80000305176</ele>
        <time>2014-08-02T09:41:22.000Z</time>
      </trkpt>
      <trkpt lat="48.68444" lon="1.70956">
        <ele>175.39999389648</ele>
        <time>2014-08-02T09:41:30.000Z</time>
      </trkpt>
      <trkpt lat="48.68433" lon="1.70948">
        <ele>175.19999694824</ele>
        <time>2014-08-02T09:41:38.000Z</time>
      </trkpt>
      <trkpt lat="48.68417" lon="1.70942">
        <ele>175.80000305176</ele>
        <time>2014-08-02T09:41:48.000Z</time>
      </trkpt>
      <trkpt lat="48.68407" lon="1.70932">
        <ele>176.19999694824</ele>
        <time>2014-08-02T09:41:56.000Z</time>
      </trkpt>
      <trkpt lat="48.68403" lon="1.70927">
        <ele>176.19999694824</ele>
        <time>2014-08-02T09:42:01.000Z</time>
      </trkpt>
      <trkpt lat="48.68402" lon="1.70927">
        <ele>176.19999694824</ele>
        <time>2014-08-02T09:42:05.000Z</time>
      </trkpt>
      <trkpt lat="48.68394" lon="1.7091">
        <ele>176.19999694824</ele>
        <time>2014-08-02T09:43:17.000Z</time>
      </trkpt>
      <trkpt lat="48.68383" lon="1.70908">
        <ele>176.60000610352</ele>
        <time>2014-08-02T09:43:24.000Z</time>
      </trkpt>
      <trkpt lat="48.68382" lon="1.70908">
        <ele>176.80000305176</ele>
        <time>2014-08-02T09:43:25.000Z</time>
      </trkpt>
      <trkpt lat="48.68381" lon="1.70906">
        <ele>176.80000305176</ele>
        <time>2014-08-02T09:43:27.000Z</time>
      </trkpt>
      <trkpt lat="48.68378" lon="1.70897">
        <ele>176.60000610352</ele>
        <time>2014-08-02T09:43:33.000Z</time>
      </trkpt>
      <trkpt lat="48.68367" lon="1.70885">
        <ele>176.60000610352</ele>
        <time>2014-08-02T09:43:43.000Z</time>
      </trkpt>
      <trkpt lat="48.68366" lon="1.70883">
        <ele>176.60000610352</ele>
        <time>2014-08-02T09:43:45.000Z</time>
      </trkpt>
      <trkpt lat="48.68362" lon="1.70876">
        <ele>176.60000610352</ele>
        <time>2014-08-02T09:43:50.000Z</time>
      </trkpt>
      <trkpt lat="48.68361" lon="1.70873">
        <ele>176.60000610352</ele>
        <time>2014-08-02T09:43:52.000Z</time>
      </trkpt>
      <trkpt lat="48.68354" lon="1.70863">
        <ele>176.60000610352</ele>
        <time>2014-08-02T09:44:00.000Z</time>
      </trkpt>
      <trkpt lat="48.68343" lon="1.7085">
        <ele>176.39999389648</ele>
        <time>2014-08-02T09:44:10.000Z</time>
      </trkpt>
      <trkpt lat="48.68336" lon="1.70839">
        <ele>176.19999694824</ele>
        <time>2014-08-02T09:44:18.000Z</time>
      </trkpt>
      <trkpt lat="48.68328" lon="1.70831">
        <ele>176.19999694824</ele>
        <time>2014-08-02T09:44:25.000Z</time>
      </trkpt>
      <trkpt lat="48.68322" lon="1.70825">
        <ele>176.39999389648</ele>
        <time>2014-08-02T09:44:30.000Z</time>
      </trkpt>
      <trkpt lat="48.68314" lon="1.70814">
        <ele>176.19999694824</ele>
        <time>2014-08-02T09:44:38.000Z</time>
      </trkpt>
      <trkpt lat="48.68307" lon="1.70804">
        <ele>176</ele>
        <time>2014-08-02T09:44:45.000Z</time>
      </trkpt>
      <trkpt lat="48.68303" lon="1.70799">
        <ele>176</ele>
        <time>2014-08-02T09:44:48.000Z</time>
      </trkpt>
      <trkpt lat="48.68296" lon="1.7079">
        <ele>176</ele>
        <time>2014-08-02T09:44:54.000Z</time>
      </trkpt>
      <trkpt lat="48.68288" lon="1.70779">
        <ele>175.80000305176</ele>
        <time>2014-08-02T09:45:01.000Z</time>
      </trkpt>
      <trkpt lat="48.68284" lon="1.70772">
        <ele>175.80000305176</ele>
        <time>2014-08-02T09:45:06.000Z</time>
      </trkpt>
      <trkpt lat="48.68275" lon="1.70758">
        <ele>175.60000610352</ele>
        <time>2014-08-02T09:45:13.000Z</time>
      </trkpt>
      <trkpt lat="48.68266" lon="1.7075">
        <ele>175.60000610352</ele>
        <time>2014-08-02T09:45:20.000Z</time>
      </trkpt>
      <trkpt lat="48.68259" lon="1.70742">
        <ele>175.60000610352</ele>
        <time>2014-08-02T09:45:26.000Z</time>
      </trkpt>
      <trkpt lat="48.68248" lon="1.70736">
        <ele>175.80000305176</ele>
        <time>2014-08-02T09:45:33.000Z</time>
      </trkpt>
      <trkpt lat="48.6824" lon="1.7073">
        <ele>176</ele>
        <time>2014-08-02T09:45:39.000Z</time>
      </trkpt>
      <trkpt lat="48.68232" lon="1.70722">
        <ele>176.19999694824</ele>
        <time>2014-08-02T09:45:44.000Z</time>
      </trkpt>
      <trkpt lat="48.6822" lon="1.70717">
        <ele>176.60000610352</ele>
        <time>2014-08-02T09:45:52.000Z</time>
      </trkpt>
      <trkpt lat="48.68214" lon="1.70708">
        <ele>176.60000610352</ele>
        <time>2014-08-02T09:45:58.000Z</time>
      </trkpt>
      <trkpt lat="48.68209" lon="1.70703">
        <ele>176.80000305176</ele>
        <time>2014-08-02T09:46:02.000Z</time>
      </trkpt>
      <trkpt lat="48.68197" lon="1.70696">
        <ele>177.19999694824</ele>
        <time>2014-08-02T09:46:10.000Z</time>
      </trkpt>
      <trkpt lat="48.68195" lon="1.70695">
        <ele>177.19999694824</ele>
        <time>2014-08-02T09:46:11.000Z</time>
      </trkpt>
      <trkpt lat="48.68191" lon="1.70688">
        <ele>177.19999694824</ele>
        <time>2014-08-02T09:46:16.000Z</time>
      </trkpt>
      <trkpt lat="48.68184" lon="1.70677">
        <ele>177.19999694824</ele>
        <time>2014-08-02T09:46:23.000Z</time>
      </trkpt>
      <trkpt lat="48.68179" lon="1.70666">
        <ele>177.19999694824</ele>
        <time>2014-08-02T09:46:29.000Z</time>
      </trkpt>
      <trkpt lat="48.6817" lon="1.70654">
        <ele>177</ele>
        <time>2014-08-02T09:46:36.000Z</time>
      </trkpt>
      <trkpt lat="48.68163" lon="1.70658">
        <ele>177</ele>
        <time>2014-08-02T09:46:44.000Z</time>
      </trkpt>
      <trkpt lat="48.68157" lon="1.70661">
        <ele>177</ele>
        <time>2014-08-02T09:46:49.000Z</time>
      </trkpt>
      <trkpt lat="48.68147" lon="1.70666">
        <ele>177.19999694824</ele>
        <time>2014-08-02T09:46:57.000Z</time>
      </trkpt>
      <trkpt lat="48.68137" lon="1.70669">
        <ele>177.19999694824</ele>
        <time>2014-08-02T09:47:04.000Z</time>
      </trkpt>
      <trkpt lat="48.68127" lon="1.70675">
        <ele>177.19999694824</ele>
        <time>2014-08-02T09:47:12.000Z</time>
      </trkpt>
      <trkpt lat="48.68118" lon="1.70679">
        <ele>177</ele>
        <time>2014-08-02T09:47:18.000Z</time>
      </trkpt>
      <trkpt lat="48.68107" lon="1.70684">
        <ele>176.80000305176</ele>
        <time>2014-08-02T09:47:25.000Z</time>
      </trkpt>
      <trkpt lat="48.68095" lon="1.7069">
        <ele>176.19999694824</ele>
        <time>2014-08-02T09:47:34.000Z</time>
      </trkpt>
      <trkpt lat="48.68086" lon="1.70695">
        <ele>175.60000610352</ele>
        <time>2014-08-02T09:47:41.000Z</time>
      </trkpt>
      <trkpt lat="48.68075" lon="1.70699">
        <ele>175.19999694824</ele>
        <time>2014-08-02T09:47:49.000Z</time>
      </trkpt>
      <trkpt lat="48.68061" lon="1.70707">
        <ele>174.19999694824</ele>
        <time>2014-08-02T09:47:57.000Z</time>
      </trkpt>
      <trkpt lat="48.6805" lon="1.70712">
        <ele>173.39999389648</ele>
        <time>2014-08-02T09:48:04.000Z</time>
      </trkpt>
      <trkpt lat="48.68042" lon="1.70713">
        <ele>173</ele>
        <time>2014-08-02T09:48:10.000Z</time>
      </trkpt>
      <trkpt lat="48.68039" lon="1.70715">
        <ele>172.60000610352</ele>
        <time>2014-08-02T09:48:13.000Z</time>
      </trkpt>
      <trkpt lat="48.68035" lon="1.70717">
        <ele>172.39999389648</ele>
        <time>2014-08-02T09:48:16.000Z</time>
      </trkpt>
      <trkpt lat="48.68028" lon="1.70719">
        <ele>172</ele>
        <time>2014-08-02T09:48:20.000Z</time>
      </trkpt>
      <trkpt lat="48.68013" lon="1.70728">
        <ele>171.19999694824</ele>
        <time>2014-08-02T09:48:29.000Z</time>
      </trkpt>
      <trkpt lat="48.68004" lon="1.7073">
        <ele>171.19999694824</ele>
        <time>2014-08-02T09:48:35.000Z</time>
      </trkpt>
      <trkpt lat="48.67992" lon="1.70732">
        <ele>171.19999694824</ele>
        <time>2014-08-02T09:48:42.000Z</time>
      </trkpt>
      <trkpt lat="48.6798" lon="1.70741">
        <ele>171</ele>
        <time>2014-08-02T09:48:51.000Z</time>
      </trkpt>
      <trkpt lat="48.6797" lon="1.70748">
        <ele>170.80000305176</ele>
        <time>2014-08-02T09:48:58.000Z</time>
      </trkpt>
      <trkpt lat="48.67963" lon="1.70746">
        <ele>170.80000305176</ele>
        <time>2014-08-02T09:49:05.000Z</time>
      </trkpt>
      <trkpt lat="48.67952" lon="1.70757">
        <ele>170.80000305176</ele>
        <time>2014-08-02T09:49:13.000Z</time>
      </trkpt>
      <trkpt lat="48.67939" lon="1.70763">
        <ele>170.60000610352</ele>
        <time>2014-08-02T09:49:18.000Z</time>
      </trkpt>
      <trkpt lat="48.67926" lon="1.70768">
        <ele>170.60000610352</ele>
        <time>2014-08-02T09:49:23.000Z</time>
      </trkpt>
      <trkpt lat="48.67907" lon="1.70777">
        <ele>170.60000610352</ele>
        <time>2014-08-02T09:49:29.000Z</time>
      </trkpt>
      <trkpt lat="48.6789" lon="1.70787">
        <ele>170</ele>
        <time>2014-08-02T09:49:34.000Z</time>
      </trkpt>
      <trkpt lat="48.67871" lon="1.70796">
        <ele>168.80000305176</ele>
        <time>2014-08-02T09:49:40.000Z</time>
      </trkpt>
      <trkpt lat="48.67852" lon="1.70804">
        <ele>167.80000305176</ele>
        <time>2014-08-02T09:49:46.000Z</time>
      </trkpt>
      <trkpt lat="48.67832" lon="1.70815">
        <ele>166.39999389648</ele>
        <time>2014-08-02T09:49:52.000Z</time>
      </trkpt>
      <trkpt lat="48.67816" lon="1.7082">
        <ele>165.19999694824</ele>
        <time>2014-08-02T09:49:57.000Z</time>
      </trkpt>
      <trkpt lat="48.67796" lon="1.70831">
        <ele>164</ele>
        <time>2014-08-02T09:50:03.000Z</time>
      </trkpt>
      <trkpt lat="48.6778" lon="1.70839">
        <ele>163.19999694824</ele>
        <time>2014-08-02T09:50:08.000Z</time>
      </trkpt>
      <trkpt lat="48.67759" lon="1.70848">
        <ele>162.60000610352</ele>
        <time>2014-08-02T09:50:14.000Z</time>
      </trkpt>
      <trkpt lat="48.67748" lon="1.70854">
        <ele>162.60000610352</ele>
        <time>2014-08-02T09:50:18.000Z</time>
      </trkpt>
      <trkpt lat="48.67744" lon="1.70859">
        <ele>162.60000610352</ele>
        <time>2014-08-02T09:50:20.000Z</time>
      </trkpt>
      <trkpt lat="48.67739" lon="1.7086">
        <ele>162.60000610352</ele>
        <time>2014-08-02T09:50:23.000Z</time>
      </trkpt>
      <trkpt lat="48.67729" lon="1.70865">
        <ele>162.39999389648</ele>
        <time>2014-08-02T09:50:30.000Z</time>
      </trkpt>
      <trkpt lat="48.67719" lon="1.70871">
        <ele>162.60000610352</ele>
        <time>2014-08-02T09:50:36.000Z</time>
      </trkpt>
      <trkpt lat="48.67709" lon="1.70875">
        <ele>162.80000305176</ele>
        <time>2014-08-02T09:50:43.000Z</time>
      </trkpt>
      <trkpt lat="48.67697" lon="1.70881">
        <ele>162.80000305176</ele>
        <time>2014-08-02T09:50:52.000Z</time>
      </trkpt>
      <trkpt lat="48.67689" lon="1.70885">
        <ele>163</ele>
        <time>2014-08-02T09:50:58.000Z</time>
      </trkpt>
      <trkpt lat="48.67681" lon="1.70889">
        <ele>163.39999389648</ele>
        <time>2014-08-02T09:51:04.000Z</time>
      </trkpt>
      <trkpt lat="48.67674" lon="1.70893">
        <ele>163.80000305176</ele>
        <time>2014-08-02T09:51:09.000Z</time>
      </trkpt>
      <trkpt lat="48.67657" lon="1.709">
        <ele>164.80000305176</ele>
        <time>2014-08-02T09:51:20.000Z</time>
      </trkpt>
      <trkpt lat="48.67652" lon="1.70902">
        <ele>165</ele>
        <time>2014-08-02T09:51:23.000Z</time>
      </trkpt>
      <trkpt lat="48.67639" lon="1.70908">
        <ele>165.80000305176</ele>
        <time>2014-08-02T09:51:29.000Z</time>
      </trkpt>
      <trkpt lat="48.67619" lon="1.70918">
        <ele>166.80000305176</ele>
        <time>2014-08-02T09:51:36.000Z</time>
      </trkpt>
      <trkpt lat="48.676" lon="1.70928">
        <ele>167.19999694824</ele>
        <time>2014-08-02T09:51:43.000Z</time>
      </trkpt>
      <trkpt lat="48.6759" lon="1.70933">
        <ele>167.19999694824</ele>
        <time>2014-08-02T09:51:51.000Z</time>
      </trkpt>
      <trkpt lat="48.67577" lon="1.70939">
        <ele>167.39999389648</ele>
        <time>2014-08-02T09:52:00.000Z</time>
      </trkpt>
      <trkpt lat="48.67564" lon="1.70944">
        <ele>167.39999389648</ele>
        <time>2014-08-02T09:52:09.000Z</time>
      </trkpt>
      <trkpt lat="48.67554" lon="1.70949">
        <ele>168</ele>
        <time>2014-08-02T09:52:16.000Z</time>
      </trkpt>
      <trkpt lat="48.67543" lon="1.70953">
        <ele>168.60000610352</ele>
        <time>2014-08-02T09:52:23.000Z</time>
      </trkpt>
      <trkpt lat="48.67529" lon="1.70959">
        <ele>169.39999389648</ele>
        <time>2014-08-02T09:52:33.000Z</time>
      </trkpt>
      <trkpt lat="48.67519" lon="1.70966">
        <ele>170</ele>
        <time>2014-08-02T09:52:40.000Z</time>
      </trkpt>
      <trkpt lat="48.67507" lon="1.70972">
        <ele>170.80000305176</ele>
        <time>2014-08-02T09:52:48.000Z</time>
      </trkpt>
      <trkpt lat="48.67497" lon="1.70978">
        <ele>171.39999389648</ele>
        <time>2014-08-02T09:52:55.000Z</time>
      </trkpt>
      <trkpt lat="48.67485" lon="1.70984">
        <ele>171.80000305176</ele>
        <time>2014-08-02T09:53:03.000Z</time>
      </trkpt>
      <trkpt lat="48.67473" lon="1.7099">
        <ele>172.39999389648</ele>
        <time>2014-08-02T09:53:11.000Z</time>
      </trkpt>
      <trkpt lat="48.6746" lon="1.70995">
        <ele>173</ele>
        <time>2014-08-02T09:53:19.000Z</time>
      </trkpt>
      <trkpt lat="48.67448" lon="1.71002">
        <ele>173.80000305176</ele>
        <time>2014-08-02T09:53:27.000Z</time>
      </trkpt>
      <trkpt lat="48.67441" lon="1.71006">
        <ele>174</ele>
        <time>2014-08-02T09:53:32.000Z</time>
      </trkpt>
      <trkpt lat="48.67435" lon="1.7101">
        <ele>174.19999694824</ele>
        <time>2014-08-02T09:53:38.000Z</time>
      </trkpt>
      <trkpt lat="48.67426" lon="1.71013">
        <ele>174.39999389648</ele>
        <time>2014-08-02T09:53:44.000Z</time>
      </trkpt>
      <trkpt lat="48.67414" lon="1.71018">
        <ele>174.60000610352</ele>
        <time>2014-08-02T09:53:52.000Z</time>
      </trkpt>
      <trkpt lat="48.67406" lon="1.71022">
        <ele>174.80000305176</ele>
        <time>2014-08-02T09:53:57.000Z</time>
      </trkpt>
      <trkpt lat="48.67393" lon="1.71026">
        <ele>175</ele>
        <time>2014-08-02T09:54:05.000Z</time>
      </trkpt>
      <trkpt lat="48.67381" lon="1.71028">
        <ele>174.60000610352</ele>
        <time>2014-08-02T09:54:12.000Z</time>
      </trkpt>
      <trkpt lat="48.67371" lon="1.71027">
        <ele>174.39999389648</ele>
        <time>2014-08-02T09:54:19.000Z</time>
      </trkpt>
      <trkpt lat="48.67369" lon="1.71028">
        <ele>174.39999389648</ele>
        <time>2014-08-02T09:54:20.000Z</time>
      </trkpt>
      <trkpt lat="48.67356" lon="1.7103">
        <ele>174</ele>
        <time>2014-08-02T09:54:28.000Z</time>
      </trkpt>
      <trkpt lat="48.67346" lon="1.71028">
        <ele>173.60000610352</ele>
        <time>2014-08-02T09:54:34.000Z</time>
      </trkpt>
      <trkpt lat="48.67338" lon="1.71028">
        <ele>173.39999389648</ele>
        <time>2014-08-02T09:54:39.000Z</time>
      </trkpt>
      <trkpt lat="48.67329" lon="1.71025">
        <ele>173</ele>
        <time>2014-08-02T09:54:45.000Z</time>
      </trkpt>
      <trkpt lat="48.67319" lon="1.71022">
        <ele>172.60000610352</ele>
        <time>2014-08-02T09:54:52.000Z</time>
      </trkpt>
      <trkpt lat="48.67318" lon="1.71021">
        <ele>172.39999389648</ele>
        <time>2014-08-02T09:54:53.000Z</time>
      </trkpt>
      <trkpt lat="48.67311" lon="1.71021">
        <ele>172.19999694824</ele>
        <time>2014-08-02T09:54:57.000Z</time>
      </trkpt>
      <trkpt lat="48.673" lon="1.71021">
        <ele>171.80000305176</ele>
        <time>2014-08-02T09:55:03.000Z</time>
      </trkpt>
      <trkpt lat="48.67296" lon="1.71022">
        <ele>171.80000305176</ele>
        <time>2014-08-02T09:55:06.000Z</time>
      </trkpt>
      <trkpt lat="48.67289" lon="1.71023">
        <ele>171.60000610352</ele>
        <time>2014-08-02T09:55:11.000Z</time>
      </trkpt>
      <trkpt lat="48.67276" lon="1.71026">
        <ele>171.60000610352</ele>
        <time>2014-08-02T09:55:18.000Z</time>
      </trkpt>
      <trkpt lat="48.67274" lon="1.71025">
        <ele>171.60000610352</ele>
        <time>2014-08-02T09:55:19.000Z</time>
      </trkpt>
      <trkpt lat="48.67262" lon="1.71028">
        <ele>171.60000610352</ele>
        <time>2014-08-02T09:55:26.000Z</time>
      </trkpt>
      <trkpt lat="48.6726" lon="1.71027">
        <ele>171.60000610352</ele>
        <time>2014-08-02T09:55:27.000Z</time>
      </trkpt>
      <trkpt lat="48.67248" lon="1.71024">
        <ele>171.80000305176</ele>
        <time>2014-08-02T09:55:35.000Z</time>
      </trkpt>
      <trkpt lat="48.67239" lon="1.71024">
        <ele>171.80000305176</ele>
        <time>2014-08-02T09:55:41.000Z</time>
      </trkpt>
      <trkpt lat="48.67229" lon="1.71023">
        <ele>172</ele>
        <time>2014-08-02T09:55:47.000Z</time>
      </trkpt>
      <trkpt lat="48.6722" lon="1.71021">
        <ele>172</ele>
        <time>2014-08-02T09:55:53.000Z</time>
      </trkpt>
      <trkpt lat="48.67216" lon="1.71022">
        <ele>172</ele>
        <time>2014-08-02T09:55:56.000Z</time>
      </trkpt>
      <trkpt lat="48.67204" lon="1.71018">
        <ele>172.19999694824</ele>
        <time>2014-08-02T09:56:03.000Z</time>
      </trkpt>
      <trkpt lat="48.67193" lon="1.71018">
        <ele>172.19999694824</ele>
        <time>2014-08-02T09:56:10.000Z</time>
      </trkpt>
      <trkpt lat="48.67183" lon="1.71016">
        <ele>172.19999694824</ele>
        <time>2014-08-02T09:56:16.000Z</time>
      </trkpt>
      <trkpt lat="48.67178" lon="1.71015">
        <ele>172</ele>
        <time>2014-08-02T09:56:19.000Z</time>
      </trkpt>
      <trkpt lat="48.67169" lon="1.71014">
        <ele>171.39999389648</ele>
        <time>2014-08-02T09:56:24.000Z</time>
      </trkpt>
      <trkpt lat="48.67155" lon="1.71013">
        <ele>170.80000305176</ele>
        <time>2014-08-02T09:56:31.000Z</time>
      </trkpt>
      <trkpt lat="48.67147" lon="1.71013">
        <ele>170.39999389648</ele>
        <time>2014-08-02T09:56:35.000Z</time>
      </trkpt>
      <trkpt lat="48.67136" lon="1.7101">
        <ele>169.80000305176</ele>
        <time>2014-08-02T09:56:42.000Z</time>
      </trkpt>
      <trkpt lat="48.67126" lon="1.71008">
        <ele>169.39999389648</ele>
        <time>2014-08-02T09:56:49.000Z</time>
      </trkpt>
      <trkpt lat="48.67112" lon="1.71009">
        <ele>168.39999389648</ele>
        <time>2014-08-02T09:56:56.000Z</time>
      </trkpt>
      <trkpt lat="48.67102" lon="1.71009">
        <ele>167.60000610352</ele>
        <time>2014-08-02T09:57:01.000Z</time>
      </trkpt>
      <trkpt lat="48.67096" lon="1.71009">
        <ele>167.39999389648</ele>
        <time>2014-08-02T09:57:04.000Z</time>
      </trkpt>
      <trkpt lat="48.67087" lon="1.71008">
        <ele>166.80000305176</ele>
        <time>2014-08-02T09:57:09.000Z</time>
      </trkpt>
      <trkpt lat="48.67076" lon="1.71005">
        <ele>166.19999694824</ele>
        <time>2014-08-02T09:57:16.000Z</time>
      </trkpt>
      <trkpt lat="48.67068" lon="1.71006">
        <ele>165.60000610352</ele>
        <time>2014-08-02T09:57:21.000Z</time>
      </trkpt>
      <trkpt lat="48.67058" lon="1.71002">
        <ele>165.19999694824</ele>
        <time>2014-08-02T09:57:28.000Z</time>
      </trkpt>
      <trkpt lat="48.67048" lon="1.71001">
        <ele>164.60000610352</ele>
        <time>2014-08-02T09:57:33.000Z</time>
      </trkpt>
      <trkpt lat="48.67034" lon="1.70999">
        <ele>163.80000305176</ele>
        <time>2014-08-02T09:57:40.000Z</time>
      </trkpt>
      <trkpt lat="48.67032" lon="1.70999">
        <ele>163.60000610352</ele>
        <time>2014-08-02T09:57:41.000Z</time>
      </trkpt>
      <trkpt lat="48.67018" lon="1.71001">
        <ele>162.60000610352</ele>
        <time>2014-08-02T09:57:49.000Z</time>
      </trkpt>
      <trkpt lat="48.6701" lon="1.71">
        <ele>161.80000305176</ele>
        <time>2014-08-02T09:57:54.000Z</time>
      </trkpt>
      <trkpt lat="48.67" lon="1.70997">
        <ele>161.19999694824</ele>
        <time>2014-08-02T09:58:00.000Z</time>
      </trkpt>
      <trkpt lat="48.66992" lon="1.70997">
        <ele>160.39999389648</ele>
        <time>2014-08-02T09:58:04.000Z</time>
      </trkpt>
      <trkpt lat="48.66979" lon="1.70994">
        <ele>159.39999389648</ele>
        <time>2014-08-02T09:58:10.000Z</time>
      </trkpt>
      <trkpt lat="48.66962" lon="1.7099">
        <ele>158</ele>
        <time>2014-08-02T09:58:16.000Z</time>
      </trkpt>
      <trkpt lat="48.6694" lon="1.70987">
        <ele>156.39999389648</ele>
        <time>2014-08-02T09:58:22.000Z</time>
      </trkpt>
      <trkpt lat="48.66923" lon="1.70985">
        <ele>155</ele>
        <time>2014-08-02T09:58:27.000Z</time>
      </trkpt>
      <trkpt lat="48.66903" lon="1.70982">
        <ele>153.60000610352</ele>
        <time>2014-08-02T09:58:33.000Z</time>
      </trkpt>
      <trkpt lat="48.66873" lon="1.7098">
        <ele>151.39999389648</ele>
        <time>2014-08-02T09:58:41.000Z</time>
      </trkpt>
      <trkpt lat="48.66848" lon="1.70977">
        <ele>149.60000610352</ele>
        <time>2014-08-02T09:58:48.000Z</time>
      </trkpt>
      <trkpt lat="48.66837" lon="1.70976">
        <ele>149</ele>
        <time>2014-08-02T09:58:54.000Z</time>
      </trkpt>
      <trkpt lat="48.66824" lon="1.70977">
        <ele>148.19999694824</ele>
        <time>2014-08-02T09:59:02.000Z</time>
      </trkpt>
      <trkpt lat="48.66822" lon="1.70976">
        <ele>148.19999694824</ele>
        <time>2014-08-02T09:59:03.000Z</time>
      </trkpt>
      <trkpt lat="48.6682" lon="1.70975">
        <ele>148</ele>
        <time>2014-08-02T09:59:08.000Z</time>
      </trkpt>
      <trkpt lat="48.66814" lon="1.70973">
        <ele>147.60000610352</ele>
        <time>2014-08-02T09:59:32.000Z</time>
      </trkpt>
      <trkpt lat="48.66809" lon="1.70966">
        <ele>147.39999389648</ele>
        <time>2014-08-02T09:59:36.000Z</time>
      </trkpt>
      <trkpt lat="48.66805" lon="1.70963">
        <ele>147.19999694824</ele>
        <time>2014-08-02T09:59:39.000Z</time>
      </trkpt>
      <trkpt lat="48.66799" lon="1.70958">
        <ele>146.80000305176</ele>
        <time>2014-08-02T09:59:44.000Z</time>
      </trkpt>
      <trkpt lat="48.66792" lon="1.70953">
        <ele>146.39999389648</ele>
        <time>2014-08-02T09:59:50.000Z</time>
      </trkpt>
      <trkpt lat="48.66784" lon="1.70939">
        <ele>145.80000305176</ele>
        <time>2014-08-02T09:59:58.000Z</time>
      </trkpt>
      <trkpt lat="48.66778" lon="1.70927">
        <ele>145.60000610352</ele>
        <time>2014-08-02T10:00:04.000Z</time>
      </trkpt>
      <trkpt lat="48.66776" lon="1.70924">
        <ele>145.39999389648</ele>
        <time>2014-08-02T10:00:06.000Z</time>
      </trkpt>
      <trkpt lat="48.66771" lon="1.70916">
        <ele>145.19999694824</ele>
        <time>2014-08-02T10:00:10.000Z</time>
      </trkpt>
      <trkpt lat="48.66762" lon="1.70902">
        <ele>145</ele>
        <time>2014-08-02T10:00:18.000Z</time>
      </trkpt>
      <trkpt lat="48.66754" lon="1.70893">
        <ele>144.80000305176</ele>
        <time>2014-08-02T10:00:24.000Z</time>
      </trkpt>
      <trkpt lat="48.66747" lon="1.70884">
        <ele>144.80000305176</ele>
        <time>2014-08-02T10:00:31.000Z</time>
      </trkpt>
      <trkpt lat="48.66738" lon="1.70873">
        <ele>144.60000610352</ele>
        <time>2014-08-02T10:00:38.000Z</time>
      </trkpt>
      <trkpt lat="48.6673" lon="1.70858">
        <ele>144.60000610352</ele>
        <time>2014-08-02T10:00:46.000Z</time>
      </trkpt>
      <trkpt lat="48.66724" lon="1.70845">
        <ele>144.80000305176</ele>
        <time>2014-08-02T10:00:53.000Z</time>
      </trkpt>
      <trkpt lat="48.66716" lon="1.7083">
        <ele>144.80000305176</ele>
        <time>2014-08-02T10:01:01.000Z</time>
      </trkpt>
      <trkpt lat="48.66711" lon="1.70822">
        <ele>144.80000305176</ele>
        <time>2014-08-02T10:01:06.000Z</time>
      </trkpt>
      <trkpt lat="48.66704" lon="1.70808">
        <ele>145</ele>
        <time>2014-08-02T10:01:14.000Z</time>
      </trkpt>
      <trkpt lat="48.66697" lon="1.70799">
        <ele>145</ele>
        <time>2014-08-02T10:01:20.000Z</time>
      </trkpt>
      <trkpt lat="48.66693" lon="1.7079">
        <ele>145</ele>
        <time>2014-08-02T10:01:25.000Z</time>
      </trkpt>
      <trkpt lat="48.66687" lon="1.70779">
        <ele>145</ele>
        <time>2014-08-02T10:01:31.000Z</time>
      </trkpt>
      <trkpt lat="48.66681" lon="1.7077">
        <ele>145</ele>
        <time>2014-08-02T10:01:37.000Z</time>
      </trkpt>
      <trkpt lat="48.66673" lon="1.70757">
        <ele>145</ele>
        <time>2014-08-02T10:01:44.000Z</time>
      </trkpt>
      <trkpt lat="48.66664" lon="1.70739">
        <ele>144.80000305176</ele>
        <time>2014-08-02T10:01:53.000Z</time>
      </trkpt>
      <trkpt lat="48.66657" lon="1.70727">
        <ele>144.80000305176</ele>
        <time>2014-08-02T10:01:59.000Z</time>
      </trkpt>
      <trkpt lat="48.66655" lon="1.70726">
        <ele>144.80000305176</ele>
        <time>2014-08-02T10:02:00.000Z</time>
      </trkpt>
      <trkpt lat="48.66651" lon="1.70719">
        <ele>144.80000305176</ele>
        <time>2014-08-02T10:02:04.000Z</time>
      </trkpt>
      <trkpt lat="48.66645" lon="1.7071">
        <ele>144.60000610352</ele>
        <time>2014-08-02T10:02:09.000Z</time>
      </trkpt>
      <trkpt lat="48.66641" lon="1.70705">
        <ele>144.60000610352</ele>
        <time>2014-08-02T10:02:13.000Z</time>
      </trkpt>
      <trkpt lat="48.66634" lon="1.70696">
        <ele>144.39999389648</ele>
        <time>2014-08-02T10:02:19.000Z</time>
      </trkpt>
      <trkpt lat="48.66621" lon="1.70688">
        <ele>144</ele>
        <time>2014-08-02T10:02:27.000Z</time>
      </trkpt>
      <trkpt lat="48.66616" lon="1.70684">
        <ele>144</ele>
        <time>2014-08-02T10:02:30.000Z</time>
      </trkpt>
      <trkpt lat="48.6661" lon="1.70675">
        <ele>143.80000305176</ele>
        <time>2014-08-02T10:02:36.000Z</time>
      </trkpt>
      <trkpt lat="48.66607" lon="1.7067">
        <ele>143.80000305176</ele>
        <time>2014-08-02T10:02:39.000Z</time>
      </trkpt>
      <trkpt lat="48.66599" lon="1.70659">
        <ele>144</ele>
        <time>2014-08-02T10:02:46.000Z</time>
      </trkpt>
      <trkpt lat="48.66591" lon="1.70651">
        <ele>144.19999694824</ele>
        <time>2014-08-02T10:02:52.000Z</time>
      </trkpt>
      <trkpt lat="48.66589" lon="1.70648">
        <ele>144.39999389648</ele>
        <time>2014-08-02T10:02:54.000Z</time>
      </trkpt>
      <trkpt lat="48.66586" lon="1.70648">
        <ele>144.39999389648</ele>
        <time>2014-08-02T10:02:57.000Z</time>
      </trkpt>
      <trkpt lat="48.66576" lon="1.70643">
        <ele>144.80000305176</ele>
        <time>2014-08-02T10:03:04.000Z</time>
      </trkpt>
      <trkpt lat="48.66573" lon="1.70642">
        <ele>144.80000305176</ele>
        <time>2014-08-02T10:03:06.000Z</time>
      </trkpt>
      <trkpt lat="48.66564" lon="1.70642">
        <ele>145</ele>
        <time>2014-08-02T10:03:11.000Z</time>
      </trkpt>
      <trkpt lat="48.6655" lon="1.70641">
        <ele>145.19999694824</ele>
        <time>2014-08-02T10:03:18.000Z</time>
      </trkpt>
      <trkpt lat="48.66547" lon="1.7064">
        <ele>145.39999389648</ele>
        <time>2014-08-02T10:03:20.000Z</time>
      </trkpt>
      <trkpt lat="48.66536" lon="1.70636">
        <ele>145.60000610352</ele>
        <time>2014-08-02T10:03:27.000Z</time>
      </trkpt>
      <trkpt lat="48.66534" lon="1.70636">
        <ele>145.60000610352</ele>
        <time>2014-08-02T10:03:29.000Z</time>
      </trkpt>
      <trkpt lat="48.66522" lon="1.70624">
        <ele>146.39999389648</ele>
        <time>2014-08-02T10:03:38.000Z</time>
      </trkpt>
      <trkpt lat="48.66511" lon="1.7062">
        <ele>146.19999694824</ele>
        <time>2014-08-02T10:03:45.000Z</time>
      </trkpt>
      <trkpt lat="48.66501" lon="1.70617">
        <ele>146.19999694824</ele>
        <time>2014-08-02T10:03:52.000Z</time>
      </trkpt>
      <trkpt lat="48.66491" lon="1.70611">
        <ele>146</ele>
        <time>2014-08-02T10:03:59.000Z</time>
      </trkpt>
      <trkpt lat="48.66486" lon="1.7061">
        <ele>146</ele>
        <time>2014-08-02T10:04:02.000Z</time>
      </trkpt>
      <trkpt lat="48.66477" lon="1.70604">
        <ele>145.80000305176</ele>
        <time>2014-08-02T10:04:09.000Z</time>
      </trkpt>
      <trkpt lat="48.66474" lon="1.70604">
        <ele>145.80000305176</ele>
        <time>2014-08-02T10:04:11.000Z</time>
      </trkpt>
      <trkpt lat="48.66459" lon="1.706">
        <ele>145.60000610352</ele>
        <time>2014-08-02T10:04:20.000Z</time>
      </trkpt>
      <trkpt lat="48.66449" lon="1.70593">
        <ele>145.60000610352</ele>
        <time>2014-08-02T10:04:28.000Z</time>
      </trkpt>
      <trkpt lat="48.66436" lon="1.70589">
        <ele>145.60000610352</ele>
        <time>2014-08-02T10:04:36.000Z</time>
      </trkpt>
      <trkpt lat="48.66425" lon="1.70583">
        <ele>145.19999694824</ele>
        <time>2014-08-02T10:04:44.000Z</time>
      </trkpt>
      <trkpt lat="48.66413" lon="1.70581">
        <ele>144.60000610352</ele>
        <time>2014-08-02T10:04:51.000Z</time>
      </trkpt>
      <trkpt lat="48.66403" lon="1.70577">
        <ele>144.19999694824</ele>
        <time>2014-08-02T10:04:57.000Z</time>
      </trkpt>
      <trkpt lat="48.6639" lon="1.70571">
        <ele>143.80000305176</ele>
        <time>2014-08-02T10:05:05.000Z</time>
      </trkpt>
      <trkpt lat="48.66379" lon="1.70566">
        <ele>143.60000610352</ele>
        <time>2014-08-02T10:05:12.000Z</time>
      </trkpt>
      <trkpt lat="48.66369" lon="1.70563">
        <ele>143.19999694824</ele>
        <time>2014-08-02T10:05:19.000Z</time>
      </trkpt>
      <trkpt lat="48.66363" lon="1.70563">
        <ele>143</ele>
        <time>2014-08-02T10:05:25.000Z</time>
      </trkpt>
      <trkpt lat="48.66358" lon="1.70561">
        <ele>142.80000305176</ele>
        <time>2014-08-02T10:05:29.000Z</time>
      </trkpt>
      <trkpt lat="48.66357" lon="1.70559">
        <ele>142.80000305176</ele>
        <time>2014-08-02T10:05:30.000Z</time>
      </trkpt>
      <trkpt lat="48.66348" lon="1.70553">
        <ele>142.80000305176</ele>
        <time>2014-08-02T10:05:37.000Z</time>
      </trkpt>
      <trkpt lat="48.66343" lon="1.70551">
        <ele>142.80000305176</ele>
        <time>2014-08-02T10:05:41.000Z</time>
      </trkpt>
      <trkpt lat="48.66339" lon="1.7055">
        <ele>142.80000305176</ele>
        <time>2014-08-02T10:05:44.000Z</time>
      </trkpt>
      <trkpt lat="48.66331" lon="1.70552">
        <ele>142.60000610352</ele>
        <time>2014-08-02T10:05:49.000Z</time>
      </trkpt>
      <trkpt lat="48.66324" lon="1.7055">
        <ele>142.39999389648</ele>
        <time>2014-08-02T10:05:55.000Z</time>
      </trkpt>
      <trkpt lat="48.66324" lon="1.7055">
        <ele>142.60000610352</ele>
        <time>2014-08-02T10:05:56.000Z</time>
      </trkpt>
      <trkpt lat="48.66317" lon="1.70545">
        <ele>142.60000610352</ele>
        <time>2014-08-02T10:06:15.000Z</time>
      </trkpt>
      <trkpt lat="48.66309" lon="1.70544">
        <ele>142.60000610352</ele>
        <time>2014-08-02T10:06:20.000Z</time>
      </trkpt>
      <trkpt lat="48.66306" lon="1.70542">
        <ele>142.60000610352</ele>
        <time>2014-08-02T10:06:23.000Z</time>
      </trkpt>
      <trkpt lat="48.66297" lon="1.70542">
        <ele>142.39999389648</ele>
        <time>2014-08-02T10:06:31.000Z</time>
      </trkpt>
      <trkpt lat="48.66286" lon="1.70535">
        <ele>142.60000610352</ele>
        <time>2014-08-02T10:06:38.000Z</time>
      </trkpt>
      <trkpt lat="48.66277" lon="1.70535">
        <ele>142.19999694824</ele>
        <time>2014-08-02T10:06:44.000Z</time>
      </trkpt>
      <trkpt lat="48.66268" lon="1.70526">
        <ele>142.60000610352</ele>
        <time>2014-08-02T10:06:51.000Z</time>
      </trkpt>
      <trkpt lat="48.66259" lon="1.70518">
        <ele>142.39999389648</ele>
        <time>2014-08-02T10:06:59.000Z</time>
      </trkpt>
      <trkpt lat="48.66249" lon="1.7051">
        <ele>142.39999389648</ele>
        <time>2014-08-02T10:07:07.000Z</time>
      </trkpt>
      <trkpt lat="48.66246" lon="1.70508">
        <ele>142.19999694824</ele>
        <time>2014-08-02T10:07:09.000Z</time>
      </trkpt>
      <trkpt lat="48.66231" lon="1.70508">
        <ele>141.39999389648</ele>
        <time>2014-08-02T10:07:17.000Z</time>
      </trkpt>
      <trkpt lat="48.66229" lon="1.70506">
        <ele>141.39999389648</ele>
        <time>2014-08-02T10:07:19.000Z</time>
      </trkpt>
      <trkpt lat="48.66223" lon="1.70506">
        <ele>141.19999694824</ele>
        <time>2014-08-02T10:07:24.000Z</time>
      </trkpt>
      <trkpt lat="48.6622" lon="1.70509">
        <ele>140.60000610352</ele>
        <time>2014-08-02T10:07:28.000Z</time>
      </trkpt>
      <trkpt lat="48.66223" lon="1.7052">
        <ele>140.19999694824</ele>
        <time>2014-08-02T10:07:34.000Z</time>
      </trkpt>
      <trkpt lat="48.66232" lon="1.70533">
        <ele>140</ele>
        <time>2014-08-02T10:07:38.000Z</time>
      </trkpt>
      <trkpt lat="48.66241" lon="1.70546">
        <ele>139.60000610352</ele>
        <time>2014-08-02T10:07:42.000Z</time>
      </trkpt>
      <trkpt lat="48.66245" lon="1.70548">
        <ele>139.80000305176</ele>
        <time>2014-08-02T10:07:43.000Z</time>
      </trkpt>
      <trkpt lat="48.66264" lon="1.7056">
        <ele>140.39999389648</ele>
        <time>2014-08-02T10:07:47.000Z</time>
      </trkpt>
      <trkpt lat="48.66277" lon="1.70574">
        <ele>140.19999694824</ele>
        <time>2014-08-02T10:07:51.000Z</time>
      </trkpt>
      <trkpt lat="48.66294" lon="1.70588">
        <ele>140.39999389648</ele>
        <time>2014-08-02T10:07:56.000Z</time>
      </trkpt>
      <trkpt lat="48.66314" lon="1.70606">
        <ele>140.60000610352</ele>
        <time>2014-08-02T10:08:02.000Z</time>
      </trkpt>
      <trkpt lat="48.66318" lon="1.70609">
        <ele>140.60000610352</ele>
        <time>2014-08-02T10:08:03.000Z</time>
      </trkpt>
      <trkpt lat="48.66331" lon="1.70618">
        <ele>141</ele>
        <time>2014-08-02T10:08:06.000Z</time>
      </trkpt>
      <trkpt lat="48.66345" lon="1.70624">
        <ele>141.19999694824</ele>
        <time>2014-08-02T10:08:09.000Z</time>
      </trkpt>
      <trkpt lat="48.66354" lon="1.70638">
        <ele>141.19999694824</ele>
        <time>2014-08-02T10:08:13.000Z</time>
      </trkpt>
      <trkpt lat="48.6637" lon="1.70662">
        <ele>140.80000305176</ele>
        <time>2014-08-02T10:08:20.000Z</time>
      </trkpt>
      <trkpt lat="48.66387" lon="1.70677">
        <ele>140.19999694824</ele>
        <time>2014-08-02T10:08:24.000Z</time>
      </trkpt>
      <trkpt lat="48.66395" lon="1.70685">
        <ele>139.80000305176</ele>
        <time>2014-08-02T10:08:27.000Z</time>
      </trkpt>
      <trkpt lat="48.66395" lon="1.70693">
        <ele>139.19999694824</ele>
        <time>2014-08-02T10:08:32.000Z</time>
      </trkpt>
      <trkpt lat="48.66384" lon="1.70702">
        <ele>137.60000610352</ele>
        <time>2014-08-02T10:08:39.000Z</time>
      </trkpt>
      <trkpt lat="48.66379" lon="1.70712">
        <ele>135.80000305176</ele>
        <time>2014-08-02T10:08:45.000Z</time>
      </trkpt>
      <trkpt lat="48.66376" lon="1.70716">
        <ele>135.19999694824</ele>
        <time>2014-08-02T10:08:50.000Z</time>
      </trkpt>
      <trkpt lat="48.66383" lon="1.70702">
        <ele>137.39999389648</ele>
        <time>2014-08-02T10:08:58.000Z</time>
      </trkpt>
      <trkpt lat="48.66389" lon="1.70691">
        <ele>139.19999694824</ele>
        <time>2014-08-02T10:09:03.000Z</time>
      </trkpt>
      <trkpt lat="48.66398" lon="1.70689">
        <ele>139.60000610352</ele>
        <time>2014-08-02T10:09:08.000Z</time>
      </trkpt>
      <trkpt lat="48.66399" lon="1.70689">
        <ele>139.80000305176</ele>
        <time>2014-08-02T10:09:09.000Z</time>
      </trkpt>
      <trkpt lat="48.66411" lon="1.70694">
        <ele>139.60000610352</ele>
        <time>2014-08-02T10:09:16.000Z</time>
      </trkpt>
      <trkpt lat="48.66426" lon="1.70708">
        <ele>139</ele>
        <time>2014-08-02T10:09:24.000Z</time>
      </trkpt>
      <trkpt lat="48.66434" lon="1.70719">
        <ele>138.39999389648</ele>
        <time>2014-08-02T10:09:30.000Z</time>
      </trkpt>
      <trkpt lat="48.66446" lon="1.70731">
        <ele>137.60000610352</ele>
        <time>2014-08-02T10:09:38.000Z</time>
      </trkpt>
      <trkpt lat="48.66447" lon="1.70732">
        <ele>137.60000610352</ele>
        <time>2014-08-02T10:09:39.000Z</time>
      </trkpt>
      <trkpt lat="48.66455" lon="1.70739">
        <ele>137.19999694824</ele>
        <time>2014-08-02T10:09:44.000Z</time>
      </trkpt>
      <trkpt lat="48.66464" lon="1.70748">
        <ele>137.19999694824</ele>
        <time>2014-08-02T10:09:51.000Z</time>
      </trkpt>
      <trkpt lat="48.66467" lon="1.7075">
        <ele>137.19999694824</ele>
        <time>2014-08-02T10:09:53.000Z</time>
      </trkpt>
      <trkpt lat="48.66475" lon="1.70756">
        <ele>137.19999694824</ele>
        <time>2014-08-02T10:09:58.000Z</time>
      </trkpt>
      <trkpt lat="48.66486" lon="1.70772">
        <ele>137.19999694824</ele>
        <time>2014-08-02T10:10:07.000Z</time>
      </trkpt>
      <trkpt lat="48.66495" lon="1.70784">
        <ele>137.19999694824</ele>
        <time>2014-08-02T10:10:14.000Z</time>
      </trkpt>
      <trkpt lat="48.66502" lon="1.70794">
        <ele>137.19999694824</ele>
        <time>2014-08-02T10:10:19.000Z</time>
      </trkpt>
      <trkpt lat="48.66512" lon="1.70811">
        <ele>137</ele>
        <time>2014-08-02T10:10:26.000Z</time>
      </trkpt>
      <trkpt lat="48.6652" lon="1.70826">
        <ele>137.19999694824</ele>
        <time>2014-08-02T10:10:32.000Z</time>
      </trkpt>
      <trkpt lat="48.66522" lon="1.70841">
        <ele>137.60000610352</ele>
        <time>2014-08-02T10:10:38.000Z</time>
      </trkpt>
      <trkpt lat="48.66526" lon="1.70859">
        <ele>138</ele>
        <time>2014-08-02T10:10:46.000Z</time>
      </trkpt>
      <trkpt lat="48.6653" lon="1.70876">
        <ele>138.39999389648</ele>
        <time>2014-08-02T10:10:53.000Z</time>
      </trkpt>
      <trkpt lat="48.66535" lon="1.70889">
        <ele>138.80000305176</ele>
        <time>2014-08-02T10:10:58.000Z</time>
      </trkpt>
      <trkpt lat="48.66534" lon="1.70894">
        <ele>139</ele>
        <time>2014-08-02T10:11:00.000Z</time>
      </trkpt>
      <trkpt lat="48.66538" lon="1.7091">
        <ele>139.19999694824</ele>
        <time>2014-08-02T10:11:08.000Z</time>
      </trkpt>
      <trkpt lat="48.6654" lon="1.70919">
        <ele>139.19999694824</ele>
        <time>2014-08-02T10:11:12.000Z</time>
      </trkpt>
      <trkpt lat="48.66543" lon="1.70934">
        <ele>139.39999389648</ele>
        <time>2014-08-02T10:11:19.000Z</time>
      </trkpt>
      <trkpt lat="48.66536" lon="1.70944">
        <ele>139.39999389648</ele>
        <time>2014-08-02T10:11:25.000Z</time>
      </trkpt>
      <trkpt lat="48.66533" lon="1.70943">
        <ele>139.39999389648</ele>
        <time>2014-08-02T10:11:27.000Z</time>
      </trkpt>
      <trkpt lat="48.6653" lon="1.70947">
        <ele>139.60000610352</ele>
        <time>2014-08-02T10:11:34.000Z</time>
      </trkpt>
      <trkpt lat="48.66543" lon="1.70949">
        <ele>139.60000610352</ele>
        <time>2014-08-02T10:12:17.000Z</time>
      </trkpt>
      <trkpt lat="48.66558" lon="1.70949">
        <ele>139.60000610352</ele>
        <time>2014-08-02T10:12:26.000Z</time>
      </trkpt>
      <trkpt lat="48.66564" lon="1.70944">
        <ele>139.60000610352</ele>
        <time>2014-08-02T10:12:32.000Z</time>
      </trkpt>
      <trkpt lat="48.66565" lon="1.70943">
        <ele>139.60000610352</ele>
        <time>2014-08-02T10:12:35.000Z</time>
      </trkpt>
      <trkpt lat="48.66567" lon="1.7095">
        <ele>139.60000610352</ele>
        <time>2014-08-02T10:13:16.000Z</time>
      </trkpt>
      <trkpt lat="48.66569" lon="1.70956">
        <ele>139.60000610352</ele>
        <time>2014-08-02T10:13:20.000Z</time>
      </trkpt>
      <trkpt lat="48.6657" lon="1.70956">
        <ele>139.60000610352</ele>
        <time>2014-08-02T10:13:24.000Z</time>
      </trkpt>
      <trkpt lat="48.66573" lon="1.70964">
        <ele>139.80000305176</ele>
        <time>2014-08-02T10:20:37.000Z</time>
      </trkpt>
      <trkpt lat="48.66573" lon="1.70963">
        <ele>139.80000305176</ele>
        <time>2014-08-02T10:20:39.000Z</time>
      </trkpt>
      <trkpt lat="48.66568" lon="1.70961">
        <ele>139.60000610352</ele>
        <time>2014-08-02T10:21:05.000Z</time>
      </trkpt>
      <trkpt lat="48.66567" lon="1.70963">
        <ele>139.80000305176</ele>
        <time>2014-08-02T10:21:06.000Z</time>
      </trkpt>
      <trkpt lat="48.66565" lon="1.70964">
        <ele>139.80000305176</ele>
        <time>2014-08-02T10:21:09.000Z</time>
      </trkpt>
      <trkpt lat="48.66559" lon="1.70961">
        <ele>139.60000610352</ele>
        <time>2014-08-02T10:21:29.000Z</time>
      </trkpt>
      <trkpt lat="48.66555" lon="1.7096">
        <ele>139.60000610352</ele>
        <time>2014-08-02T10:21:31.000Z</time>
      </trkpt>
      <trkpt lat="48.66547" lon="1.7096">
        <ele>139.60000610352</ele>
        <time>2014-08-02T10:21:39.000Z</time>
      </trkpt>
      <trkpt lat="48.66547" lon="1.7096">
        <ele>139.60000610352</ele>
        <time>2014-08-02T10:21:40.000Z</time>
      </trkpt>
      <trkpt lat="48.66552" lon="1.70957">
        <ele>139.60000610352</ele>
        <time>2014-08-02T10:22:31.000Z</time>
      </trkpt>
      <trkpt lat="48.6656" lon="1.70951">
        <ele>139.60000610352</ele>
        <time>2014-08-02T10:22:36.000Z</time>
      </trkpt>
      <trkpt lat="48.66571" lon="1.7095">
        <ele>139.60000610352</ele>
        <time>2014-08-02T10:22:43.000Z</time>
      </trkpt>
      <trkpt lat="48.66583" lon="1.70945">
        <ele>139.80000305176</ele>
        <time>2014-08-02T10:22:50.000Z</time>
      </trkpt>
      <trkpt lat="48.66592" lon="1.70947">
        <ele>139.80000305176</ele>
        <time>2014-08-02T10:22:56.000Z</time>
      </trkpt>
      <trkpt lat="48.66603" lon="1.70951">
        <ele>140</ele>
        <time>2014-08-02T10:23:04.000Z</time>
      </trkpt>
      <trkpt lat="48.66615" lon="1.70951">
        <ele>140.39999389648</ele>
        <time>2014-08-02T10:23:11.000Z</time>
      </trkpt>
      <trkpt lat="48.66625" lon="1.70952">
        <ele>140.80000305176</ele>
        <time>2014-08-02T10:23:18.000Z</time>
      </trkpt>
      <trkpt lat="48.66634" lon="1.70952">
        <ele>141.19999694824</ele>
        <time>2014-08-02T10:23:24.000Z</time>
      </trkpt>
      <trkpt lat="48.66645" lon="1.70953">
        <ele>141.60000610352</ele>
        <time>2014-08-02T10:23:31.000Z</time>
      </trkpt>
      <trkpt lat="48.66656" lon="1.70952">
        <ele>142</ele>
        <time>2014-08-02T10:23:38.000Z</time>
      </trkpt>
      <trkpt lat="48.66659" lon="1.7095">
        <ele>142.19999694824</ele>
        <time>2014-08-02T10:23:40.000Z</time>
      </trkpt>
      <trkpt lat="48.6667" lon="1.70949">
        <ele>142.60000610352</ele>
        <time>2014-08-02T10:23:47.000Z</time>
      </trkpt>
      <trkpt lat="48.6668" lon="1.70951">
        <ele>143.19999694824</ele>
        <time>2014-08-02T10:23:53.000Z</time>
      </trkpt>
      <trkpt lat="48.66695" lon="1.70951">
        <ele>143.60000610352</ele>
        <time>2014-08-02T10:24:02.000Z</time>
      </trkpt>
      <trkpt lat="48.6671" lon="1.70952">
        <ele>144</ele>
        <time>2014-08-02T10:24:11.000Z</time>
      </trkpt>
      <trkpt lat="48.66712" lon="1.70954">
        <ele>144</ele>
        <time>2014-08-02T10:24:17.000Z</time>
      </trkpt>
      <trkpt lat="48.66711" lon="1.70955">
        <ele>144</ele>
        <time>2014-08-02T10:24:18.000Z</time>
      </trkpt>
      <trkpt lat="48.66704" lon="1.70958">
        <ele>143.80000305176</ele>
        <time>2014-08-02T10:24:25.000Z</time>
      </trkpt>
      <trkpt lat="48.66702" lon="1.70958">
        <ele>143.80000305176</ele>
        <time>2014-08-02T10:24:26.000Z</time>
      </trkpt>
      <trkpt lat="48.66689" lon="1.7096">
        <ele>143.39999389648</ele>
        <time>2014-08-02T10:24:35.000Z</time>
      </trkpt>
      <trkpt lat="48.66677" lon="1.70962">
        <ele>142.80000305176</ele>
        <time>2014-08-02T10:24:42.000Z</time>
      </trkpt>
      <trkpt lat="48.66666" lon="1.70964">
        <ele>142.39999389648</ele>
        <time>2014-08-02T10:24:49.000Z</time>
      </trkpt>
      <trkpt lat="48.66662" lon="1.70963">
        <ele>142.19999694824</ele>
        <time>2014-08-02T10:24:52.000Z</time>
      </trkpt>
      <trkpt lat="48.66661" lon="1.70953">
        <ele>142.19999694824</ele>
        <time>2014-08-02T10:24:58.000Z</time>
      </trkpt>
      <trkpt lat="48.66661" lon="1.70942">
        <ele>142.39999389648</ele>
        <time>2014-08-02T10:25:03.000Z</time>
      </trkpt>
      <trkpt lat="48.66661" lon="1.7094">
        <ele>142.39999389648</ele>
        <time>2014-08-02T10:25:04.000Z</time>
      </trkpt>
      <trkpt lat="48.66659" lon="1.70932">
        <ele>142.39999389648</ele>
        <time>2014-08-02T10:25:08.000Z</time>
      </trkpt>
      <trkpt lat="48.66652" lon="1.70922">
        <ele>142.19999694824</ele>
        <time>2014-08-02T10:25:15.000Z</time>
      </trkpt>
      <trkpt lat="48.66648" lon="1.70923">
        <ele>142</ele>
        <time>2014-08-02T10:25:17.000Z</time>
      </trkpt>
      <trkpt lat="48.66647" lon="1.70922">
        <ele>142</ele>
        <time>2014-08-02T10:25:19.000Z</time>
      </trkpt>
      <trkpt lat="48.66644" lon="1.7092">
        <ele>141.80000305176</ele>
        <time>2014-08-02T10:25:23.000Z</time>
      </trkpt>
      <trkpt lat="48.66648" lon="1.70924">
        <ele>142</ele>
        <time>2014-08-02T10:25:29.000Z</time>
      </trkpt>
      <trkpt lat="48.66654" lon="1.70931">
        <ele>142.19999694824</ele>
        <time>2014-08-02T10:25:35.000Z</time>
      </trkpt>
      <trkpt lat="48.66657" lon="1.70937">
        <ele>142.19999694824</ele>
        <time>2014-08-02T10:25:38.000Z</time>
      </trkpt>
      <trkpt lat="48.66659" lon="1.70941">
        <ele>142.19999694824</ele>
        <time>2014-08-02T10:25:40.000Z</time>
      </trkpt>
      <trkpt lat="48.6666" lon="1.70954">
        <ele>142.19999694824</ele>
        <time>2014-08-02T10:25:47.000Z</time>
      </trkpt>
      <trkpt lat="48.66664" lon="1.70955">
        <ele>142.39999389648</ele>
        <time>2014-08-02T10:25:50.000Z</time>
      </trkpt>
      <trkpt lat="48.66675" lon="1.70956">
        <ele>142.80000305176</ele>
        <time>2014-08-02T10:25:56.000Z</time>
      </trkpt>
      <trkpt lat="48.66694" lon="1.70958">
        <ele>143.60000610352</ele>
        <time>2014-08-02T10:26:03.000Z</time>
      </trkpt>
      <trkpt lat="48.66718" lon="1.70959">
        <ele>144</ele>
        <time>2014-08-02T10:26:10.000Z</time>
      </trkpt>
      <trkpt lat="48.6673" lon="1.70959">
        <ele>144.39999389648</ele>
        <time>2014-08-02T10:26:14.000Z</time>
      </trkpt>
      <trkpt lat="48.66746" lon="1.70962">
        <ele>144.80000305176</ele>
        <time>2014-08-02T10:26:18.000Z</time>
      </trkpt>
      <trkpt lat="48.66779" lon="1.70966">
        <ele>145.60000610352</ele>
        <time>2014-08-02T10:26:26.000Z</time>
      </trkpt>
      <trkpt lat="48.66792" lon="1.70967">
        <ele>146.39999389648</ele>
        <time>2014-08-02T10:26:29.000Z</time>
      </trkpt>
      <trkpt lat="48.66807" lon="1.70966">
        <ele>147.19999694824</ele>
        <time>2014-08-02T10:26:35.000Z</time>
      </trkpt>
      <trkpt lat="48.66806" lon="1.70956">
        <ele>147.19999694824</ele>
        <time>2014-08-02T10:26:42.000Z</time>
      </trkpt>
      <trkpt lat="48.66804" lon="1.70955">
        <ele>147</ele>
        <time>2014-08-02T10:26:43.000Z</time>
      </trkpt>
      <trkpt lat="48.66795" lon="1.70943">
        <ele>146.60000610352</ele>
        <time>2014-08-02T10:26:51.000Z</time>
      </trkpt>
      <trkpt lat="48.66787" lon="1.7093">
        <ele>146</ele>
        <time>2014-08-02T10:26:58.000Z</time>
      </trkpt>
      <trkpt lat="48.66778" lon="1.70919">
        <ele>145.39999389648</ele>
        <time>2014-08-02T10:27:05.000Z</time>
      </trkpt>
      <trkpt lat="48.66768" lon="1.70906">
        <ele>145</ele>
        <time>2014-08-02T10:27:12.000Z</time>
      </trkpt>
      <trkpt lat="48.66762" lon="1.70897">
        <ele>145</ele>
        <time>2014-08-02T10:27:17.000Z</time>
      </trkpt>
      <trkpt lat="48.66753" lon="1.7089">
        <ele>144.80000305176</ele>
        <time>2014-08-02T10:27:23.000Z</time>
      </trkpt>
      <trkpt lat="48.66742" lon="1.70878">
        <ele>144.60000610352</ele>
        <time>2014-08-02T10:27:31.000Z</time>
      </trkpt>
      <trkpt lat="48.66736" lon="1.7087">
        <ele>144.60000610352</ele>
        <time>2014-08-02T10:27:37.000Z</time>
      </trkpt>
      <trkpt lat="48.66733" lon="1.70865">
        <ele>144.60000610352</ele>
        <time>2014-08-02T10:27:40.000Z</time>
      </trkpt>
      <trkpt lat="48.66723" lon="1.7085">
        <ele>144.60000610352</ele>
        <time>2014-08-02T10:27:49.000Z</time>
      </trkpt>
      <trkpt lat="48.66714" lon="1.70838">
        <ele>144.60000610352</ele>
        <time>2014-08-02T10:27:56.000Z</time>
      </trkpt>
      <trkpt lat="48.66706" lon="1.70828">
        <ele>144.60000610352</ele>
        <time>2014-08-02T10:28:03.000Z</time>
      </trkpt>
      <trkpt lat="48.667" lon="1.70815">
        <ele>144.60000610352</ele>
        <time>2014-08-02T10:28:10.000Z</time>
      </trkpt>
      <trkpt lat="48.66694" lon="1.70802">
        <ele>144.80000305176</ele>
        <time>2014-08-02T10:28:17.000Z</time>
      </trkpt>
      <trkpt lat="48.66684" lon="1.70786">
        <ele>144.80000305176</ele>
        <time>2014-08-02T10:28:25.000Z</time>
      </trkpt>
      <trkpt lat="48.66677" lon="1.70771">
        <ele>144.80000305176</ele>
        <time>2014-08-02T10:28:33.000Z</time>
      </trkpt>
      <trkpt lat="48.6667" lon="1.70754">
        <ele>144.80000305176</ele>
        <time>2014-08-02T10:28:41.000Z</time>
      </trkpt>
      <trkpt lat="48.66662" lon="1.7074">
        <ele>144.80000305176</ele>
        <time>2014-08-02T10:28:49.000Z</time>
      </trkpt>
      <trkpt lat="48.66655" lon="1.70726">
        <ele>144.80000305176</ele>
        <time>2014-08-02T10:28:57.000Z</time>
      </trkpt>
      <trkpt lat="48.66647" lon="1.70713">
        <ele>144.60000610352</ele>
        <time>2014-08-02T10:29:05.000Z</time>
      </trkpt>
      <trkpt lat="48.66637" lon="1.70703">
        <ele>144.39999389648</ele>
        <time>2014-08-02T10:29:13.000Z</time>
      </trkpt>
      <trkpt lat="48.6663" lon="1.70695">
        <ele>144.19999694824</ele>
        <time>2014-08-02T10:29:19.000Z</time>
      </trkpt>
      <trkpt lat="48.66619" lon="1.70682">
        <ele>144.19999694824</ele>
        <time>2014-08-02T10:29:28.000Z</time>
      </trkpt>
      <trkpt lat="48.66612" lon="1.70675">
        <ele>144</ele>
        <time>2014-08-02T10:29:34.000Z</time>
      </trkpt>
      <trkpt lat="48.66608" lon="1.70668">
        <ele>144</ele>
        <time>2014-08-02T10:29:39.000Z</time>
      </trkpt>
      <trkpt lat="48.66601" lon="1.70654">
        <ele>144</ele>
        <time>2014-08-02T10:29:46.000Z</time>
      </trkpt>
      <trkpt lat="48.666" lon="1.70647">
        <ele>144.39999389648</ele>
        <time>2014-08-02T10:29:51.000Z</time>
      </trkpt>
      <trkpt lat="48.66605" lon="1.70633">
        <ele>145</ele>
        <time>2014-08-02T10:29:59.000Z</time>
      </trkpt>
      <trkpt lat="48.66603" lon="1.7062">
        <ele>145.60000610352</ele>
        <time>2014-08-02T10:30:08.000Z</time>
      </trkpt>
      <trkpt lat="48.66601" lon="1.70621">
        <ele>145.60000610352</ele>
        <time>2014-08-02T10:30:10.000Z</time>
      </trkpt>
      <trkpt lat="48.6659" lon="1.70624">
        <ele>145.60000610352</ele>
        <time>2014-08-02T10:30:19.000Z</time>
      </trkpt>
      <trkpt lat="48.66588" lon="1.70625">
        <ele>145.60000610352</ele>
        <time>2014-08-02T10:30:20.000Z</time>
      </trkpt>
      <trkpt lat="48.6658" lon="1.70627">
        <ele>145.60000610352</ele>
        <time>2014-08-02T10:30:27.000Z</time>
      </trkpt>
      <trkpt lat="48.66574" lon="1.70629">
        <ele>145.60000610352</ele>
        <time>2014-08-02T10:30:32.000Z</time>
      </trkpt>
      <trkpt lat="48.6657" lon="1.7063">
        <ele>145.60000610352</ele>
        <time>2014-08-02T10:30:35.000Z</time>
      </trkpt>
      <trkpt lat="48.66567" lon="1.70633">
        <ele>145.39999389648</ele>
        <time>2014-08-02T10:30:39.000Z</time>
      </trkpt>
      <trkpt lat="48.66562" lon="1.70634">
        <ele>145.39999389648</ele>
        <time>2014-08-02T10:30:42.000Z</time>
      </trkpt>
      <trkpt lat="48.66558" lon="1.70627">
        <ele>145.80000305176</ele>
        <time>2014-08-02T10:30:47.000Z</time>
      </trkpt>
      <trkpt lat="48.66556" lon="1.70615">
        <ele>146.39999389648</ele>
        <time>2014-08-02T10:30:54.000Z</time>
      </trkpt>
      <trkpt lat="48.66553" lon="1.70603">
        <ele>147</ele>
        <time>2014-08-02T10:31:01.000Z</time>
      </trkpt>
      <trkpt lat="48.66552" lon="1.70598">
        <ele>147.19999694824</ele>
        <time>2014-08-02T10:31:03.000Z</time>
      </trkpt>
      <trkpt lat="48.6655" lon="1.70591">
        <ele>147.60000610352</ele>
        <time>2014-08-02T10:31:07.000Z</time>
      </trkpt>
      <trkpt lat="48.66548" lon="1.70581">
        <ele>148.19999694824</ele>
        <time>2014-08-02T10:31:12.000Z</time>
      </trkpt>
      <trkpt lat="48.66546" lon="1.70577">
        <ele>148.39999389648</ele>
        <time>2014-08-02T10:31:16.000Z</time>
      </trkpt>
      <trkpt lat="48.66545" lon="1.70565">
        <ele>149</ele>
        <time>2014-08-02T10:31:22.000Z</time>
      </trkpt>
      <trkpt lat="48.66544" lon="1.70559">
        <ele>149.39999389648</ele>
        <time>2014-08-02T10:31:25.000Z</time>
      </trkpt>
      <trkpt lat="48.66543" lon="1.70548">
        <ele>150</ele>
        <time>2014-08-02T10:31:29.000Z</time>
      </trkpt>
      <trkpt lat="48.66539" lon="1.70526">
        <ele>151.39999389648</ele>
        <time>2014-08-02T10:31:35.000Z</time>
      </trkpt>
      <trkpt lat="48.66535" lon="1.70508">
        <ele>152.60000610352</ele>
        <time>2014-08-02T10:31:40.000Z</time>
      </trkpt>
      <trkpt lat="48.6653" lon="1.70483">
        <ele>154</ele>
        <time>2014-08-02T10:31:46.000Z</time>
      </trkpt>
      <trkpt lat="48.66528" lon="1.70475">
        <ele>154.39999389648</ele>
        <time>2014-08-02T10:31:48.000Z</time>
      </trkpt>
      <trkpt lat="48.66527" lon="1.70451">
        <ele>155.60000610352</ele>
        <time>2014-08-02T10:31:55.000Z</time>
      </trkpt>
      <trkpt lat="48.66525" lon="1.70437">
        <ele>156.39999389648</ele>
        <time>2014-08-02T10:32:02.000Z</time>
      </trkpt>
      <trkpt lat="48.6652" lon="1.70423">
        <ele>157</ele>
        <time>2014-08-02T10:32:09.000Z</time>
      </trkpt>
      <trkpt lat="48.66517" lon="1.70409">
        <ele>157.60000610352</ele>
        <time>2014-08-02T10:32:16.000Z</time>
      </trkpt>
      <trkpt lat="48.66517" lon="1.70407">
        <ele>157.60000610352</ele>
        <time>2014-08-02T10:32:17.000Z</time>
      </trkpt>
      <trkpt lat="48.66517" lon="1.70389">
        <ele>158.39999389648</ele>
        <time>2014-08-02T10:32:24.000Z</time>
      </trkpt>
      <trkpt lat="48.66515" lon="1.70378">
        <ele>158.60000610352</ele>
        <time>2014-08-02T10:32:30.000Z</time>
      </trkpt>
      <trkpt lat="48.66512" lon="1.70375">
        <ele>158.60000610352</ele>
        <time>2014-08-02T10:32:32.000Z</time>
      </trkpt>
      <trkpt lat="48.66509" lon="1.70363">
        <ele>158.80000305176</ele>
        <time>2014-08-02T10:32:38.000Z</time>
      </trkpt>
      <trkpt lat="48.6651" lon="1.70357">
        <ele>159.19999694824</ele>
        <time>2014-08-02T10:32:40.000Z</time>
      </trkpt>
      <trkpt lat="48.6651" lon="1.70342">
        <ele>159.60000610352</ele>
        <time>2014-08-02T10:32:46.000Z</time>
      </trkpt>
      <trkpt lat="48.66508" lon="1.70334">
        <ele>159.80000305176</ele>
        <time>2014-08-02T10:32:50.000Z</time>
      </trkpt>
      <trkpt lat="48.66508" lon="1.70315">
        <ele>160.60000610352</ele>
        <time>2014-08-02T10:32:58.000Z</time>
      </trkpt>
      <trkpt lat="48.66506" lon="1.70305">
        <ele>161.39999389648</ele>
        <time>2014-08-02T10:33:04.000Z</time>
      </trkpt>
      <trkpt lat="48.66506" lon="1.7029">
        <ele>162.60000610352</ele>
        <time>2014-08-02T10:33:10.000Z</time>
      </trkpt>
      <trkpt lat="48.66504" lon="1.70273">
        <ele>163.80000305176</ele>
        <time>2014-08-02T10:33:16.000Z</time>
      </trkpt>
      <trkpt lat="48.66504" lon="1.7027">
        <ele>164</ele>
        <time>2014-08-02T10:33:17.000Z</time>
      </trkpt>
      <trkpt lat="48.66501" lon="1.70247">
        <ele>165.80000305176</ele>
        <time>2014-08-02T10:33:23.000Z</time>
      </trkpt>
      <trkpt lat="48.66496" lon="1.70226">
        <ele>167.39999389648</ele>
        <time>2014-08-02T10:33:27.000Z</time>
      </trkpt>
      <trkpt lat="48.66491" lon="1.70199">
        <ele>169.80000305176</ele>
        <time>2014-08-02T10:33:32.000Z</time>
      </trkpt>
      <trkpt lat="48.6649" lon="1.70185">
        <ele>170.60000610352</ele>
        <time>2014-08-02T10:33:38.000Z</time>
      </trkpt>
      <trkpt lat="48.66488" lon="1.70174">
        <ele>171.39999389648</ele>
        <time>2014-08-02T10:33:43.000Z</time>
      </trkpt>
      <trkpt lat="48.66486" lon="1.70167">
        <ele>171.80000305176</ele>
        <time>2014-08-02T10:33:47.000Z</time>
      </trkpt>
      <trkpt lat="48.66486" lon="1.70157">
        <ele>172.60000610352</ele>
        <time>2014-08-02T10:33:52.000Z</time>
      </trkpt>
      <trkpt lat="48.66486" lon="1.70144">
        <ele>173.19999694824</ele>
        <time>2014-08-02T10:33:58.000Z</time>
      </trkpt>
      <trkpt lat="48.66486" lon="1.70126">
        <ele>174.19999694824</ele>
        <time>2014-08-02T10:34:04.000Z</time>
      </trkpt>
      <trkpt lat="48.66486" lon="1.70121">
        <ele>174.39999389648</ele>
        <time>2014-08-02T10:34:06.000Z</time>
      </trkpt>
      <trkpt lat="48.66483" lon="1.701">
        <ele>175</ele>
        <time>2014-08-02T10:34:15.000Z</time>
      </trkpt>
      <trkpt lat="48.66482" lon="1.70096">
        <ele>175.19999694824</ele>
        <time>2014-08-02T10:34:17.000Z</time>
      </trkpt>
      <trkpt lat="48.6648" lon="1.70087">
        <ele>175.39999389648</ele>
        <time>2014-08-02T10:34:21.000Z</time>
      </trkpt>
      <trkpt lat="48.66478" lon="1.70072">
        <ele>176</ele>
        <time>2014-08-02T10:34:27.000Z</time>
      </trkpt>
      <trkpt lat="48.66477" lon="1.70057">
        <ele>175.80000305176</ele>
        <time>2014-08-02T10:34:34.000Z</time>
      </trkpt>
      <trkpt lat="48.66474" lon="1.7004">
        <ele>175.60000610352</ele>
        <time>2014-08-02T10:34:41.000Z</time>
      </trkpt>
      <trkpt lat="48.66471" lon="1.70023">
        <ele>175.19999694824</ele>
        <time>2014-08-02T10:34:48.000Z</time>
      </trkpt>
      <trkpt lat="48.6647" lon="1.70019">
        <ele>175.19999694824</ele>
        <time>2014-08-02T10:34:50.000Z</time>
      </trkpt>
      <trkpt lat="48.66467" lon="1.69998">
        <ele>175.39999389648</ele>
        <time>2014-08-02T10:34:58.000Z</time>
      </trkpt>
      <trkpt lat="48.66467" lon="1.69992">
        <ele>175.39999389648</ele>
        <time>2014-08-02T10:35:01.000Z</time>
      </trkpt>
      <trkpt lat="48.66464" lon="1.69966">
        <ele>174.80000305176</ele>
        <time>2014-08-02T10:35:08.000Z</time>
      </trkpt>
      <trkpt lat="48.66458" lon="1.69952">
        <ele>174.19999694824</ele>
        <time>2014-08-02T10:35:13.000Z</time>
      </trkpt>
      <trkpt lat="48.66448" lon="1.69952">
        <ele>173.80000305176</ele>
        <time>2014-08-02T10:35:19.000Z</time>
      </trkpt>
      <trkpt lat="48.66443" lon="1.69952">
        <ele>173.39999389648</ele>
        <time>2014-08-02T10:35:25.000Z</time>
      </trkpt>
      <trkpt lat="48.66442" lon="1.69952">
        <ele>173.39999389648</ele>
        <time>2014-08-02T10:35:26.000Z</time>
      </trkpt>
      <trkpt lat="48.66437" lon="1.69956">
        <ele>173.39999389648</ele>
        <time>2014-08-02T10:35:31.000Z</time>
      </trkpt>
      <trkpt lat="48.66424" lon="1.69959">
        <ele>172.80000305176</ele>
        <time>2014-08-02T10:35:37.000Z</time>
      </trkpt>
      <trkpt lat="48.66416" lon="1.69961">
        <ele>172.60000610352</ele>
        <time>2014-08-02T10:35:43.000Z</time>
      </trkpt>
      <trkpt lat="48.66412" lon="1.6996">
        <ele>172.60000610352</ele>
        <time>2014-08-02T10:35:46.000Z</time>
      </trkpt>
      <trkpt lat="48.66404" lon="1.69962">
        <ele>172.39999389648</ele>
        <time>2014-08-02T10:35:52.000Z</time>
      </trkpt>
      <trkpt lat="48.66399" lon="1.6996">
        <ele>172.19999694824</ele>
        <time>2014-08-02T10:35:56.000Z</time>
      </trkpt>
      <trkpt lat="48.66388" lon="1.69962">
        <ele>172.19999694824</ele>
        <time>2014-08-02T10:36:04.000Z</time>
      </trkpt>
      <trkpt lat="48.66375" lon="1.6997">
        <ele>172.39999389648</ele>
        <time>2014-08-02T10:36:12.000Z</time>
      </trkpt>
      <trkpt lat="48.66372" lon="1.6997">
        <ele>172.39999389648</ele>
        <time>2014-08-02T10:36:15.000Z</time>
      </trkpt>
      <trkpt lat="48.66363" lon="1.69974">
        <ele>172.60000610352</ele>
        <time>2014-08-02T10:36:22.000Z</time>
      </trkpt>
      <trkpt lat="48.66355" lon="1.69977">
        <ele>172.60000610352</ele>
        <time>2014-08-02T10:36:28.000Z</time>
      </trkpt>
      <trkpt lat="48.6635" lon="1.69978">
        <ele>172.39999389648</ele>
        <time>2014-08-02T10:36:31.000Z</time>
      </trkpt>
      <trkpt lat="48.66336" lon="1.69983">
        <ele>172.60000610352</ele>
        <time>2014-08-02T10:36:39.000Z</time>
      </trkpt>
      <trkpt lat="48.66327" lon="1.69989">
        <ele>172.80000305176</ele>
        <time>2014-08-02T10:36:46.000Z</time>
      </trkpt>
      <trkpt lat="48.66317" lon="1.69996">
        <ele>172.60000610352</ele>
        <time>2014-08-02T10:36:54.000Z</time>
      </trkpt>
      <trkpt lat="48.66309" lon="1.70011">
        <ele>172.80000305176</ele>
        <time>2014-08-02T10:37:01.000Z</time>
      </trkpt>
      <trkpt lat="48.663" lon="1.70028">
        <ele>172.80000305176</ele>
        <time>2014-08-02T10:37:08.000Z</time>
      </trkpt>
      <trkpt lat="48.66291" lon="1.70038">
        <ele>172.60000610352</ele>
        <time>2014-08-02T10:37:15.000Z</time>
      </trkpt>
      <trkpt lat="48.66282" lon="1.70048">
        <ele>172.39999389648</ele>
        <time>2014-08-02T10:37:23.000Z</time>
      </trkpt>
      <trkpt lat="48.66273" lon="1.70067">
        <ele>172</ele>
        <time>2014-08-02T10:37:29.000Z</time>
      </trkpt>
      <trkpt lat="48.66268" lon="1.70082">
        <ele>171.60000610352</ele>
        <time>2014-08-02T10:37:37.000Z</time>
      </trkpt>
      <trkpt lat="48.66261" lon="1.70093">
        <ele>170.60000610352</ele>
        <time>2014-08-02T10:37:43.000Z</time>
      </trkpt>
      <trkpt lat="48.66258" lon="1.70101">
        <ele>170.19999694824</ele>
        <time>2014-08-02T10:37:48.000Z</time>
      </trkpt>
      <trkpt lat="48.66249" lon="1.70117">
        <ele>169</ele>
        <time>2014-08-02T10:37:55.000Z</time>
      </trkpt>
      <trkpt lat="48.66249" lon="1.7012">
        <ele>168.80000305176</ele>
        <time>2014-08-02T10:37:57.000Z</time>
      </trkpt>
      <trkpt lat="48.66247" lon="1.70125">
        <ele>168.60000610352</ele>
        <time>2014-08-02T10:38:00.000Z</time>
      </trkpt>
      <trkpt lat="48.66239" lon="1.70138">
        <ele>167.39999389648</ele>
        <time>2014-08-02T10:38:08.000Z</time>
      </trkpt>
      <trkpt lat="48.66231" lon="1.70151">
        <ele>166</ele>
        <time>2014-08-02T10:38:15.000Z</time>
      </trkpt>
      <trkpt lat="48.66225" lon="1.70168">
        <ele>164.60000610352</ele>
        <time>2014-08-02T10:38:21.000Z</time>
      </trkpt>
      <trkpt lat="48.66222" lon="1.70178">
        <ele>163.80000305176</ele>
        <time>2014-08-02T10:38:24.000Z</time>
      </trkpt>
      <trkpt lat="48.66223" lon="1.70192">
        <ele>163.60000610352</ele>
        <time>2014-08-02T10:38:31.000Z</time>
      </trkpt>
      <trkpt lat="48.66225" lon="1.70212">
        <ele>163.80000305176</ele>
        <time>2014-08-02T10:38:38.000Z</time>
      </trkpt>
      <trkpt lat="48.66228" lon="1.70227">
        <ele>164</ele>
        <time>2014-08-02T10:38:44.000Z</time>
      </trkpt>
      <trkpt lat="48.6623" lon="1.70239">
        <ele>164</ele>
        <time>2014-08-02T10:38:49.000Z</time>
      </trkpt>
      <trkpt lat="48.6623" lon="1.70241">
        <ele>163.80000305176</ele>
        <time>2014-08-02T10:38:50.000Z</time>
      </trkpt>
      <trkpt lat="48.6623" lon="1.70246">
        <ele>163.39999389648</ele>
        <time>2014-08-02T10:38:53.000Z</time>
      </trkpt>
      <trkpt lat="48.66234" lon="1.70259">
        <ele>162.60000610352</ele>
        <time>2014-08-02T10:38:58.000Z</time>
      </trkpt>
      <trkpt lat="48.66235" lon="1.70275">
        <ele>161.39999389648</ele>
        <time>2014-08-02T10:39:04.000Z</time>
      </trkpt>
      <trkpt lat="48.66234" lon="1.70291">
        <ele>160.39999389648</ele>
        <time>2014-08-02T10:39:10.000Z</time>
      </trkpt>
      <trkpt lat="48.66235" lon="1.70306">
        <ele>159.80000305176</ele>
        <time>2014-08-02T10:39:16.000Z</time>
      </trkpt>
      <trkpt lat="48.66235" lon="1.70316">
        <ele>159.39999389648</ele>
        <time>2014-08-02T10:39:20.000Z</time>
      </trkpt>
      <trkpt lat="48.66242" lon="1.70337">
        <ele>158</ele>
        <time>2014-08-02T10:39:28.000Z</time>
      </trkpt>
      <trkpt lat="48.66246" lon="1.70351">
        <ele>156.80000305176</ele>
        <time>2014-08-02T10:39:35.000Z</time>
      </trkpt>
      <trkpt lat="48.66247" lon="1.7036">
        <ele>156.19999694824</ele>
        <time>2014-08-02T10:39:38.000Z</time>
      </trkpt>
      <trkpt lat="48.66246" lon="1.70375">
        <ele>154.60000610352</ele>
        <time>2014-08-02T10:39:43.000Z</time>
      </trkpt>
      <trkpt lat="48.66246" lon="1.7038">
        <ele>154.19999694824</ele>
        <time>2014-08-02T10:39:45.000Z</time>
      </trkpt>
      <trkpt lat="48.66253" lon="1.7041">
        <ele>151.60000610352</ele>
        <time>2014-08-02T10:39:53.000Z</time>
      </trkpt>
      <trkpt lat="48.66255" lon="1.7042">
        <ele>150.80000305176</ele>
        <time>2014-08-02T10:39:56.000Z</time>
      </trkpt>
      <trkpt lat="48.66255" lon="1.7043">
        <ele>149.80000305176</ele>
        <time>2014-08-02T10:40:00.000Z</time>
      </trkpt>
      <trkpt lat="48.66256" lon="1.70435">
        <ele>149.39999389648</ele>
        <time>2014-08-02T10:40:02.000Z</time>
      </trkpt>
      <trkpt lat="48.66252" lon="1.70448">
        <ele>148</ele>
        <time>2014-08-02T10:40:07.000Z</time>
      </trkpt>
      <trkpt lat="48.66251" lon="1.70448">
        <ele>147.80000305176</ele>
        <time>2014-08-02T10:40:08.000Z</time>
      </trkpt>
      <trkpt lat="48.66249" lon="1.70449">
        <ele>147.60000610352</ele>
        <time>2014-08-02T10:40:11.000Z</time>
      </trkpt>
      <trkpt lat="48.66246" lon="1.70452">
        <ele>147.19999694824</ele>
        <time>2014-08-02T10:40:14.000Z</time>
      </trkpt>
      <trkpt lat="48.66244" lon="1.70454">
        <ele>147</ele>
        <time>2014-08-02T10:40:19.000Z</time>
      </trkpt>
      <trkpt lat="48.66243" lon="1.70458">
        <ele>146.39999389648</ele>
        <time>2014-08-02T10:40:26.000Z</time>
      </trkpt>
      <trkpt lat="48.66245" lon="1.70453">
        <ele>147.19999694824</ele>
        <time>2014-08-02T10:40:28.000Z</time>
      </trkpt>
      <trkpt lat="48.66242" lon="1.7045">
        <ele>147.19999694824</ele>
        <time>2014-08-02T10:40:33.000Z</time>
      </trkpt>
      <trkpt lat="48.66237" lon="1.70459">
        <ele>146</ele>
        <time>2014-08-02T10:40:38.000Z</time>
      </trkpt>
      <trkpt lat="48.66233" lon="1.70472">
        <ele>144.39999389648</ele>
        <time>2014-08-02T10:40:45.000Z</time>
      </trkpt>
      <trkpt lat="48.66233" lon="1.70478">
        <ele>143.80000305176</ele>
        <time>2014-08-02T10:40:48.000Z</time>
      </trkpt>
      <trkpt lat="48.66235" lon="1.70487">
        <ele>142.80000305176</ele>
        <time>2014-08-02T10:40:54.000Z</time>
      </trkpt>
      <trkpt lat="48.66234" lon="1.70492">
        <ele>142.60000610352</ele>
        <time>2014-08-02T10:40:57.000Z</time>
      </trkpt>
      <trkpt lat="48.6623" lon="1.70491">
        <ele>142.39999389648</ele>
        <time>2014-08-02T10:41:00.000Z</time>
      </trkpt>
      <trkpt lat="48.66221" lon="1.70489">
        <ele>142</ele>
        <time>2014-08-02T10:41:07.000Z</time>
      </trkpt>
      <trkpt lat="48.66219" lon="1.70488">
        <ele>141.80000305176</ele>
        <time>2014-08-02T10:41:10.000Z</time>
      </trkpt>
      <trkpt lat="48.66213" lon="1.70492">
        <ele>141.19999694824</ele>
        <time>2014-08-02T10:41:14.000Z</time>
      </trkpt>
      <trkpt lat="48.66209" lon="1.7049">
        <ele>141.19999694824</ele>
        <time>2014-08-02T10:41:20.000Z</time>
      </trkpt>
      <trkpt lat="48.66208" lon="1.7049">
        <ele>141</ele>
        <time>2014-08-02T10:41:21.000Z</time>
      </trkpt>
      <trkpt lat="48.662" lon="1.70492">
        <ele>140.60000610352</ele>
        <time>2014-08-02T10:41:26.000Z</time>
      </trkpt>
      <trkpt lat="48.66194" lon="1.70489">
        <ele>140.39999389648</ele>
        <time>2014-08-02T10:41:31.000Z</time>
      </trkpt>
      <trkpt lat="48.66189" lon="1.70484">
        <ele>140.60000610352</ele>
        <time>2014-08-02T10:41:35.000Z</time>
      </trkpt>
      <trkpt lat="48.66179" lon="1.7047">
        <ele>141</ele>
        <time>2014-08-02T10:41:43.000Z</time>
      </trkpt>
      <trkpt lat="48.66165" lon="1.70456">
        <ele>141</ele>
        <time>2014-08-02T10:41:49.000Z</time>
      </trkpt>
      <trkpt lat="48.66148" lon="1.7044">
        <ele>140.80000305176</ele>
        <time>2014-08-02T10:41:55.000Z</time>
      </trkpt>
      <trkpt lat="48.66127" lon="1.7042">
        <ele>140.80000305176</ele>
        <time>2014-08-02T10:42:02.000Z</time>
      </trkpt>
      <trkpt lat="48.66108" lon="1.70395">
        <ele>140.80000305176</ele>
        <time>2014-08-02T10:42:09.000Z</time>
      </trkpt>
      <trkpt lat="48.66093" lon="1.7036">
        <ele>140</ele>
        <time>2014-08-02T10:42:17.000Z</time>
      </trkpt>
      <trkpt lat="48.66081" lon="1.70328">
        <ele>139.80000305176</ele>
        <time>2014-08-02T10:42:24.000Z</time>
      </trkpt>
      <trkpt lat="48.66074" lon="1.7031">
        <ele>139.39999389648</ele>
        <time>2014-08-02T10:42:30.000Z</time>
      </trkpt>
      <trkpt lat="48.66068" lon="1.70307">
        <ele>139</ele>
        <time>2014-08-02T10:42:36.000Z</time>
      </trkpt>
      <trkpt lat="48.66063" lon="1.70307">
        <ele>138.39999389648</ele>
        <time>2014-08-02T10:42:40.000Z</time>
      </trkpt>
      <trkpt lat="48.66056" lon="1.70313">
        <ele>137.80000305176</ele>
        <time>2014-08-02T10:42:46.000Z</time>
      </trkpt>
      <trkpt lat="48.66047" lon="1.70323">
        <ele>136.60000610352</ele>
        <time>2014-08-02T10:42:54.000Z</time>
      </trkpt>
      <trkpt lat="48.66038" lon="1.7033">
        <ele>135.60000610352</ele>
        <time>2014-08-02T10:43:00.000Z</time>
      </trkpt>
      <trkpt lat="48.6603" lon="1.70338">
        <ele>135</ele>
        <time>2014-08-02T10:43:06.000Z</time>
      </trkpt>
      <trkpt lat="48.66023" lon="1.70344">
        <ele>134.80000305176</ele>
        <time>2014-08-02T10:43:12.000Z</time>
      </trkpt>
      <trkpt lat="48.66015" lon="1.70352">
        <ele>135</ele>
        <time>2014-08-02T10:43:19.000Z</time>
      </trkpt>
      <trkpt lat="48.66009" lon="1.70361">
        <ele>135.39999389648</ele>
        <time>2014-08-02T10:43:25.000Z</time>
      </trkpt>
      <trkpt lat="48.66002" lon="1.70367">
        <ele>136</ele>
        <time>2014-08-02T10:43:31.000Z</time>
      </trkpt>
      <trkpt lat="48.65989" lon="1.70378">
        <ele>137</ele>
        <time>2014-08-02T10:43:37.000Z</time>
      </trkpt>
      <trkpt lat="48.65976" lon="1.70393">
        <ele>138.19999694824</ele>
        <time>2014-08-02T10:43:43.000Z</time>
      </trkpt>
      <trkpt lat="48.65965" lon="1.70404">
        <ele>139.39999389648</ele>
        <time>2014-08-02T10:43:48.000Z</time>
      </trkpt>
      <trkpt lat="48.65953" lon="1.70425">
        <ele>140.60000610352</ele>
        <time>2014-08-02T10:43:53.000Z</time>
      </trkpt>
      <trkpt lat="48.6595" lon="1.70451">
        <ele>141.39999389648</ele>
        <time>2014-08-02T10:43:58.000Z</time>
      </trkpt>
      <trkpt lat="48.6595" lon="1.70479">
        <ele>142.19999694824</ele>
        <time>2014-08-02T10:44:03.000Z</time>
      </trkpt>
      <trkpt lat="48.65947" lon="1.70502">
        <ele>143.60000610352</ele>
        <time>2014-08-02T10:44:08.000Z</time>
      </trkpt>
      <trkpt lat="48.65947" lon="1.70535">
        <ele>146.80000305176</ele>
        <time>2014-08-02T10:44:14.000Z</time>
      </trkpt>
      <trkpt lat="48.65947" lon="1.70563">
        <ele>149.39999389648</ele>
        <time>2014-08-02T10:44:19.000Z</time>
      </trkpt>
      <trkpt lat="48.6595" lon="1.70598">
        <ele>151.19999694824</ele>
        <time>2014-08-02T10:44:25.000Z</time>
      </trkpt>
      <trkpt lat="48.65953" lon="1.70621">
        <ele>152</ele>
        <time>2014-08-02T10:44:30.000Z</time>
      </trkpt>
      <trkpt lat="48.65953" lon="1.7063">
        <ele>152.39999389648</ele>
        <time>2014-08-02T10:44:34.000Z</time>
      </trkpt>
      <trkpt lat="48.65955" lon="1.70647">
        <ele>153.19999694824</ele>
        <time>2014-08-02T10:44:41.000Z</time>
      </trkpt>
      <trkpt lat="48.65959" lon="1.70662">
        <ele>153.19999694824</ele>
        <time>2014-08-02T10:44:48.000Z</time>
      </trkpt>
      <trkpt lat="48.6596" lon="1.7067">
        <ele>153</ele>
        <time>2014-08-02T10:44:51.000Z</time>
      </trkpt>
      <trkpt lat="48.65959" lon="1.70674">
        <ele>153</ele>
        <time>2014-08-02T10:44:53.000Z</time>
      </trkpt>
      <trkpt lat="48.65962" lon="1.70689">
        <ele>152.80000305176</ele>
        <time>2014-08-02T10:45:00.000Z</time>
      </trkpt>
      <trkpt lat="48.65962" lon="1.7071">
        <ele>152.39999389648</ele>
        <time>2014-08-02T10:45:08.000Z</time>
      </trkpt>
      <trkpt lat="48.65964" lon="1.70719">
        <ele>152.19999694824</ele>
        <time>2014-08-02T10:45:12.000Z</time>
      </trkpt>
      <trkpt lat="48.65965" lon="1.70734">
        <ele>152</ele>
        <time>2014-08-02T10:45:19.000Z</time>
      </trkpt>
      <trkpt lat="48.65964" lon="1.70745">
        <ele>152</ele>
        <time>2014-08-02T10:45:24.000Z</time>
      </trkpt>
      <trkpt lat="48.65963" lon="1.70752">
        <ele>152</ele>
        <time>2014-08-02T10:45:26.000Z</time>
      </trkpt>
      <trkpt lat="48.6596" lon="1.70778">
        <ele>152</ele>
        <time>2014-08-02T10:45:32.000Z</time>
      </trkpt>
      <trkpt lat="48.65962" lon="1.70792">
        <ele>151.80000305176</ele>
        <time>2014-08-02T10:45:35.000Z</time>
      </trkpt>
      <trkpt lat="48.65968" lon="1.70814">
        <ele>151.19999694824</ele>
        <time>2014-08-02T10:45:40.000Z</time>
      </trkpt>
      <trkpt lat="48.65971" lon="1.70823">
        <ele>150.80000305176</ele>
        <time>2014-08-02T10:45:42.000Z</time>
      </trkpt>
      <trkpt lat="48.65982" lon="1.70858">
        <ele>150.19999694824</ele>
        <time>2014-08-02T10:45:49.000Z</time>
      </trkpt>
      <trkpt lat="48.6599" lon="1.70886">
        <ele>149.60000610352</ele>
        <time>2014-08-02T10:45:54.000Z</time>
      </trkpt>
      <trkpt lat="48.65996" lon="1.70906">
        <ele>149</ele>
        <time>2014-08-02T10:46:00.000Z</time>
      </trkpt>
      <trkpt lat="48.65995" lon="1.70922">
        <ele>149.19999694824</ele>
        <time>2014-08-02T10:46:06.000Z</time>
      </trkpt>
      <trkpt lat="48.65994" lon="1.70932">
        <ele>149.19999694824</ele>
        <time>2014-08-02T10:46:11.000Z</time>
      </trkpt>
      <trkpt lat="48.65995" lon="1.70933">
        <ele>149.19999694824</ele>
        <time>2014-08-02T10:46:12.000Z</time>
      </trkpt>
      <trkpt lat="48.65999" lon="1.70939">
        <ele>149</ele>
        <time>2014-08-02T10:46:16.000Z</time>
      </trkpt>
      <trkpt lat="48.66003" lon="1.70953">
        <ele>148.80000305176</ele>
        <time>2014-08-02T10:46:23.000Z</time>
      </trkpt>
      <trkpt lat="48.66005" lon="1.70971">
        <ele>148.80000305176</ele>
        <time>2014-08-02T10:46:30.000Z</time>
      </trkpt>
      <trkpt lat="48.66007" lon="1.70985">
        <ele>148.60000610352</ele>
        <time>2014-08-02T10:46:36.000Z</time>
      </trkpt>
      <trkpt lat="48.66008" lon="1.70996">
        <ele>148.60000610352</ele>
        <time>2014-08-02T10:46:40.000Z</time>
      </trkpt>
      <trkpt lat="48.66008" lon="1.71006">
        <ele>148.80000305176</ele>
        <time>2014-08-02T10:46:44.000Z</time>
      </trkpt>
      <trkpt lat="48.66008" lon="1.71031">
        <ele>149</ele>
        <time>2014-08-02T10:46:49.000Z</time>
      </trkpt>
      <trkpt lat="48.66009" lon="1.71059">
        <ele>149.39999389648</ele>
        <time>2014-08-02T10:46:54.000Z</time>
      </trkpt>
      <trkpt lat="48.6601" lon="1.7109">
        <ele>149.19999694824</ele>
        <time>2014-08-02T10:47:00.000Z</time>
      </trkpt>
      <trkpt lat="48.66009" lon="1.71119">
        <ele>148.60000610352</ele>
        <time>2014-08-02T10:47:06.000Z</time>
      </trkpt>
      <trkpt lat="48.66009" lon="1.71134">
        <ele>148.39999389648</ele>
        <time>2014-08-02T10:47:10.000Z</time>
      </trkpt>
      <trkpt lat="48.66008" lon="1.71143">
        <ele>148.19999694824</ele>
        <time>2014-08-02T10:47:14.000Z</time>
      </trkpt>
      <trkpt lat="48.66006" lon="1.71154">
        <ele>148.39999389648</ele>
        <time>2014-08-02T10:47:19.000Z</time>
      </trkpt>
      <trkpt lat="48.65999" lon="1.71171">
        <ele>149.19999694824</ele>
        <time>2014-08-02T10:47:27.000Z</time>
      </trkpt>
      <trkpt lat="48.65994" lon="1.71186">
        <ele>149.80000305176</ele>
        <time>2014-08-02T10:47:33.000Z</time>
      </trkpt>
      <trkpt lat="48.6599" lon="1.71197">
        <ele>150.19999694824</ele>
        <time>2014-08-02T10:47:38.000Z</time>
      </trkpt>
      <trkpt lat="48.65985" lon="1.71211">
        <ele>150.60000610352</ele>
        <time>2014-08-02T10:47:44.000Z</time>
      </trkpt>
      <trkpt lat="48.65983" lon="1.71233">
        <ele>150.60000610352</ele>
        <time>2014-08-02T10:47:51.000Z</time>
      </trkpt>
      <trkpt lat="48.65982" lon="1.71244">
        <ele>150.60000610352</ele>
        <time>2014-08-02T10:47:54.000Z</time>
      </trkpt>
      <trkpt lat="48.65984" lon="1.71268">
        <ele>150.39999389648</ele>
        <time>2014-08-02T10:48:00.000Z</time>
      </trkpt>
      <trkpt lat="48.65983" lon="1.71277">
        <ele>150.60000610352</ele>
        <time>2014-08-02T10:48:02.000Z</time>
      </trkpt>
      <trkpt lat="48.65985" lon="1.71305">
        <ele>149.60000610352</ele>
        <time>2014-08-02T10:48:08.000Z</time>
      </trkpt>
      <trkpt lat="48.65986" lon="1.7133">
        <ele>149</ele>
        <time>2014-08-02T10:48:14.000Z</time>
      </trkpt>
      <trkpt lat="48.65987" lon="1.71354">
        <ele>149</ele>
        <time>2014-08-02T10:48:20.000Z</time>
      </trkpt>
      <trkpt lat="48.65986" lon="1.7138">
        <ele>149</ele>
        <time>2014-08-02T10:48:26.000Z</time>
      </trkpt>
      <trkpt lat="48.65989" lon="1.71406">
        <ele>148.80000305176</ele>
        <time>2014-08-02T10:48:32.000Z</time>
      </trkpt>
      <trkpt lat="48.65994" lon="1.71427">
        <ele>148.80000305176</ele>
        <time>2014-08-02T10:48:37.000Z</time>
      </trkpt>
      <trkpt lat="48.65996" lon="1.71445">
        <ele>148.80000305176</ele>
        <time>2014-08-02T10:48:41.000Z</time>
      </trkpt>
      <trkpt lat="48.66" lon="1.71469">
        <ele>149</ele>
        <time>2014-08-02T10:48:46.000Z</time>
      </trkpt>
      <trkpt lat="48.66004" lon="1.71494">
        <ele>149</ele>
        <time>2014-08-02T10:48:51.000Z</time>
      </trkpt>
      <trkpt lat="48.66006" lon="1.71513">
        <ele>149</ele>
        <time>2014-08-02T10:48:55.000Z</time>
      </trkpt>
      <trkpt lat="48.66004" lon="1.71542">
        <ele>149.60000610352</ele>
        <time>2014-08-02T10:49:01.000Z</time>
      </trkpt>
      <trkpt lat="48.66014" lon="1.71569">
        <ele>149.39999389648</ele>
        <time>2014-08-02T10:49:06.000Z</time>
      </trkpt>
      <trkpt lat="48.66024" lon="1.71582">
        <ele>149</ele>
        <time>2014-08-02T10:49:09.000Z</time>
      </trkpt>
      <trkpt lat="48.66037" lon="1.71594">
        <ele>148.60000610352</ele>
        <time>2014-08-02T10:49:12.000Z</time>
      </trkpt>
      <trkpt lat="48.66047" lon="1.71613">
        <ele>148.39999389648</ele>
        <time>2014-08-02T10:49:16.000Z</time>
      </trkpt>
      <trkpt lat="48.66052" lon="1.71621">
        <ele>148.19999694824</ele>
        <time>2014-08-02T10:49:18.000Z</time>
      </trkpt>
      <trkpt lat="48.66065" lon="1.71645">
        <ele>148</ele>
        <time>2014-08-02T10:49:23.000Z</time>
      </trkpt>
      <trkpt lat="48.66067" lon="1.71651">
        <ele>148</ele>
        <time>2014-08-02T10:49:24.000Z</time>
      </trkpt>
      <trkpt lat="48.66076" lon="1.71672">
        <ele>148.19999694824</ele>
        <time>2014-08-02T10:49:28.000Z</time>
      </trkpt>
      <trkpt lat="48.66091" lon="1.71708">
        <ele>148.60000610352</ele>
        <time>2014-08-02T10:49:35.000Z</time>
      </trkpt>
      <trkpt lat="48.66094" lon="1.71717">
        <ele>148.80000305176</ele>
        <time>2014-08-02T10:49:39.000Z</time>
      </trkpt>
      <trkpt lat="48.66096" lon="1.71724">
        <ele>149</ele>
        <time>2014-08-02T10:49:42.000Z</time>
      </trkpt>
      <trkpt lat="48.66102" lon="1.71736">
        <ele>149</ele>
        <time>2014-08-02T10:49:49.000Z</time>
      </trkpt>
      <trkpt lat="48.66107" lon="1.71744">
        <ele>148.80000305176</ele>
        <time>2014-08-02T10:49:53.000Z</time>
      </trkpt>
      <trkpt lat="48.66113" lon="1.71761">
        <ele>148.60000610352</ele>
        <time>2014-08-02T10:50:00.000Z</time>
      </trkpt>
      <trkpt lat="48.66116" lon="1.71775">
        <ele>148.60000610352</ele>
        <time>2014-08-02T10:50:05.000Z</time>
      </trkpt>
      <trkpt lat="48.66119" lon="1.71786">
        <ele>148.60000610352</ele>
        <time>2014-08-02T10:50:10.000Z</time>
      </trkpt>
      <trkpt lat="48.66123" lon="1.718">
        <ele>148.60000610352</ele>
        <time>2014-08-02T10:50:16.000Z</time>
      </trkpt>
      <trkpt lat="48.66125" lon="1.71808">
        <ele>148.60000610352</ele>
        <time>2014-08-02T10:50:20.000Z</time>
      </trkpt>
      <trkpt lat="48.66127" lon="1.71813">
        <ele>148.39999389648</ele>
        <time>2014-08-02T10:50:22.000Z</time>
      </trkpt>
      <trkpt lat="48.66131" lon="1.71824">
        <ele>148.19999694824</ele>
        <time>2014-08-02T10:50:27.000Z</time>
      </trkpt>
      <trkpt lat="48.66135" lon="1.71832">
        <ele>148</ele>
        <time>2014-08-02T10:50:31.000Z</time>
      </trkpt>
      <trkpt lat="48.66138" lon="1.71845">
        <ele>147.80000305176</ele>
        <time>2014-08-02T10:50:38.000Z</time>
      </trkpt>
      <trkpt lat="48.66139" lon="1.71847">
        <ele>147.80000305176</ele>
        <time>2014-08-02T10:50:39.000Z</time>
      </trkpt>
      <trkpt lat="48.66144" lon="1.71861">
        <ele>147.60000610352</ele>
        <time>2014-08-02T10:50:46.000Z</time>
      </trkpt>
      <trkpt lat="48.66146" lon="1.71868">
        <ele>147.19999694824</ele>
        <time>2014-08-02T10:50:50.000Z</time>
      </trkpt>
      <trkpt lat="48.66146" lon="1.71871">
        <ele>147.19999694824</ele>
        <time>2014-08-02T10:50:51.000Z</time>
      </trkpt>
      <trkpt lat="48.66153" lon="1.71888">
        <ele>146.39999389648</ele>
        <time>2014-08-02T10:50:58.000Z</time>
      </trkpt>
      <trkpt lat="48.66157" lon="1.71903">
        <ele>145.80000305176</ele>
        <time>2014-08-02T10:51:04.000Z</time>
      </trkpt>
      <trkpt lat="48.66165" lon="1.71922">
        <ele>145.19999694824</ele>
        <time>2014-08-02T10:51:13.000Z</time>
      </trkpt>
      <trkpt lat="48.6617" lon="1.71937">
        <ele>145</ele>
        <time>2014-08-02T10:51:19.000Z</time>
      </trkpt>
      <trkpt lat="48.66174" lon="1.71957">
        <ele>144.60000610352</ele>
        <time>2014-08-02T10:51:25.000Z</time>
      </trkpt>
      <trkpt lat="48.66174" lon="1.7196">
        <ele>144.60000610352</ele>
        <time>2014-08-02T10:51:26.000Z</time>
      </trkpt>
      <trkpt lat="48.66174" lon="1.71969">
        <ele>144.60000610352</ele>
        <time>2014-08-02T10:51:30.000Z</time>
      </trkpt>
      <trkpt lat="48.66174" lon="1.71985">
        <ele>144.39999389648</ele>
        <time>2014-08-02T10:51:36.000Z</time>
      </trkpt>
      <trkpt lat="48.66175" lon="1.71996">
        <ele>144.39999389648</ele>
        <time>2014-08-02T10:51:41.000Z</time>
      </trkpt>
      <trkpt lat="48.66175" lon="1.72008">
        <ele>144.39999389648</ele>
        <time>2014-08-02T10:51:47.000Z</time>
      </trkpt>
      <trkpt lat="48.66179" lon="1.72032">
        <ele>144.19999694824</ele>
        <time>2014-08-02T10:51:57.000Z</time>
      </trkpt>
      <trkpt lat="48.6618" lon="1.72046">
        <ele>144.19999694824</ele>
        <time>2014-08-02T10:52:04.000Z</time>
      </trkpt>
      <trkpt lat="48.66182" lon="1.72067">
        <ele>144.19999694824</ele>
        <time>2014-08-02T10:52:11.000Z</time>
      </trkpt>
      <trkpt lat="48.66185" lon="1.72084">
        <ele>144.19999694824</ele>
        <time>2014-08-02T10:52:16.000Z</time>
      </trkpt>
      <trkpt lat="48.66187" lon="1.72094">
        <ele>144.19999694824</ele>
        <time>2014-08-02T10:52:20.000Z</time>
      </trkpt>
      <trkpt lat="48.66188" lon="1.72107">
        <ele>144.39999389648</ele>
        <time>2014-08-02T10:52:26.000Z</time>
      </trkpt>
      <trkpt lat="48.66189" lon="1.72121">
        <ele>144.60000610352</ele>
        <time>2014-08-02T10:52:33.000Z</time>
      </trkpt>
      <trkpt lat="48.66189" lon="1.72137">
        <ele>144.80000305176</ele>
        <time>2014-08-02T10:52:37.000Z</time>
      </trkpt>
      <trkpt lat="48.66185" lon="1.7216">
        <ele>145.19999694824</ele>
        <time>2014-08-02T10:52:40.000Z</time>
      </trkpt>
      <trkpt lat="48.66188" lon="1.72211">
        <ele>147</ele>
        <time>2014-08-02T10:52:46.000Z</time>
      </trkpt>
      <trkpt lat="48.6619" lon="1.72218">
        <ele>147</ele>
        <time>2014-08-02T10:52:47.000Z</time>
      </trkpt>
      <trkpt lat="48.66201" lon="1.72263">
        <ele>148</ele>
        <time>2014-08-02T10:52:53.000Z</time>
      </trkpt>
      <trkpt lat="48.66209" lon="1.72301">
        <ele>149</ele>
        <time>2014-08-02T10:52:57.000Z</time>
      </trkpt>
      <trkpt lat="48.66211" lon="1.72311">
        <ele>149.19999694824</ele>
        <time>2014-08-02T10:52:58.000Z</time>
      </trkpt>
      <trkpt lat="48.66216" lon="1.72356">
        <ele>150</ele>
        <time>2014-08-02T10:53:03.000Z</time>
      </trkpt>
      <trkpt lat="48.66216" lon="1.72364">
        <ele>150.19999694824</ele>
        <time>2014-08-02T10:53:04.000Z</time>
      </trkpt>
      <trkpt lat="48.66216" lon="1.72408">
        <ele>151.60000610352</ele>
        <time>2014-08-02T10:53:09.000Z</time>
      </trkpt>
      <trkpt lat="48.66218" lon="1.72434">
        <ele>153.60000610352</ele>
        <time>2014-08-02T10:53:12.000Z</time>
      </trkpt>
      <trkpt lat="48.66221" lon="1.7246">
        <ele>155.39999389648</ele>
        <time>2014-08-02T10:53:15.000Z</time>
      </trkpt>
      <trkpt lat="48.66236" lon="1.72502">
        <ele>157.80000305176</ele>
        <time>2014-08-02T10:53:21.000Z</time>
      </trkpt>
      <trkpt lat="48.6624" lon="1.72513">
        <ele>158.60000610352</ele>
        <time>2014-08-02T10:53:23.000Z</time>
      </trkpt>
      <trkpt lat="48.66246" lon="1.72531">
        <ele>159.80000305176</ele>
        <time>2014-08-02T10:53:28.000Z</time>
      </trkpt>
      <trkpt lat="48.66247" lon="1.72533">
        <ele>160</ele>
        <time>2014-08-02T10:53:29.000Z</time>
      </trkpt>
      <trkpt lat="48.66253" lon="1.72543">
        <ele>160.39999389648</ele>
        <time>2014-08-02T10:53:35.000Z</time>
      </trkpt>
      <trkpt lat="48.66257" lon="1.72559">
        <ele>161.60000610352</ele>
        <time>2014-08-02T10:53:42.000Z</time>
      </trkpt>
      <trkpt lat="48.66259" lon="1.72566">
        <ele>162</ele>
        <time>2014-08-02T10:53:47.000Z</time>
      </trkpt>
      <trkpt lat="48.66263" lon="1.72573">
        <ele>162.39999389648</ele>
        <time>2014-08-02T10:53:51.000Z</time>
      </trkpt>
      <trkpt lat="48.66266" lon="1.72581">
        <ele>162.39999389648</ele>
        <time>2014-08-02T10:53:56.000Z</time>
      </trkpt>
      <trkpt lat="48.66268" lon="1.72591">
        <ele>162.80000305176</ele>
        <time>2014-08-02T10:54:01.000Z</time>
      </trkpt>
      <trkpt lat="48.66274" lon="1.72604">
        <ele>162.80000305176</ele>
        <time>2014-08-02T10:54:07.000Z</time>
      </trkpt>
      <trkpt lat="48.66275" lon="1.72606">
        <ele>162.80000305176</ele>
        <time>2014-08-02T10:54:08.000Z</time>
      </trkpt>
      <trkpt lat="48.66278" lon="1.72622">
        <ele>163</ele>
        <time>2014-08-02T10:54:16.000Z</time>
      </trkpt>
      <trkpt lat="48.66286" lon="1.7264">
        <ele>162.80000305176</ele>
        <time>2014-08-02T10:54:23.000Z</time>
      </trkpt>
      <trkpt lat="48.6629" lon="1.72655">
        <ele>162.80000305176</ele>
        <time>2014-08-02T10:54:29.000Z</time>
      </trkpt>
      <trkpt lat="48.66291" lon="1.72662">
        <ele>162.60000610352</ele>
        <time>2014-08-02T10:54:32.000Z</time>
      </trkpt>
      <trkpt lat="48.66295" lon="1.72676">
        <ele>162</ele>
        <time>2014-08-02T10:54:38.000Z</time>
      </trkpt>
      <trkpt lat="48.66296" lon="1.72679">
        <ele>161.80000305176</ele>
        <time>2014-08-02T10:54:39.000Z</time>
      </trkpt>
      <trkpt lat="48.66302" lon="1.72692">
        <ele>161</ele>
        <time>2014-08-02T10:54:45.000Z</time>
      </trkpt>
      <trkpt lat="48.66307" lon="1.72707">
        <ele>160.19999694824</ele>
        <time>2014-08-02T10:54:51.000Z</time>
      </trkpt>
      <trkpt lat="48.66311" lon="1.72718">
        <ele>159.39999389648</ele>
        <time>2014-08-02T10:54:56.000Z</time>
      </trkpt>
      <trkpt lat="48.66317" lon="1.72731">
        <ele>158.60000610352</ele>
        <time>2014-08-02T10:55:02.000Z</time>
      </trkpt>
      <trkpt lat="48.66323" lon="1.72745">
        <ele>157.80000305176</ele>
        <time>2014-08-02T10:55:08.000Z</time>
      </trkpt>
      <trkpt lat="48.66329" lon="1.72756">
        <ele>157.19999694824</ele>
        <time>2014-08-02T10:55:13.000Z</time>
      </trkpt>
      <trkpt lat="48.6633" lon="1.72759">
        <ele>157.19999694824</ele>
        <time>2014-08-02T10:55:14.000Z</time>
      </trkpt>
      <trkpt lat="48.66338" lon="1.72777">
        <ele>156.39999389648</ele>
        <time>2014-08-02T10:55:22.000Z</time>
      </trkpt>
      <trkpt lat="48.66339" lon="1.7279">
        <ele>156.39999389648</ele>
        <time>2014-08-02T10:55:28.000Z</time>
      </trkpt>
      <trkpt lat="48.66341" lon="1.72801">
        <ele>156.19999694824</ele>
        <time>2014-08-02T10:55:33.000Z</time>
      </trkpt>
      <trkpt lat="48.66342" lon="1.72811">
        <ele>156</ele>
        <time>2014-08-02T10:55:37.000Z</time>
      </trkpt>
      <trkpt lat="48.66348" lon="1.72821">
        <ele>155.19999694824</ele>
        <time>2014-08-02T10:55:41.000Z</time>
      </trkpt>
      <trkpt lat="48.66352" lon="1.72833">
        <ele>155.19999694824</ele>
        <time>2014-08-02T10:55:46.000Z</time>
      </trkpt>
      <trkpt lat="48.66353" lon="1.72849">
        <ele>155.39999389648</ele>
        <time>2014-08-02T10:55:53.000Z</time>
      </trkpt>
      <trkpt lat="48.66361" lon="1.72863">
        <ele>155.19999694824</ele>
        <time>2014-08-02T10:55:59.000Z</time>
      </trkpt>
      <trkpt lat="48.66367" lon="1.72877">
        <ele>155</ele>
        <time>2014-08-02T10:56:05.000Z</time>
      </trkpt>
      <trkpt lat="48.66373" lon="1.72889">
        <ele>154.80000305176</ele>
        <time>2014-08-02T10:56:11.000Z</time>
      </trkpt>
      <trkpt lat="48.66376" lon="1.72902">
        <ele>154.80000305176</ele>
        <time>2014-08-02T10:56:17.000Z</time>
      </trkpt>
      <trkpt lat="48.66381" lon="1.72919">
        <ele>155.19999694824</ele>
        <time>2014-08-02T10:56:24.000Z</time>
      </trkpt>
      <trkpt lat="48.66384" lon="1.7293">
        <ele>155.39999389648</ele>
        <time>2014-08-02T10:56:29.000Z</time>
      </trkpt>
      <trkpt lat="48.66385" lon="1.72934">
        <ele>155.60000610352</ele>
        <time>2014-08-02T10:56:31.000Z</time>
      </trkpt>
      <trkpt lat="48.6639" lon="1.72949">
        <ele>155.60000610352</ele>
        <time>2014-08-02T10:56:38.000Z</time>
      </trkpt>
      <trkpt lat="48.66391" lon="1.72956">
        <ele>155.80000305176</ele>
        <time>2014-08-02T10:56:41.000Z</time>
      </trkpt>
      <trkpt lat="48.66393" lon="1.72965">
        <ele>155.80000305176</ele>
        <time>2014-08-02T10:56:45.000Z</time>
      </trkpt>
      <trkpt lat="48.66398" lon="1.7298">
        <ele>155.80000305176</ele>
        <time>2014-08-02T10:56:52.000Z</time>
      </trkpt>
      <trkpt lat="48.66403" lon="1.72995">
        <ele>156.19999694824</ele>
        <time>2014-08-02T10:56:59.000Z</time>
      </trkpt>
      <trkpt lat="48.6641" lon="1.73014">
        <ele>157</ele>
        <time>2014-08-02T10:57:05.000Z</time>
      </trkpt>
      <trkpt lat="48.66416" lon="1.7303">
        <ele>157.60000610352</ele>
        <time>2014-08-02T10:57:10.000Z</time>
      </trkpt>
      <trkpt lat="48.66421" lon="1.7304">
        <ele>158</ele>
        <time>2014-08-02T10:57:15.000Z</time>
      </trkpt>
      <trkpt lat="48.66422" lon="1.73044">
        <ele>158</ele>
        <time>2014-08-02T10:57:17.000Z</time>
      </trkpt>
      <trkpt lat="48.66427" lon="1.73055">
        <ele>158.39999389648</ele>
        <time>2014-08-02T10:57:23.000Z</time>
      </trkpt>
      <trkpt lat="48.6643" lon="1.73069">
        <ele>159</ele>
        <time>2014-08-02T10:57:30.000Z</time>
      </trkpt>
      <trkpt lat="48.66434" lon="1.73084">
        <ele>159.60000610352</ele>
        <time>2014-08-02T10:57:37.000Z</time>
      </trkpt>
      <trkpt lat="48.66438" lon="1.73094">
        <ele>159.80000305176</ele>
        <time>2014-08-02T10:57:42.000Z</time>
      </trkpt>
      <trkpt lat="48.66443" lon="1.7311">
        <ele>159.60000610352</ele>
        <time>2014-08-02T10:57:49.000Z</time>
      </trkpt>
      <trkpt lat="48.66448" lon="1.73127">
        <ele>159.19999694824</ele>
        <time>2014-08-02T10:57:56.000Z</time>
      </trkpt>
      <trkpt lat="48.66455" lon="1.73143">
        <ele>158.39999389648</ele>
        <time>2014-08-02T10:58:03.000Z</time>
      </trkpt>
      <trkpt lat="48.66461" lon="1.7316">
        <ele>157.80000305176</ele>
        <time>2014-08-02T10:58:11.000Z</time>
      </trkpt>
      <trkpt lat="48.66464" lon="1.73173">
        <ele>157.80000305176</ele>
        <time>2014-08-02T10:58:17.000Z</time>
      </trkpt>
      <trkpt lat="48.6647" lon="1.73191">
        <ele>157.39999389648</ele>
        <time>2014-08-02T10:58:26.000Z</time>
      </trkpt>
      <trkpt lat="48.66473" lon="1.73198">
        <ele>157</ele>
        <time>2014-08-02T10:58:29.000Z</time>
      </trkpt>
      <trkpt lat="48.66476" lon="1.73208">
        <ele>156.60000610352</ele>
        <time>2014-08-02T10:58:34.000Z</time>
      </trkpt>
      <trkpt lat="48.66479" lon="1.73216">
        <ele>156.39999389648</ele>
        <time>2014-08-02T10:58:38.000Z</time>
      </trkpt>
      <trkpt lat="48.66483" lon="1.73229">
        <ele>155.80000305176</ele>
        <time>2014-08-02T10:58:44.000Z</time>
      </trkpt>
      <trkpt lat="48.66491" lon="1.73247">
        <ele>154.60000610352</ele>
        <time>2014-08-02T10:58:51.000Z</time>
      </trkpt>
      <trkpt lat="48.66497" lon="1.73264">
        <ele>154</ele>
        <time>2014-08-02T10:58:57.000Z</time>
      </trkpt>
      <trkpt lat="48.66502" lon="1.73275">
        <ele>153.39999389648</ele>
        <time>2014-08-02T10:59:02.000Z</time>
      </trkpt>
      <trkpt lat="48.66505" lon="1.73287">
        <ele>153</ele>
        <time>2014-08-02T10:59:08.000Z</time>
      </trkpt>
      <trkpt lat="48.66508" lon="1.73299">
        <ele>152.60000610352</ele>
        <time>2014-08-02T10:59:13.000Z</time>
      </trkpt>
      <trkpt lat="48.66517" lon="1.7332">
        <ele>151.39999389648</ele>
        <time>2014-08-02T10:59:23.000Z</time>
      </trkpt>
      <trkpt lat="48.66521" lon="1.73332">
        <ele>150.60000610352</ele>
        <time>2014-08-02T10:59:30.000Z</time>
      </trkpt>
      <trkpt lat="48.66527" lon="1.73348">
        <ele>149.80000305176</ele>
        <time>2014-08-02T10:59:38.000Z</time>
      </trkpt>
      <trkpt lat="48.66532" lon="1.73366">
        <ele>149</ele>
        <time>2014-08-02T10:59:47.000Z</time>
      </trkpt>
      <trkpt lat="48.66534" lon="1.73375">
        <ele>148.60000610352</ele>
        <time>2014-08-02T10:59:51.000Z</time>
      </trkpt>
      <trkpt lat="48.6654" lon="1.73392">
        <ele>147.80000305176</ele>
        <time>2014-08-02T10:59:58.000Z</time>
      </trkpt>
      <trkpt lat="48.66546" lon="1.7341">
        <ele>147.19999694824</ele>
        <time>2014-08-02T11:00:05.000Z</time>
      </trkpt>
      <trkpt lat="48.66548" lon="1.73412">
        <ele>147.19999694824</ele>
        <time>2014-08-02T11:00:06.000Z</time>
      </trkpt>
      <trkpt lat="48.66551" lon="1.73425">
        <ele>147.19999694824</ele>
        <time>2014-08-02T11:00:11.000Z</time>
      </trkpt>
      <trkpt lat="48.6656" lon="1.73451">
        <ele>147</ele>
        <time>2014-08-02T11:00:22.000Z</time>
      </trkpt>
      <trkpt lat="48.66566" lon="1.73461">
        <ele>146.60000610352</ele>
        <time>2014-08-02T11:00:27.000Z</time>
      </trkpt>
      <trkpt lat="48.66567" lon="1.73462">
        <ele>146.60000610352</ele>
        <time>2014-08-02T11:00:28.000Z</time>
      </trkpt>
      <trkpt lat="48.6658" lon="1.73463">
        <ele>146</ele>
        <time>2014-08-02T11:00:36.000Z</time>
      </trkpt>
      <trkpt lat="48.66592" lon="1.73458">
        <ele>145</ele>
        <time>2014-08-02T11:00:44.000Z</time>
      </trkpt>
      <trkpt lat="48.66599" lon="1.73449">
        <ele>144.39999389648</ele>
        <time>2014-08-02T11:00:49.000Z</time>
      </trkpt>
      <trkpt lat="48.66601" lon="1.73446">
        <ele>144.19999694824</ele>
        <time>2014-08-02T11:00:50.000Z</time>
      </trkpt>
      <trkpt lat="48.66611" lon="1.73435">
        <ele>144.39999389648</ele>
        <time>2014-08-02T11:00:55.000Z</time>
      </trkpt>
      <trkpt lat="48.66616" lon="1.73421">
        <ele>144.60000610352</ele>
        <time>2014-08-02T11:00:59.000Z</time>
      </trkpt>
      <trkpt lat="48.66625" lon="1.73377">
        <ele>144.60000610352</ele>
        <time>2014-08-02T11:01:06.000Z</time>
      </trkpt>
      <trkpt lat="48.66626" lon="1.73371">
        <ele>144.60000610352</ele>
        <time>2014-08-02T11:01:07.000Z</time>
      </trkpt>
      <trkpt lat="48.66632" lon="1.73339">
        <ele>145</ele>
        <time>2014-08-02T11:01:12.000Z</time>
      </trkpt>
      <trkpt lat="48.66644" lon="1.73296">
        <ele>145.19999694824</ele>
        <time>2014-08-02T11:01:20.000Z</time>
      </trkpt>
      <trkpt lat="48.66649" lon="1.73282">
        <ele>145.19999694824</ele>
        <time>2014-08-02T11:01:23.000Z</time>
      </trkpt>
      <trkpt lat="48.66659" lon="1.7325">
        <ele>145.60000610352</ele>
        <time>2014-08-02T11:01:28.000Z</time>
      </trkpt>
      <trkpt lat="48.66663" lon="1.73239">
        <ele>145.60000610352</ele>
        <time>2014-08-02T11:01:30.000Z</time>
      </trkpt>
      <trkpt lat="48.6667" lon="1.73213">
        <ele>145.60000610352</ele>
        <time>2014-08-02T11:01:34.000Z</time>
      </trkpt>
      <trkpt lat="48.66678" lon="1.73182">
        <ele>145.39999389648</ele>
        <time>2014-08-02T11:01:40.000Z</time>
      </trkpt>
      <trkpt lat="48.66688" lon="1.73165">
        <ele>145.19999694824</ele>
        <time>2014-08-02T11:01:44.000Z</time>
      </trkpt>
      <trkpt lat="48.66705" lon="1.73136">
        <ele>144</ele>
        <time>2014-08-02T11:01:50.000Z</time>
      </trkpt>
      <trkpt lat="48.66709" lon="1.73134">
        <ele>143.80000305176</ele>
        <time>2014-08-02T11:01:51.000Z</time>
      </trkpt>
      <trkpt lat="48.66718" lon="1.73148">
        <ele>144</ele>
        <time>2014-08-02T11:01:54.000Z</time>
      </trkpt>
      <trkpt lat="48.66725" lon="1.73164">
        <ele>144.80000305176</ele>
        <time>2014-08-02T11:01:57.000Z</time>
      </trkpt>
      <trkpt lat="48.66744" lon="1.73185">
        <ele>145.39999389648</ele>
        <time>2014-08-02T11:02:04.000Z</time>
      </trkpt>
      <trkpt lat="48.66762" lon="1.73196">
        <ele>145.60000610352</ele>
        <time>2014-08-02T11:02:09.000Z</time>
      </trkpt>
      <trkpt lat="48.66775" lon="1.73204">
        <ele>145.60000610352</ele>
        <time>2014-08-02T11:02:12.000Z</time>
      </trkpt>
      <trkpt lat="48.66792" lon="1.73216">
        <ele>145.39999389648</ele>
        <time>2014-08-02T11:02:17.000Z</time>
      </trkpt>
      <trkpt lat="48.66806" lon="1.73227">
        <ele>145.19999694824</ele>
        <time>2014-08-02T11:02:21.000Z</time>
      </trkpt>
      <trkpt lat="48.66825" lon="1.73246">
        <ele>145.39999389648</ele>
        <time>2014-08-02T11:02:27.000Z</time>
      </trkpt>
      <trkpt lat="48.66831" lon="1.73254">
        <ele>145.60000610352</ele>
        <time>2014-08-02T11:02:29.000Z</time>
      </trkpt>
      <trkpt lat="48.66848" lon="1.7327">
        <ele>146</ele>
        <time>2014-08-02T11:02:34.000Z</time>
      </trkpt>
      <trkpt lat="48.66851" lon="1.73271">
        <ele>146</ele>
        <time>2014-08-02T11:02:35.000Z</time>
      </trkpt>
      <trkpt lat="48.66867" lon="1.73267">
        <ele>145</ele>
        <time>2014-08-02T11:02:40.000Z</time>
      </trkpt>
      <trkpt lat="48.66882" lon="1.73264">
        <ele>144.19999694824</ele>
        <time>2014-08-02T11:02:44.000Z</time>
      </trkpt>
      <trkpt lat="48.66901" lon="1.73268">
        <ele>144</ele>
        <time>2014-08-02T11:02:49.000Z</time>
      </trkpt>
      <trkpt lat="48.66918" lon="1.73281">
        <ele>144.60000610352</ele>
        <time>2014-08-02T11:02:54.000Z</time>
      </trkpt>
      <trkpt lat="48.66931" lon="1.7331">
        <ele>146.39999389648</ele>
        <time>2014-08-02T11:03:00.000Z</time>
      </trkpt>
      <trkpt lat="48.66933" lon="1.73329">
        <ele>147.60000610352</ele>
        <time>2014-08-02T11:03:04.000Z</time>
      </trkpt>
      <trkpt lat="48.66935" lon="1.73358">
        <ele>149.39999389648</ele>
        <time>2014-08-02T11:03:10.000Z</time>
      </trkpt>
      <trkpt lat="48.66939" lon="1.73375">
        <ele>150.19999694824</ele>
        <time>2014-08-02T11:03:14.000Z</time>
      </trkpt>
      <trkpt lat="48.6694" lon="1.73378">
        <ele>150.39999389648</ele>
        <time>2014-08-02T11:03:15.000Z</time>
      </trkpt>
      <trkpt lat="48.66957" lon="1.73374">
        <ele>150.19999694824</ele>
        <time>2014-08-02T11:03:19.000Z</time>
      </trkpt>
      <trkpt lat="48.6698" lon="1.73372">
        <ele>150</ele>
        <time>2014-08-02T11:03:25.000Z</time>
      </trkpt>
      <trkpt lat="48.66984" lon="1.73375">
        <ele>150.19999694824</ele>
        <time>2014-08-02T11:03:26.000Z</time>
      </trkpt>
      <trkpt lat="48.66991" lon="1.73382">
        <ele>150.60000610352</ele>
        <time>2014-08-02T11:03:28.000Z</time>
      </trkpt>
      <trkpt lat="48.67011" lon="1.73385">
        <ele>150.60000610352</ele>
        <time>2014-08-02T11:03:34.000Z</time>
      </trkpt>
      <trkpt lat="48.67026" lon="1.73367">
        <ele>149.60000610352</ele>
        <time>2014-08-02T11:03:39.000Z</time>
      </trkpt>
      <trkpt lat="48.67037" lon="1.73349">
        <ele>149.19999694824</ele>
        <time>2014-08-02T11:03:43.000Z</time>
      </trkpt>
      <trkpt lat="48.67046" lon="1.73327">
        <ele>147</ele>
        <time>2014-08-02T11:03:47.000Z</time>
      </trkpt>
      <trkpt lat="48.67054" lon="1.73315">
        <ele>146</ele>
        <time>2014-08-02T11:03:50.000Z</time>
      </trkpt>
      <trkpt lat="48.67067" lon="1.73305">
        <ele>146</ele>
        <time>2014-08-02T11:03:54.000Z</time>
      </trkpt>
      <trkpt lat="48.67079" lon="1.73305">
        <ele>146.39999389648</ele>
        <time>2014-08-02T11:03:57.000Z</time>
      </trkpt>
      <trkpt lat="48.67095" lon="1.7331">
        <ele>147.19999694824</ele>
        <time>2014-08-02T11:04:02.000Z</time>
      </trkpt>
      <trkpt lat="48.67106" lon="1.73298">
        <ele>147</ele>
        <time>2014-08-02T11:04:06.000Z</time>
      </trkpt>
      <trkpt lat="48.67108" lon="1.73295">
        <ele>147</ele>
        <time>2014-08-02T11:04:07.000Z</time>
      </trkpt>
      <trkpt lat="48.67115" lon="1.7327">
        <ele>145.80000305176</ele>
        <time>2014-08-02T11:04:12.000Z</time>
      </trkpt>
      <trkpt lat="48.67128" lon="1.73241">
        <ele>145.19999694824</ele>
        <time>2014-08-02T11:04:18.000Z</time>
      </trkpt>
      <trkpt lat="48.67137" lon="1.73223">
        <ele>145.39999389648</ele>
        <time>2014-08-02T11:04:23.000Z</time>
      </trkpt>
      <trkpt lat="48.6714" lon="1.73212">
        <ele>145.39999389648</ele>
        <time>2014-08-02T11:04:29.000Z</time>
      </trkpt>
      <trkpt lat="48.67141" lon="1.73211">
        <ele>145.39999389648</ele>
        <time>2014-08-02T11:04:32.000Z</time>
      </trkpt>
      <trkpt lat="48.6714" lon="1.73215">
        <ele>145.39999389648</ele>
        <time>2014-08-02T11:04:46.000Z</time>
      </trkpt>
      <trkpt lat="48.67134" lon="1.73231">
        <ele>145.39999389648</ele>
        <time>2014-08-02T11:04:52.000Z</time>
      </trkpt>
      <trkpt lat="48.67126" lon="1.73248">
        <ele>145.19999694824</ele>
        <time>2014-08-02T11:05:00.000Z</time>
      </trkpt>
      <trkpt lat="48.6712" lon="1.73258">
        <ele>145.19999694824</ele>
        <time>2014-08-02T11:05:06.000Z</time>
      </trkpt>
      <trkpt lat="48.67114" lon="1.73267">
        <ele>145.60000610352</ele>
        <time>2014-08-02T11:05:12.000Z</time>
      </trkpt>
      <trkpt lat="48.67105" lon="1.73284">
        <ele>146.60000610352</ele>
        <time>2014-08-02T11:05:20.000Z</time>
      </trkpt>
      <trkpt lat="48.67101" lon="1.73304">
        <ele>147.39999389648</ele>
        <time>2014-08-02T11:05:29.000Z</time>
      </trkpt>
      <trkpt lat="48.671" lon="1.73311">
        <ele>147.60000610352</ele>
        <time>2014-08-02T11:05:32.000Z</time>
      </trkpt>
      <trkpt lat="48.67102" lon="1.73322">
        <ele>148.19999694824</ele>
        <time>2014-08-02T11:05:39.000Z</time>
      </trkpt>
      <trkpt lat="48.67104" lon="1.73324">
        <ele>148.39999389648</ele>
        <time>2014-08-02T11:05:40.000Z</time>
      </trkpt>
      <trkpt lat="48.67113" lon="1.73334">
        <ele>148.80000305176</ele>
        <time>2014-08-02T11:05:48.000Z</time>
      </trkpt>
      <trkpt lat="48.67126" lon="1.73344">
        <ele>148.60000610352</ele>
        <time>2014-08-02T11:05:54.000Z</time>
      </trkpt>
      <trkpt lat="48.67141" lon="1.73353">
        <ele>148.60000610352</ele>
        <time>2014-08-02T11:05:59.000Z</time>
      </trkpt>
      <trkpt lat="48.6715" lon="1.73366">
        <ele>149</ele>
        <time>2014-08-02T11:06:03.000Z</time>
      </trkpt>
      <trkpt lat="48.67155" lon="1.7338">
        <ele>150.39999389648</ele>
        <time>2014-08-02T11:06:07.000Z</time>
      </trkpt>
      <trkpt lat="48.67169" lon="1.73413">
        <ele>153.39999389648</ele>
        <time>2014-08-02T11:06:14.000Z</time>
      </trkpt>
      <trkpt lat="48.67185" lon="1.73444">
        <ele>155</ele>
        <time>2014-08-02T11:06:21.000Z</time>
      </trkpt>
      <trkpt lat="48.67199" lon="1.7347">
        <ele>156</ele>
        <time>2014-08-02T11:06:27.000Z</time>
      </trkpt>
      <trkpt lat="48.67212" lon="1.73504">
        <ele>156.39999389648</ele>
        <time>2014-08-02T11:06:34.000Z</time>
      </trkpt>
      <trkpt lat="48.67223" lon="1.73529">
        <ele>155.60000610352</ele>
        <time>2014-08-02T11:06:39.000Z</time>
      </trkpt>
      <trkpt lat="48.6723" lon="1.73553">
        <ele>156</ele>
        <time>2014-08-02T11:06:44.000Z</time>
      </trkpt>
      <trkpt lat="48.67235" lon="1.73577">
        <ele>156.80000305176</ele>
        <time>2014-08-02T11:06:49.000Z</time>
      </trkpt>
      <trkpt lat="48.67238" lon="1.73603">
        <ele>157.39999389648</ele>
        <time>2014-08-02T11:06:54.000Z</time>
      </trkpt>
      <trkpt lat="48.6725" lon="1.73634">
        <ele>156.39999389648</ele>
        <time>2014-08-02T11:06:59.000Z</time>
      </trkpt>
      <trkpt lat="48.67255" lon="1.73653">
        <ele>155.80000305176</ele>
        <time>2014-08-02T11:07:03.000Z</time>
      </trkpt>
      <trkpt lat="48.67258" lon="1.73693">
        <ele>155.19999694824</ele>
        <time>2014-08-02T11:07:11.000Z</time>
      </trkpt>
      <trkpt lat="48.67256" lon="1.73719">
        <ele>155.60000610352</ele>
        <time>2014-08-02T11:07:16.000Z</time>
      </trkpt>
      <trkpt lat="48.67255" lon="1.73741">
        <ele>155.60000610352</ele>
        <time>2014-08-02T11:07:22.000Z</time>
      </trkpt>
      <trkpt lat="48.67258" lon="1.73754">
        <ele>154.60000610352</ele>
        <time>2014-08-02T11:07:28.000Z</time>
      </trkpt>
      <trkpt lat="48.67263" lon="1.73766">
        <ele>153.19999694824</ele>
        <time>2014-08-02T11:07:34.000Z</time>
      </trkpt>
      <trkpt lat="48.6726" lon="1.73777">
        <ele>153.39999389648</ele>
        <time>2014-08-02T11:07:39.000Z</time>
      </trkpt>
      <trkpt lat="48.67255" lon="1.73786">
        <ele>154</ele>
        <time>2014-08-02T11:07:45.000Z</time>
      </trkpt>
      <trkpt lat="48.67249" lon="1.73788">
        <ele>155</ele>
        <time>2014-08-02T11:07:50.000Z</time>
      </trkpt>
      <trkpt lat="48.6724" lon="1.7379">
        <ele>156.80000305176</ele>
        <time>2014-08-02T11:07:57.000Z</time>
      </trkpt>
      <trkpt lat="48.67233" lon="1.7379">
        <ele>158</ele>
        <time>2014-08-02T11:08:02.000Z</time>
      </trkpt>
      <trkpt lat="48.6723" lon="1.73794">
        <ele>158.39999389648</ele>
        <time>2014-08-02T11:08:04.000Z</time>
      </trkpt>
      <trkpt lat="48.67221" lon="1.73798">
        <ele>159.80000305176</ele>
        <time>2014-08-02T11:08:10.000Z</time>
      </trkpt>
      <trkpt lat="48.67215" lon="1.738">
        <ele>160.80000305176</ele>
        <time>2014-08-02T11:08:14.000Z</time>
      </trkpt>
      <trkpt lat="48.67208" lon="1.738">
        <ele>162</ele>
        <time>2014-08-02T11:08:17.000Z</time>
      </trkpt>
      <trkpt lat="48.67204" lon="1.73803">
        <ele>162.80000305176</ele>
        <time>2014-08-02T11:08:24.000Z</time>
      </trkpt>
      <trkpt lat="48.67209" lon="1.73802">
        <ele>161.80000305176</ele>
        <time>2014-08-02T11:08:32.000Z</time>
      </trkpt>
      <trkpt lat="48.67211" lon="1.73794">
        <ele>161.80000305176</ele>
        <time>2014-08-02T11:08:40.000Z</time>
      </trkpt>
      <trkpt lat="48.6721" lon="1.73784">
        <ele>162.39999389648</ele>
        <time>2014-08-02T11:08:48.000Z</time>
      </trkpt>
      <trkpt lat="48.67211" lon="1.73775">
        <ele>162.60000610352</ele>
        <time>2014-08-02T11:08:53.000Z</time>
      </trkpt>
      <trkpt lat="48.67211" lon="1.73764">
        <ele>163.39999389648</ele>
        <time>2014-08-02T11:09:00.000Z</time>
      </trkpt>
      <trkpt lat="48.67212" lon="1.73751">
        <ele>163.39999389648</ele>
        <time>2014-08-02T11:09:07.000Z</time>
      </trkpt>
      <trkpt lat="48.67215" lon="1.73742">
        <ele>163.39999389648</ele>
        <time>2014-08-02T11:09:13.000Z</time>
      </trkpt>
      <trkpt lat="48.67214" lon="1.73731">
        <ele>163.60000610352</ele>
        <time>2014-08-02T11:09:20.000Z</time>
      </trkpt>
      <trkpt lat="48.67213" lon="1.7372">
        <ele>163.80000305176</ele>
        <time>2014-08-02T11:09:26.000Z</time>
      </trkpt>
      <trkpt lat="48.67216" lon="1.73704">
        <ele>163.19999694824</ele>
        <time>2014-08-02T11:09:35.000Z</time>
      </trkpt>
      <trkpt lat="48.67221" lon="1.73691">
        <ele>162.39999389648</ele>
        <time>2014-08-02T11:09:41.000Z</time>
      </trkpt>
      <trkpt lat="48.67222" lon="1.7369">
        <ele>162.19999694824</ele>
        <time>2014-08-02T11:09:42.000Z</time>
      </trkpt>
      <trkpt lat="48.67219" lon="1.73675">
        <ele>162.60000610352</ele>
        <time>2014-08-02T11:09:49.000Z</time>
      </trkpt>
      <trkpt lat="48.67219" lon="1.73673">
        <ele>162.80000305176</ele>
        <time>2014-08-02T11:09:50.000Z</time>
      </trkpt>
      <trkpt lat="48.67212" lon="1.73659">
        <ele>164.19999694824</ele>
        <time>2014-08-02T11:09:58.000Z</time>
      </trkpt>
      <trkpt lat="48.67212" lon="1.73649">
        <ele>163.80000305176</ele>
        <time>2014-08-02T11:10:03.000Z</time>
      </trkpt>
      <trkpt lat="48.67212" lon="1.73648">
        <ele>164</ele>
        <time>2014-08-02T11:10:04.000Z</time>
      </trkpt>
      <trkpt lat="48.6721" lon="1.73647">
        <ele>164.39999389648</ele>
        <time>2014-08-02T11:10:06.000Z</time>
      </trkpt>
      <trkpt lat="48.67204" lon="1.73638">
        <ele>165.19999694824</ele>
        <time>2014-08-02T11:10:12.000Z</time>
      </trkpt>
      <trkpt lat="48.67203" lon="1.73636">
        <ele>165.19999694824</ele>
        <time>2014-08-02T11:10:13.000Z</time>
      </trkpt>
      <trkpt lat="48.67199" lon="1.73616">
        <ele>165.80000305176</ele>
        <time>2014-08-02T11:10:22.000Z</time>
      </trkpt>
      <trkpt lat="48.67196" lon="1.73604">
        <ele>165.80000305176</ele>
        <time>2014-08-02T11:10:28.000Z</time>
      </trkpt>
      <trkpt lat="48.67195" lon="1.7359">
        <ele>165.80000305176</ele>
        <time>2014-08-02T11:10:34.000Z</time>
      </trkpt>
      <trkpt lat="48.67195" lon="1.73588">
        <ele>165.80000305176</ele>
        <time>2014-08-02T11:10:35.000Z</time>
      </trkpt>
      <trkpt lat="48.67194" lon="1.73584">
        <ele>165.80000305176</ele>
        <time>2014-08-02T11:10:37.000Z</time>
      </trkpt>
      <trkpt lat="48.67192" lon="1.73577">
        <ele>166</ele>
        <time>2014-08-02T11:10:41.000Z</time>
      </trkpt>
      <trkpt lat="48.6719" lon="1.73562">
        <ele>165.39999389648</ele>
        <time>2014-08-02T11:10:48.000Z</time>
      </trkpt>
      <trkpt lat="48.6719" lon="1.73559">
        <ele>165.39999389648</ele>
        <time>2014-08-02T11:10:50.000Z</time>
      </trkpt>
      <trkpt lat="48.67187" lon="1.73549">
        <ele>165.19999694824</ele>
        <time>2014-08-02T11:10:57.000Z</time>
      </trkpt>
      <trkpt lat="48.67185" lon="1.73542">
        <ele>164.80000305176</ele>
        <time>2014-08-02T11:11:02.000Z</time>
      </trkpt>
      <trkpt lat="48.67178" lon="1.73532">
        <ele>164.60000610352</ele>
        <time>2014-08-02T11:11:09.000Z</time>
      </trkpt>
      <trkpt lat="48.67174" lon="1.7353">
        <ele>164.80000305176</ele>
        <time>2014-08-02T11:11:15.000Z</time>
      </trkpt>
      <trkpt lat="48.67173" lon="1.73525">
        <ele>164.39999389648</ele>
        <time>2014-08-02T11:11:21.000Z</time>
      </trkpt>
      <trkpt lat="48.67174" lon="1.73523">
        <ele>164.19999694824</ele>
        <time>2014-08-02T11:12:12.000Z</time>
      </trkpt>
      <trkpt lat="48.67175" lon="1.7352">
        <ele>163.80000305176</ele>
        <time>2014-08-02T11:12:24.000Z</time>
      </trkpt>
      <trkpt lat="48.67159" lon="1.73529">
        <ele>166.19999694824</ele>
        <time>2014-08-02T11:14:35.000Z</time>
      </trkpt>
      <trkpt lat="48.67156" lon="1.73529">
        <ele>166.39999389648</ele>
        <time>2014-08-02T11:14:36.000Z</time>
      </trkpt>
      <trkpt lat="48.67155" lon="1.73529">
        <ele>166.39999389648</ele>
        <time>2014-08-02T11:14:39.000Z</time>
      </trkpt>
      <trkpt lat="48.67158" lon="1.73519">
        <ele>165.39999389648</ele>
        <time>2014-08-02T11:15:15.000Z</time>
      </trkpt>
      <trkpt lat="48.67152" lon="1.7351">
        <ele>165.19999694824</ele>
        <time>2014-08-02T11:15:20.000Z</time>
      </trkpt>
      <trkpt lat="48.6715" lon="1.73509">
        <ele>165.19999694824</ele>
        <time>2014-08-02T11:15:21.000Z</time>
      </trkpt>
      <trkpt lat="48.67148" lon="1.73504">
        <ele>165</ele>
        <time>2014-08-02T11:15:24.000Z</time>
      </trkpt>
      <trkpt lat="48.67146" lon="1.73499">
        <ele>164.80000305176</ele>
        <time>2014-08-02T11:15:28.000Z</time>
      </trkpt>
      <trkpt lat="48.6714" lon="1.73491">
        <ele>164.80000305176</ele>
        <time>2014-08-02T11:15:34.000Z</time>
      </trkpt>
      <trkpt lat="48.67139" lon="1.73489">
        <ele>164.60000610352</ele>
        <time>2014-08-02T11:15:35.000Z</time>
      </trkpt>
      <trkpt lat="48.67137" lon="1.73476">
        <ele>163.80000305176</ele>
        <time>2014-08-02T11:15:42.000Z</time>
      </trkpt>
      <trkpt lat="48.67136" lon="1.73467">
        <ele>163.19999694824</ele>
        <time>2014-08-02T11:15:48.000Z</time>
      </trkpt>
      <trkpt lat="48.67136" lon="1.73466">
        <ele>163</ele>
        <time>2014-08-02T11:15:49.000Z</time>
      </trkpt>
      <trkpt lat="48.67137" lon="1.73458">
        <ele>162.19999694824</ele>
        <time>2014-08-02T11:15:53.000Z</time>
      </trkpt>
      <trkpt lat="48.67136" lon="1.73455">
        <ele>162</ele>
        <time>2014-08-02T11:15:55.000Z</time>
      </trkpt>
      <trkpt lat="48.67131" lon="1.73447">
        <ele>162</ele>
        <time>2014-08-02T11:16:01.000Z</time>
      </trkpt>
      <trkpt lat="48.67126" lon="1.73442">
        <ele>162</ele>
        <time>2014-08-02T11:16:06.000Z</time>
      </trkpt>
      <trkpt lat="48.67116" lon="1.73439">
        <ele>162.60000610352</ele>
        <time>2014-08-02T11:16:12.000Z</time>
      </trkpt>
      <trkpt lat="48.67111" lon="1.73434">
        <ele>162.80000305176</ele>
        <time>2014-08-02T11:16:17.000Z</time>
      </trkpt>
      <trkpt lat="48.67109" lon="1.73432">
        <ele>162.80000305176</ele>
        <time>2014-08-02T11:16:19.000Z</time>
      </trkpt>
      <trkpt lat="48.67102" lon="1.7343">
        <ele>163.19999694824</ele>
        <time>2014-08-02T11:16:24.000Z</time>
      </trkpt>
      <trkpt lat="48.671" lon="1.73429">
        <ele>162.80000305176</ele>
        <time>2014-08-02T11:16:26.000Z</time>
      </trkpt>
      <trkpt lat="48.67084" lon="1.73429">
        <ele>161</ele>
        <time>2014-08-02T11:16:34.000Z</time>
      </trkpt>
      <trkpt lat="48.67081" lon="1.73427">
        <ele>160.60000610352</ele>
        <time>2014-08-02T11:16:38.000Z</time>
      </trkpt>
      <trkpt lat="48.67077" lon="1.73421">
        <ele>159.60000610352</ele>
        <time>2014-08-02T11:16:42.000Z</time>
      </trkpt>
      <trkpt lat="48.6707" lon="1.73418">
        <ele>158.60000610352</ele>
        <time>2014-08-02T11:16:47.000Z</time>
      </trkpt>
      <trkpt lat="48.67067" lon="1.73419">
        <ele>158.39999389648</ele>
        <time>2014-08-02T11:16:49.000Z</time>
      </trkpt>
      <trkpt lat="48.67064" lon="1.73423">
        <ele>158.39999389648</ele>
        <time>2014-08-02T11:16:53.000Z</time>
      </trkpt>
      <trkpt lat="48.67058" lon="1.73428">
        <ele>158.19999694824</ele>
        <time>2014-08-02T11:16:59.000Z</time>
      </trkpt>
      <trkpt lat="48.67054" lon="1.73436">
        <ele>158.39999389648</ele>
        <time>2014-08-02T11:17:09.000Z</time>
      </trkpt>
      <trkpt lat="48.6705" lon="1.73448">
        <ele>159.80000305176</ele>
        <time>2014-08-02T11:17:14.000Z</time>
      </trkpt>
      <trkpt lat="48.67049" lon="1.73463">
        <ele>161.80000305176</ele>
        <time>2014-08-02T11:17:21.000Z</time>
      </trkpt>
      <trkpt lat="48.67048" lon="1.73473">
        <ele>163.19999694824</ele>
        <time>2014-08-02T11:17:26.000Z</time>
      </trkpt>
      <trkpt lat="48.67049" lon="1.73485">
        <ele>165</ele>
        <time>2014-08-02T11:17:32.000Z</time>
      </trkpt>
      <trkpt lat="48.67049" lon="1.73497">
        <ele>165.60000610352</ele>
        <time>2014-08-02T11:17:38.000Z</time>
      </trkpt>
      <trkpt lat="48.67048" lon="1.73501">
        <ele>165.60000610352</ele>
        <time>2014-08-02T11:17:40.000Z</time>
      </trkpt>
      <trkpt lat="48.67041" lon="1.73518">
        <ele>166</ele>
        <time>2014-08-02T11:17:47.000Z</time>
      </trkpt>
      <trkpt lat="48.67039" lon="1.73532">
        <ele>167</ele>
        <time>2014-08-02T11:17:53.000Z</time>
      </trkpt>
      <trkpt lat="48.67039" lon="1.73549">
        <ele>168.19999694824</ele>
        <time>2014-08-02T11:18:00.000Z</time>
      </trkpt>
      <trkpt lat="48.67032" lon="1.7356">
        <ele>169</ele>
        <time>2014-08-02T11:18:06.000Z</time>
      </trkpt>
      <trkpt lat="48.67023" lon="1.73578">
        <ele>170</ele>
        <time>2014-08-02T11:18:14.000Z</time>
      </trkpt>
      <trkpt lat="48.6702" lon="1.73586">
        <ele>170.19999694824</ele>
        <time>2014-08-02T11:18:19.000Z</time>
      </trkpt>
      <trkpt lat="48.67016" lon="1.73586">
        <ele>170</ele>
        <time>2014-08-02T11:18:23.000Z</time>
      </trkpt>
      <trkpt lat="48.6701" lon="1.73588">
        <ele>169.80000305176</ele>
        <time>2014-08-02T11:18:26.000Z</time>
      </trkpt>
      <trkpt lat="48.67" lon="1.73592">
        <ele>169.39999389648</ele>
        <time>2014-08-02T11:18:31.000Z</time>
      </trkpt>
      <trkpt lat="48.66993" lon="1.73592">
        <ele>169</ele>
        <time>2014-08-02T11:18:36.000Z</time>
      </trkpt>
      <trkpt lat="48.66987" lon="1.73596">
        <ele>168.80000305176</ele>
        <time>2014-08-02T11:18:41.000Z</time>
      </trkpt>
      <trkpt lat="48.66984" lon="1.73601">
        <ele>168.60000610352</ele>
        <time>2014-08-02T11:18:45.000Z</time>
      </trkpt>
      <trkpt lat="48.66972" lon="1.73614">
        <ele>168.60000610352</ele>
        <time>2014-08-02T11:18:51.000Z</time>
      </trkpt>
      <trkpt lat="48.6697" lon="1.73618">
        <ele>168.60000610352</ele>
        <time>2014-08-02T11:18:56.000Z</time>
      </trkpt>
      <trkpt lat="48.66964" lon="1.73623">
        <ele>168.80000305176</ele>
        <time>2014-08-02T11:19:03.000Z</time>
      </trkpt>
      <trkpt lat="48.66958" lon="1.73634">
        <ele>169.39999389648</ele>
        <time>2014-08-02T11:19:07.000Z</time>
      </trkpt>
      <trkpt lat="48.66952" lon="1.73643">
        <ele>169.60000610352</ele>
        <time>2014-08-02T11:19:13.000Z</time>
      </trkpt>
      <trkpt lat="48.66949" lon="1.73651">
        <ele>170</ele>
        <time>2014-08-02T11:19:18.000Z</time>
      </trkpt>
      <trkpt lat="48.66941" lon="1.73661">
        <ele>170.19999694824</ele>
        <time>2014-08-02T11:19:23.000Z</time>
      </trkpt>
      <trkpt lat="48.66934" lon="1.73672">
        <ele>170.39999389648</ele>
        <time>2014-08-02T11:19:28.000Z</time>
      </trkpt>
      <trkpt lat="48.66927" lon="1.73677">
        <ele>170.19999694824</ele>
        <time>2014-08-02T11:19:34.000Z</time>
      </trkpt>
      <trkpt lat="48.6692" lon="1.73682">
        <ele>170</ele>
        <time>2014-08-02T11:19:39.000Z</time>
      </trkpt>
      <trkpt lat="48.66915" lon="1.7369">
        <ele>169.80000305176</ele>
        <time>2014-08-02T11:19:45.000Z</time>
      </trkpt>
      <trkpt lat="48.66909" lon="1.73699">
        <ele>169.80000305176</ele>
        <time>2014-08-02T11:19:50.000Z</time>
      </trkpt>
      <trkpt lat="48.66905" lon="1.73705">
        <ele>169.80000305176</ele>
        <time>2014-08-02T11:19:53.000Z</time>
      </trkpt>
      <trkpt lat="48.66899" lon="1.73716">
        <ele>170</ele>
        <time>2014-08-02T11:19:58.000Z</time>
      </trkpt>
      <trkpt lat="48.66896" lon="1.73725">
        <ele>170.39999389648</ele>
        <time>2014-08-02T11:20:03.000Z</time>
      </trkpt>
      <trkpt lat="48.66892" lon="1.73736">
        <ele>170.80000305176</ele>
        <time>2014-08-02T11:20:08.000Z</time>
      </trkpt>
      <trkpt lat="48.6689" lon="1.73745">
        <ele>171.19999694824</ele>
        <time>2014-08-02T11:20:12.000Z</time>
      </trkpt>
      <trkpt lat="48.66885" lon="1.73752">
        <ele>171.39999389648</ele>
        <time>2014-08-02T11:20:17.000Z</time>
      </trkpt>
      <trkpt lat="48.66877" lon="1.7376">
        <ele>171.39999389648</ele>
        <time>2014-08-02T11:20:23.000Z</time>
      </trkpt>
      <trkpt lat="48.66871" lon="1.73768">
        <ele>172.39999389648</ele>
        <time>2014-08-02T11:20:29.000Z</time>
      </trkpt>
      <trkpt lat="48.66864" lon="1.73776">
        <ele>173.19999694824</ele>
        <time>2014-08-02T11:20:34.000Z</time>
      </trkpt>
      <trkpt lat="48.66856" lon="1.73789">
        <ele>174.80000305176</ele>
        <time>2014-08-02T11:20:38.000Z</time>
      </trkpt>
      <trkpt lat="48.66855" lon="1.73796">
        <ele>175.60000610352</ele>
        <time>2014-08-02T11:20:40.000Z</time>
      </trkpt>
      <trkpt lat="48.66863" lon="1.73813">
        <ele>176.80000305176</ele>
        <time>2014-08-02T11:20:45.000Z</time>
      </trkpt>
      <trkpt lat="48.66866" lon="1.73816">
        <ele>177</ele>
        <time>2014-08-02T11:20:46.000Z</time>
      </trkpt>
      <trkpt lat="48.66885" lon="1.73846">
        <ele>177.80000305176</ele>
        <time>2014-08-02T11:20:53.000Z</time>
      </trkpt>
      <trkpt lat="48.66897" lon="1.73868">
        <ele>178</ele>
        <time>2014-08-02T11:20:58.000Z</time>
      </trkpt>
      <trkpt lat="48.66899" lon="1.73873">
        <ele>178.19999694824</ele>
        <time>2014-08-02T11:20:59.000Z</time>
      </trkpt>
      <trkpt lat="48.66911" lon="1.739">
        <ele>178.39999389648</ele>
        <time>2014-08-02T11:21:04.000Z</time>
      </trkpt>
      <trkpt lat="48.66914" lon="1.7391">
        <ele>178.60000610352</ele>
        <time>2014-08-02T11:21:06.000Z</time>
      </trkpt>
      <trkpt lat="48.66921" lon="1.73932">
        <ele>179</ele>
        <time>2014-08-02T11:21:10.000Z</time>
      </trkpt>
      <trkpt lat="48.66922" lon="1.73945">
        <ele>179.39999389648</ele>
        <time>2014-08-02T11:21:12.000Z</time>
      </trkpt>
      <trkpt lat="48.66937" lon="1.73986">
        <ele>180</ele>
        <time>2014-08-02T11:21:19.000Z</time>
      </trkpt>
      <trkpt lat="48.66953" lon="1.73999">
        <ele>179</ele>
        <time>2014-08-02T11:21:25.000Z</time>
      </trkpt>
      <trkpt lat="48.66959" lon="1.73982">
        <ele>178.19999694824</ele>
        <time>2014-08-02T11:21:29.000Z</time>
      </trkpt>
      <trkpt lat="48.66972" lon="1.73959">
        <ele>176.80000305176</ele>
        <time>2014-08-02T11:21:33.000Z</time>
      </trkpt>
      <trkpt lat="48.6698" lon="1.73944">
        <ele>175.80000305176</ele>
        <time>2014-08-02T11:21:36.000Z</time>
      </trkpt>
      <trkpt lat="48.66995" lon="1.73919">
        <ele>175.19999694824</ele>
        <time>2014-08-02T11:21:41.000Z</time>
      </trkpt>
      <trkpt lat="48.67004" lon="1.73905">
        <ele>174.80000305176</ele>
        <time>2014-08-02T11:21:44.000Z</time>
      </trkpt>
      <trkpt lat="48.67024" lon="1.73882">
        <ele>173.60000610352</ele>
        <time>2014-08-02T11:21:50.000Z</time>
      </trkpt>
      <trkpt lat="48.67031" lon="1.73873">
        <ele>173.39999389648</ele>
        <time>2014-08-02T11:21:52.000Z</time>
      </trkpt>
      <trkpt lat="48.6704" lon="1.73859">
        <ele>173</ele>
        <time>2014-08-02T11:21:55.000Z</time>
      </trkpt>
      <trkpt lat="48.67053" lon="1.73842">
        <ele>172.60000610352</ele>
        <time>2014-08-02T11:21:59.000Z</time>
      </trkpt>
      <trkpt lat="48.67067" lon="1.7382">
        <ele>172.39999389648</ele>
        <time>2014-08-02T11:22:04.000Z</time>
      </trkpt>
      <trkpt lat="48.67084" lon="1.73795">
        <ele>172</ele>
        <time>2014-08-02T11:22:09.000Z</time>
      </trkpt>
      <trkpt lat="48.67106" lon="1.73788">
        <ele>171.39999389648</ele>
        <time>2014-08-02T11:22:14.000Z</time>
      </trkpt>
      <trkpt lat="48.6711" lon="1.73791">
        <ele>171</ele>
        <time>2014-08-02T11:22:15.000Z</time>
      </trkpt>
      <trkpt lat="48.67118" lon="1.73797">
        <ele>170.39999389648</ele>
        <time>2014-08-02T11:22:17.000Z</time>
      </trkpt>
      <trkpt lat="48.67133" lon="1.73806">
        <ele>169.19999694824</ele>
        <time>2014-08-02T11:22:22.000Z</time>
      </trkpt>
      <trkpt lat="48.67138" lon="1.7381">
        <ele>169</ele>
        <time>2014-08-02T11:22:24.000Z</time>
      </trkpt>
      <trkpt lat="48.67147" lon="1.7381">
        <ele>168.19999694824</ele>
        <time>2014-08-02T11:22:32.000Z</time>
      </trkpt>
      <trkpt lat="48.67157" lon="1.7381">
        <ele>167.39999389648</ele>
        <time>2014-08-02T11:22:38.000Z</time>
      </trkpt>
      <trkpt lat="48.67166" lon="1.73817">
        <ele>166.60000610352</ele>
        <time>2014-08-02T11:22:44.000Z</time>
      </trkpt>
      <trkpt lat="48.67174" lon="1.73821">
        <ele>166</ele>
        <time>2014-08-02T11:22:50.000Z</time>
      </trkpt>
      <trkpt lat="48.67181" lon="1.73819">
        <ele>165.39999389648</ele>
        <time>2014-08-02T11:22:57.000Z</time>
      </trkpt>
      <trkpt lat="48.67186" lon="1.73814">
        <ele>165.39999389648</ele>
        <time>2014-08-02T11:23:01.000Z</time>
      </trkpt>
      <trkpt lat="48.6719" lon="1.73807">
        <ele>165</ele>
        <time>2014-08-02T11:23:06.000Z</time>
      </trkpt>
      <trkpt lat="48.67191" lon="1.73806">
        <ele>164.80000305176</ele>
        <time>2014-08-02T11:23:07.000Z</time>
      </trkpt>
      <trkpt lat="48.67198" lon="1.73803">
        <ele>163.80000305176</ele>
        <time>2014-08-02T11:23:11.000Z</time>
      </trkpt>
      <trkpt lat="48.67205" lon="1.73797">
        <ele>162.60000610352</ele>
        <time>2014-08-02T11:23:16.000Z</time>
      </trkpt>
      <trkpt lat="48.67212" lon="1.73789">
        <ele>162</ele>
        <time>2014-08-02T11:23:22.000Z</time>
      </trkpt>
      <trkpt lat="48.67222" lon="1.7379">
        <ele>160</ele>
        <time>2014-08-02T11:23:27.000Z</time>
      </trkpt>
      <trkpt lat="48.67229" lon="1.73787">
        <ele>158.80000305176</ele>
        <time>2014-08-02T11:23:32.000Z</time>
      </trkpt>
      <trkpt lat="48.67231" lon="1.73787">
        <ele>158.39999389648</ele>
        <time>2014-08-02T11:23:33.000Z</time>
      </trkpt>
      <trkpt lat="48.67245" lon="1.7378">
        <ele>156.19999694824</ele>
        <time>2014-08-02T11:23:40.000Z</time>
      </trkpt>
      <trkpt lat="48.67255" lon="1.73779">
        <ele>154.39999389648</ele>
        <time>2014-08-02T11:23:46.000Z</time>
      </trkpt>
      <trkpt lat="48.67268" lon="1.73794">
        <ele>151.39999389648</ele>
        <time>2014-08-02T11:23:53.000Z</time>
      </trkpt>
      <trkpt lat="48.67278" lon="1.73808">
        <ele>150.19999694824</ele>
        <time>2014-08-02T11:23:59.000Z</time>
      </trkpt>
      <trkpt lat="48.67287" lon="1.73817">
        <ele>149.39999389648</ele>
        <time>2014-08-02T11:24:05.000Z</time>
      </trkpt>
      <trkpt lat="48.67287" lon="1.73817">
        <ele>149.39999389648</ele>
        <time>2014-08-02T11:24:10.000Z</time>
      </trkpt>
      <trkpt lat="48.67289" lon="1.73815">
        <ele>149.60000610352</ele>
        <time>2014-08-02T11:24:12.000Z</time>
      </trkpt>
      <trkpt lat="48.67292" lon="1.73793">
        <ele>150.19999694824</ele>
        <time>2014-08-02T11:24:18.000Z</time>
      </trkpt>
      <trkpt lat="48.67299" lon="1.73762">
        <ele>150.80000305176</ele>
        <time>2014-08-02T11:24:24.000Z</time>
      </trkpt>
      <trkpt lat="48.67306" lon="1.73734">
        <ele>150</ele>
        <time>2014-08-02T11:24:29.000Z</time>
      </trkpt>
      <trkpt lat="48.67312" lon="1.73708">
        <ele>149.39999389648</ele>
        <time>2014-08-02T11:24:35.000Z</time>
      </trkpt>
      <trkpt lat="48.6732" lon="1.7368">
        <ele>149</ele>
        <time>2014-08-02T11:24:41.000Z</time>
      </trkpt>
      <trkpt lat="48.67328" lon="1.73651">
        <ele>148.60000610352</ele>
        <time>2014-08-02T11:24:47.000Z</time>
      </trkpt>
      <trkpt lat="48.67331" lon="1.73618">
        <ele>148</ele>
        <time>2014-08-02T11:24:53.000Z</time>
      </trkpt>
      <trkpt lat="48.6734" lon="1.73595">
        <ele>149</ele>
        <time>2014-08-02T11:24:58.000Z</time>
      </trkpt>
      <trkpt lat="48.67349" lon="1.73586">
        <ele>149.39999389648</ele>
        <time>2014-08-02T11:25:02.000Z</time>
      </trkpt>
      <trkpt lat="48.67355" lon="1.73569">
        <ele>150.39999389648</ele>
        <time>2014-08-02T11:25:07.000Z</time>
      </trkpt>
      <trkpt lat="48.67363" lon="1.73562">
        <ele>152.39999389648</ele>
        <time>2014-08-02T11:25:11.000Z</time>
      </trkpt>
      <trkpt lat="48.6738" lon="1.73555">
        <ele>155.39999389648</ele>
        <time>2014-08-02T11:25:17.000Z</time>
      </trkpt>
      <trkpt lat="48.67387" lon="1.73552">
        <ele>156.80000305176</ele>
        <time>2014-08-02T11:25:22.000Z</time>
      </trkpt>
      <trkpt lat="48.67393" lon="1.73544">
        <ele>158.39999389648</ele>
        <time>2014-08-02T11:25:28.000Z</time>
      </trkpt>
      <trkpt lat="48.67396" lon="1.73539">
        <ele>159.19999694824</ele>
        <time>2014-08-02T11:25:31.000Z</time>
      </trkpt>
      <trkpt lat="48.67398" lon="1.73533">
        <ele>160</ele>
        <time>2014-08-02T11:25:34.000Z</time>
      </trkpt>
      <trkpt lat="48.67398" lon="1.73528">
        <ele>160.60000610352</ele>
        <time>2014-08-02T11:25:37.000Z</time>
      </trkpt>
      <trkpt lat="48.67399" lon="1.73523">
        <ele>161.19999694824</ele>
        <time>2014-08-02T11:25:40.000Z</time>
      </trkpt>
      <trkpt lat="48.67395" lon="1.73515">
        <ele>161.19999694824</ele>
        <time>2014-08-02T11:25:47.000Z</time>
      </trkpt>
      <trkpt lat="48.67388" lon="1.73516">
        <ele>160.19999694824</ele>
        <time>2014-08-02T11:25:54.000Z</time>
      </trkpt>
      <trkpt lat="48.67382" lon="1.73513">
        <ele>159.80000305176</ele>
        <time>2014-08-02T11:25:59.000Z</time>
      </trkpt>
      <trkpt lat="48.67376" lon="1.73501">
        <ele>159.80000305176</ele>
        <time>2014-08-02T11:26:06.000Z</time>
      </trkpt>
      <trkpt lat="48.6737" lon="1.73494">
        <ele>159.60000610352</ele>
        <time>2014-08-02T11:26:12.000Z</time>
      </trkpt>
      <trkpt lat="48.67362" lon="1.73489">
        <ele>159</ele>
        <time>2014-08-02T11:26:18.000Z</time>
      </trkpt>
      <trkpt lat="48.67357" lon="1.73481">
        <ele>158.80000305176</ele>
        <time>2014-08-02T11:26:24.000Z</time>
      </trkpt>
      <trkpt lat="48.67356" lon="1.73477">
        <ele>158.60000610352</ele>
        <time>2014-08-02T11:26:26.000Z</time>
      </trkpt>
      <trkpt lat="48.67356" lon="1.73472">
        <ele>158.80000305176</ele>
        <time>2014-08-02T11:26:28.000Z</time>
      </trkpt>
      <trkpt lat="48.67353" lon="1.73462">
        <ele>158.60000610352</ele>
        <time>2014-08-02T11:26:32.000Z</time>
      </trkpt>
      <trkpt lat="48.67354" lon="1.73444">
        <ele>159.19999694824</ele>
        <time>2014-08-02T11:26:39.000Z</time>
      </trkpt>
      <trkpt lat="48.67356" lon="1.73439">
        <ele>159.60000610352</ele>
        <time>2014-08-02T11:26:42.000Z</time>
      </trkpt>
      <trkpt lat="48.67364" lon="1.73428">
        <ele>160.80000305176</ele>
        <time>2014-08-02T11:26:50.000Z</time>
      </trkpt>
      <trkpt lat="48.67365" lon="1.73426">
        <ele>161.19999694824</ele>
        <time>2014-08-02T11:26:52.000Z</time>
      </trkpt>
      <trkpt lat="48.67364" lon="1.7341">
        <ele>161.39999389648</ele>
        <time>2014-08-02T11:26:59.000Z</time>
      </trkpt>
      <trkpt lat="48.67364" lon="1.73407">
        <ele>161.39999389648</ele>
        <time>2014-08-02T11:27:00.000Z</time>
      </trkpt>
      <trkpt lat="48.67364" lon="1.73401">
        <ele>161.60000610352</ele>
        <time>2014-08-02T11:27:02.000Z</time>
      </trkpt>
      <trkpt lat="48.67366" lon="1.73397">
        <ele>162</ele>
        <time>2014-08-02T11:27:04.000Z</time>
      </trkpt>
      <trkpt lat="48.6737" lon="1.73391">
        <ele>162.60000610352</ele>
        <time>2014-08-02T11:27:07.000Z</time>
      </trkpt>
      <trkpt lat="48.6738" lon="1.73385">
        <ele>164.19999694824</ele>
        <time>2014-08-02T11:27:13.000Z</time>
      </trkpt>
      <trkpt lat="48.67384" lon="1.73384">
        <ele>164.60000610352</ele>
        <time>2014-08-02T11:27:15.000Z</time>
      </trkpt>
      <trkpt lat="48.67394" lon="1.73385">
        <ele>166.19999694824</ele>
        <time>2014-08-02T11:27:20.000Z</time>
      </trkpt>
      <trkpt lat="48.674" lon="1.73377">
        <ele>167.19999694824</ele>
        <time>2014-08-02T11:27:26.000Z</time>
      </trkpt>
      <trkpt lat="48.67412" lon="1.73369">
        <ele>168.39999389648</ele>
        <time>2014-08-02T11:27:34.000Z</time>
      </trkpt>
      <trkpt lat="48.67418" lon="1.73365">
        <ele>169.19999694824</ele>
        <time>2014-08-02T11:27:39.000Z</time>
      </trkpt>
      <trkpt lat="48.67423" lon="1.7336">
        <ele>169.60000610352</ele>
        <time>2014-08-02T11:27:43.000Z</time>
      </trkpt>
      <trkpt lat="48.6743" lon="1.73354">
        <ele>170.19999694824</ele>
        <time>2014-08-02T11:27:49.000Z</time>
      </trkpt>
      <trkpt lat="48.67438" lon="1.7334">
        <ele>170.39999389648</ele>
        <time>2014-08-02T11:27:56.000Z</time>
      </trkpt>
      <trkpt lat="48.67451" lon="1.7333">
        <ele>170.19999694824</ele>
        <time>2014-08-02T11:28:04.000Z</time>
      </trkpt>
      <trkpt lat="48.67455" lon="1.73323">
        <ele>170.39999389648</ele>
        <time>2014-08-02T11:28:07.000Z</time>
      </trkpt>
      <trkpt lat="48.67459" lon="1.73314">
        <ele>170.19999694824</ele>
        <time>2014-08-02T11:28:12.000Z</time>
      </trkpt>
      <trkpt lat="48.67462" lon="1.73309">
        <ele>170.19999694824</ele>
        <time>2014-08-02T11:28:15.000Z</time>
      </trkpt>
      <trkpt lat="48.67467" lon="1.73297">
        <ele>169.80000305176</ele>
        <time>2014-08-02T11:28:21.000Z</time>
      </trkpt>
      <trkpt lat="48.67471" lon="1.73281">
        <ele>169.39999389648</ele>
        <time>2014-08-02T11:28:28.000Z</time>
      </trkpt>
      <trkpt lat="48.67476" lon="1.73274">
        <ele>169.19999694824</ele>
        <time>2014-08-02T11:28:32.000Z</time>
      </trkpt>
      <trkpt lat="48.67479" lon="1.73262">
        <ele>169</ele>
        <time>2014-08-02T11:28:38.000Z</time>
      </trkpt>
      <trkpt lat="48.67481" lon="1.73253">
        <ele>168.60000610352</ele>
        <time>2014-08-02T11:28:43.000Z</time>
      </trkpt>
      <trkpt lat="48.67483" lon="1.73245">
        <ele>168.39999389648</ele>
        <time>2014-08-02T11:28:48.000Z</time>
      </trkpt>
      <trkpt lat="48.67484" lon="1.7324">
        <ele>168.19999694824</ele>
        <time>2014-08-02T11:28:50.000Z</time>
      </trkpt>
      <trkpt lat="48.67488" lon="1.73233">
        <ele>168.39999389648</ele>
        <time>2014-08-02T11:28:54.000Z</time>
      </trkpt>
      <trkpt lat="48.675" lon="1.73228">
        <ele>168.80000305176</ele>
        <time>2014-08-02T11:29:01.000Z</time>
      </trkpt>
      <trkpt lat="48.67512" lon="1.73237">
        <ele>168.80000305176</ele>
        <time>2014-08-02T11:29:07.000Z</time>
      </trkpt>
      <trkpt lat="48.67518" lon="1.73244">
        <ele>169.19999694824</ele>
        <time>2014-08-02T11:29:12.000Z</time>
      </trkpt>
      <trkpt lat="48.67519" lon="1.73246">
        <ele>169.19999694824</ele>
        <time>2014-08-02T11:29:13.000Z</time>
      </trkpt>
      <trkpt lat="48.67528" lon="1.73256">
        <ele>169.80000305176</ele>
        <time>2014-08-02T11:29:20.000Z</time>
      </trkpt>
      <trkpt lat="48.67537" lon="1.73266">
        <ele>170.19999694824</ele>
        <time>2014-08-02T11:29:25.000Z</time>
      </trkpt>
      <trkpt lat="48.67545" lon="1.73278">
        <ele>170.80000305176</ele>
        <time>2014-08-02T11:29:30.000Z</time>
      </trkpt>
      <trkpt lat="48.67554" lon="1.73289">
        <ele>171.19999694824</ele>
        <time>2014-08-02T11:29:36.000Z</time>
      </trkpt>
      <trkpt lat="48.67559" lon="1.733">
        <ele>171.80000305176</ele>
        <time>2014-08-02T11:29:42.000Z</time>
      </trkpt>
      <trkpt lat="48.67566" lon="1.73307">
        <ele>172</ele>
        <time>2014-08-02T11:29:47.000Z</time>
      </trkpt>
      <trkpt lat="48.67575" lon="1.73311">
        <ele>172.39999389648</ele>
        <time>2014-08-02T11:29:53.000Z</time>
      </trkpt>
      <trkpt lat="48.67588" lon="1.73315">
        <ele>172.60000610352</ele>
        <time>2014-08-02T11:30:02.000Z</time>
      </trkpt>
      <trkpt lat="48.67598" lon="1.73317">
        <ele>172.80000305176</ele>
        <time>2014-08-02T11:30:09.000Z</time>
      </trkpt>
      <trkpt lat="48.67608" lon="1.73318">
        <ele>173</ele>
        <time>2014-08-02T11:30:16.000Z</time>
      </trkpt>
      <trkpt lat="48.67614" lon="1.73315">
        <ele>173.19999694824</ele>
        <time>2014-08-02T11:30:22.000Z</time>
      </trkpt>
      <trkpt lat="48.67626" lon="1.73316">
        <ele>173.39999389648</ele>
        <time>2014-08-02T11:30:29.000Z</time>
      </trkpt>
      <trkpt lat="48.67639" lon="1.73319">
        <ele>173.80000305176</ele>
        <time>2014-08-02T11:30:36.000Z</time>
      </trkpt>
      <trkpt lat="48.67649" lon="1.73321">
        <ele>174</ele>
        <time>2014-08-02T11:30:41.000Z</time>
      </trkpt>
      <trkpt lat="48.67657" lon="1.73324">
        <ele>174.39999389648</ele>
        <time>2014-08-02T11:30:47.000Z</time>
      </trkpt>
      <trkpt lat="48.67667" lon="1.73324">
        <ele>174.60000610352</ele>
        <time>2014-08-02T11:30:54.000Z</time>
      </trkpt>
      <trkpt lat="48.67678" lon="1.73324">
        <ele>175</ele>
        <time>2014-08-02T11:31:00.000Z</time>
      </trkpt>
      <trkpt lat="48.67688" lon="1.73327">
        <ele>175.39999389648</ele>
        <time>2014-08-02T11:31:06.000Z</time>
      </trkpt>
      <trkpt lat="48.67699" lon="1.73331">
        <ele>176</ele>
        <time>2014-08-02T11:31:12.000Z</time>
      </trkpt>
      <trkpt lat="48.67707" lon="1.73335">
        <ele>176.39999389648</ele>
        <time>2014-08-02T11:31:18.000Z</time>
      </trkpt>
      <trkpt lat="48.67714" lon="1.73337">
        <ele>176.80000305176</ele>
        <time>2014-08-02T11:31:23.000Z</time>
      </trkpt>
      <trkpt lat="48.67725" lon="1.73336">
        <ele>177.19999694824</ele>
        <time>2014-08-02T11:31:30.000Z</time>
      </trkpt>
      <trkpt lat="48.67738" lon="1.73347">
        <ele>178.19999694824</ele>
        <time>2014-08-02T11:31:37.000Z</time>
      </trkpt>
      <trkpt lat="48.67745" lon="1.73354">
        <ele>178.80000305176</ele>
        <time>2014-08-02T11:31:42.000Z</time>
      </trkpt>
      <trkpt lat="48.67753" lon="1.73361">
        <ele>179.39999389648</ele>
        <time>2014-08-02T11:31:47.000Z</time>
      </trkpt>
      <trkpt lat="48.6776" lon="1.73368">
        <ele>180</ele>
        <time>2014-08-02T11:31:51.000Z</time>
      </trkpt>
      <trkpt lat="48.67767" lon="1.73372">
        <ele>180.39999389648</ele>
        <time>2014-08-02T11:31:55.000Z</time>
      </trkpt>
      <trkpt lat="48.67771" lon="1.73381">
        <ele>180.80000305176</ele>
        <time>2014-08-02T11:32:00.000Z</time>
      </trkpt>
      <trkpt lat="48.67779" lon="1.73388">
        <ele>180.80000305176</ele>
        <time>2014-08-02T11:32:06.000Z</time>
      </trkpt>
      <trkpt lat="48.67787" lon="1.73393">
        <ele>180.80000305176</ele>
        <time>2014-08-02T11:32:11.000Z</time>
      </trkpt>
      <trkpt lat="48.67799" lon="1.734">
        <ele>180.80000305176</ele>
        <time>2014-08-02T11:32:17.000Z</time>
      </trkpt>
      <trkpt lat="48.67806" lon="1.73404">
        <ele>180.60000610352</ele>
        <time>2014-08-02T11:32:21.000Z</time>
      </trkpt>
      <trkpt lat="48.67812" lon="1.73415">
        <ele>180.80000305176</ele>
        <time>2014-08-02T11:32:26.000Z</time>
      </trkpt>
      <trkpt lat="48.67819" lon="1.7342">
        <ele>180.60000610352</ele>
        <time>2014-08-02T11:32:31.000Z</time>
      </trkpt>
      <trkpt lat="48.67822" lon="1.7342">
        <ele>180.60000610352</ele>
        <time>2014-08-02T11:32:32.000Z</time>
      </trkpt>
      <trkpt lat="48.67827" lon="1.73422">
        <ele>180.39999389648</ele>
        <time>2014-08-02T11:32:35.000Z</time>
      </trkpt>
      <trkpt lat="48.67836" lon="1.73429">
        <ele>180.19999694824</ele>
        <time>2014-08-02T11:32:40.000Z</time>
      </trkpt>
      <trkpt lat="48.67843" lon="1.73437">
        <ele>180.19999694824</ele>
        <time>2014-08-02T11:32:45.000Z</time>
      </trkpt>
      <trkpt lat="48.67851" lon="1.73448">
        <ele>180.19999694824</ele>
        <time>2014-08-02T11:32:52.000Z</time>
      </trkpt>
      <trkpt lat="48.6786" lon="1.73454">
        <ele>180</ele>
        <time>2014-08-02T11:32:58.000Z</time>
      </trkpt>
      <trkpt lat="48.6787" lon="1.73461">
        <ele>179.80000305176</ele>
        <time>2014-08-02T11:33:04.000Z</time>
      </trkpt>
      <trkpt lat="48.67878" lon="1.73467">
        <ele>179.60000610352</ele>
        <time>2014-08-02T11:33:08.000Z</time>
      </trkpt>
      <trkpt lat="48.67887" lon="1.73479">
        <ele>179.60000610352</ele>
        <time>2014-08-02T11:33:14.000Z</time>
      </trkpt>
      <trkpt lat="48.67901" lon="1.73496">
        <ele>179.39999389648</ele>
        <time>2014-08-02T11:33:21.000Z</time>
      </trkpt>
      <trkpt lat="48.67906" lon="1.73507">
        <ele>179.39999389648</ele>
        <time>2014-08-02T11:33:27.000Z</time>
      </trkpt>
      <trkpt lat="48.67915" lon="1.73513">
        <ele>179</ele>
        <time>2014-08-02T11:33:32.000Z</time>
      </trkpt>
      <trkpt lat="48.67917" lon="1.73518">
        <ele>179</ele>
        <time>2014-08-02T11:33:35.000Z</time>
      </trkpt>
      <trkpt lat="48.67927" lon="1.73531">
        <ele>178.80000305176</ele>
        <time>2014-08-02T11:33:42.000Z</time>
      </trkpt>
      <trkpt lat="48.67939" lon="1.73545">
        <ele>178.60000610352</ele>
        <time>2014-08-02T11:33:48.000Z</time>
      </trkpt>
      <trkpt lat="48.67949" lon="1.73558">
        <ele>178.60000610352</ele>
        <time>2014-08-02T11:33:55.000Z</time>
      </trkpt>
      <trkpt lat="48.6795" lon="1.73566">
        <ele>178.60000610352</ele>
        <time>2014-08-02T11:34:01.000Z</time>
      </trkpt>
      <trkpt lat="48.67954" lon="1.7358">
        <ele>178.60000610352</ele>
        <time>2014-08-02T11:34:07.000Z</time>
      </trkpt>
      <trkpt lat="48.67954" lon="1.73582">
        <ele>178.60000610352</ele>
        <time>2014-08-02T11:34:08.000Z</time>
      </trkpt>
      <trkpt lat="48.67968" lon="1.73596">
        <ele>178.19999694824</ele>
        <time>2014-08-02T11:34:18.000Z</time>
      </trkpt>
      <trkpt lat="48.67976" lon="1.73612">
        <ele>178</ele>
        <time>2014-08-02T11:34:26.000Z</time>
      </trkpt>
      <trkpt lat="48.67986" lon="1.73627">
        <ele>177.80000305176</ele>
        <time>2014-08-02T11:34:33.000Z</time>
      </trkpt>
      <trkpt lat="48.67995" lon="1.73637">
        <ele>177.60000610352</ele>
        <time>2014-08-02T11:34:38.000Z</time>
      </trkpt>
      <trkpt lat="48.68004" lon="1.73647">
        <ele>177.39999389648</ele>
        <time>2014-08-02T11:34:44.000Z</time>
      </trkpt>
      <trkpt lat="48.68011" lon="1.73657">
        <ele>177.39999389648</ele>
        <time>2014-08-02T11:34:50.000Z</time>
      </trkpt>
      <trkpt lat="48.68012" lon="1.73658">
        <ele>177.19999694824</ele>
        <time>2014-08-02T11:34:51.000Z</time>
      </trkpt>
      <trkpt lat="48.68022" lon="1.7367">
        <ele>176.80000305176</ele>
        <time>2014-08-02T11:34:58.000Z</time>
      </trkpt>
      <trkpt lat="48.68025" lon="1.73675">
        <ele>176.60000610352</ele>
        <time>2014-08-02T11:35:01.000Z</time>
      </trkpt>
      <trkpt lat="48.68031" lon="1.73685">
        <ele>176.39999389648</ele>
        <time>2014-08-02T11:35:07.000Z</time>
      </trkpt>
      <trkpt lat="48.68032" lon="1.73686">
        <ele>176.19999694824</ele>
        <time>2014-08-02T11:35:08.000Z</time>
      </trkpt>
      <trkpt lat="48.68038" lon="1.73693">
        <ele>175.80000305176</ele>
        <time>2014-08-02T11:35:14.000Z</time>
      </trkpt>
      <trkpt lat="48.68047" lon="1.73704">
        <ele>175.39999389648</ele>
        <time>2014-08-02T11:35:20.000Z</time>
      </trkpt>
      <trkpt lat="48.68052" lon="1.73715">
        <ele>175</ele>
        <time>2014-08-02T11:35:25.000Z</time>
      </trkpt>
      <trkpt lat="48.6806" lon="1.73729">
        <ele>174.60000610352</ele>
        <time>2014-08-02T11:35:32.000Z</time>
      </trkpt>
      <trkpt lat="48.68061" lon="1.73731">
        <ele>174.39999389648</ele>
        <time>2014-08-02T11:35:34.000Z</time>
      </trkpt>
      <trkpt lat="48.68067" lon="1.73737">
        <ele>174.19999694824</ele>
        <time>2014-08-02T11:35:39.000Z</time>
      </trkpt>
      <trkpt lat="48.68072" lon="1.73748">
        <ele>173.80000305176</ele>
        <time>2014-08-02T11:35:45.000Z</time>
      </trkpt>
      <trkpt lat="48.68074" lon="1.73752">
        <ele>173.60000610352</ele>
        <time>2014-08-02T11:35:47.000Z</time>
      </trkpt>
      <trkpt lat="48.68082" lon="1.73763">
        <ele>173</ele>
        <time>2014-08-02T11:35:53.000Z</time>
      </trkpt>
      <trkpt lat="48.68083" lon="1.73764">
        <ele>172.80000305176</ele>
        <time>2014-08-02T11:35:54.000Z</time>
      </trkpt>
      <trkpt lat="48.68087" lon="1.73768">
        <ele>172.60000610352</ele>
        <time>2014-08-02T11:35:57.000Z</time>
      </trkpt>
      <trkpt lat="48.68096" lon="1.73782">
        <ele>171.80000305176</ele>
        <time>2014-08-02T11:36:03.000Z</time>
      </trkpt>
      <trkpt lat="48.68098" lon="1.73784">
        <ele>171.80000305176</ele>
        <time>2014-08-02T11:36:04.000Z</time>
      </trkpt>
      <trkpt lat="48.68106" lon="1.73799">
        <ele>171.19999694824</ele>
        <time>2014-08-02T11:36:11.000Z</time>
      </trkpt>
      <trkpt lat="48.68113" lon="1.73804">
        <ele>171</ele>
        <time>2014-08-02T11:36:15.000Z</time>
      </trkpt>
      <trkpt lat="48.6812" lon="1.73813">
        <ele>170.60000610352</ele>
        <time>2014-08-02T11:36:21.000Z</time>
      </trkpt>
      <trkpt lat="48.68128" lon="1.73827">
        <ele>170.19999694824</ele>
        <time>2014-08-02T11:36:26.000Z</time>
      </trkpt>
      <trkpt lat="48.68133" lon="1.73837">
        <ele>169.80000305176</ele>
        <time>2014-08-02T11:36:31.000Z</time>
      </trkpt>
      <trkpt lat="48.68138" lon="1.73845">
        <ele>169.60000610352</ele>
        <time>2014-08-02T11:36:35.000Z</time>
      </trkpt>
      <trkpt lat="48.6815" lon="1.7386">
        <ele>169</ele>
        <time>2014-08-02T11:36:43.000Z</time>
      </trkpt>
      <trkpt lat="48.68153" lon="1.73866">
        <ele>168.80000305176</ele>
        <time>2014-08-02T11:36:46.000Z</time>
      </trkpt>
      <trkpt lat="48.68162" lon="1.73876">
        <ele>168.19999694824</ele>
        <time>2014-08-02T11:36:51.000Z</time>
      </trkpt>
      <trkpt lat="48.68173" lon="1.73887">
        <ele>167.80000305176</ele>
        <time>2014-08-02T11:36:58.000Z</time>
      </trkpt>
      <trkpt lat="48.68178" lon="1.73895">
        <ele>167.39999389648</ele>
        <time>2014-08-02T11:37:04.000Z</time>
      </trkpt>
      <trkpt lat="48.68179" lon="1.73897">
        <ele>167.39999389648</ele>
        <time>2014-08-02T11:37:05.000Z</time>
      </trkpt>
      <trkpt lat="48.68187" lon="1.73905">
        <ele>167</ele>
        <time>2014-08-02T11:37:12.000Z</time>
      </trkpt>
      <trkpt lat="48.68191" lon="1.73911">
        <ele>166.80000305176</ele>
        <time>2014-08-02T11:37:15.000Z</time>
      </trkpt>
      <trkpt lat="48.68199" lon="1.73917">
        <ele>166.80000305176</ele>
        <time>2014-08-02T11:37:20.000Z</time>
      </trkpt>
      <trkpt lat="48.68205" lon="1.73928">
        <ele>166.60000610352</ele>
        <time>2014-08-02T11:37:27.000Z</time>
      </trkpt>
      <trkpt lat="48.68212" lon="1.7394">
        <ele>166.39999389648</ele>
        <time>2014-08-02T11:37:33.000Z</time>
      </trkpt>
      <trkpt lat="48.68215" lon="1.73943">
        <ele>166.39999389648</ele>
        <time>2014-08-02T11:37:36.000Z</time>
      </trkpt>
      <trkpt lat="48.68222" lon="1.73949">
        <ele>166.19999694824</ele>
        <time>2014-08-02T11:37:42.000Z</time>
      </trkpt>
      <trkpt lat="48.68223" lon="1.73953">
        <ele>166.19999694824</ele>
        <time>2014-08-02T11:37:43.000Z</time>
      </trkpt>
      <trkpt lat="48.68223" lon="1.73961">
        <ele>166.19999694824</ele>
        <time>2014-08-02T11:37:46.000Z</time>
      </trkpt>
      <trkpt lat="48.68235" lon="1.73967">
        <ele>165.80000305176</ele>
        <time>2014-08-02T11:37:52.000Z</time>
      </trkpt>
      <trkpt lat="48.68242" lon="1.73969">
        <ele>165.60000610352</ele>
        <time>2014-08-02T11:37:56.000Z</time>
      </trkpt>
      <trkpt lat="48.68245" lon="1.73972">
        <ele>165.60000610352</ele>
        <time>2014-08-02T11:37:59.000Z</time>
      </trkpt>
      <trkpt lat="48.68253" lon="1.73977">
        <ele>165.39999389648</ele>
        <time>2014-08-02T11:38:04.000Z</time>
      </trkpt>
      <trkpt lat="48.68265" lon="1.73979">
        <ele>165.19999694824</ele>
        <time>2014-08-02T11:38:11.000Z</time>
      </trkpt>
      <trkpt lat="48.68278" lon="1.73987">
        <ele>165</ele>
        <time>2014-08-02T11:38:18.000Z</time>
      </trkpt>
      <trkpt lat="48.68287" lon="1.73991">
        <ele>164.80000305176</ele>
        <time>2014-08-02T11:38:22.000Z</time>
      </trkpt>
      <trkpt lat="48.68298" lon="1.73993">
        <ele>164.60000610352</ele>
        <time>2014-08-02T11:38:27.000Z</time>
      </trkpt>
      <trkpt lat="48.68305" lon="1.73998">
        <ele>164.39999389648</ele>
        <time>2014-08-02T11:38:31.000Z</time>
      </trkpt>
      <trkpt lat="48.68314" lon="1.74007">
        <ele>164</ele>
        <time>2014-08-02T11:38:38.000Z</time>
      </trkpt>
      <trkpt lat="48.68322" lon="1.74006">
        <ele>164</ele>
        <time>2014-08-02T11:38:41.000Z</time>
      </trkpt>
      <trkpt lat="48.68329" lon="1.74008">
        <ele>163.80000305176</ele>
        <time>2014-08-02T11:38:45.000Z</time>
      </trkpt>
      <trkpt lat="48.68337" lon="1.74009">
        <ele>163.60000610352</ele>
        <time>2014-08-02T11:38:51.000Z</time>
      </trkpt>
      <trkpt lat="48.68345" lon="1.74014">
        <ele>163.39999389648</ele>
        <time>2014-08-02T11:38:56.000Z</time>
      </trkpt>
      <trkpt lat="48.68352" lon="1.74022">
        <ele>163.19999694824</ele>
        <time>2014-08-02T11:39:02.000Z</time>
      </trkpt>
      <trkpt lat="48.68361" lon="1.7403">
        <ele>163</ele>
        <time>2014-08-02T11:39:08.000Z</time>
      </trkpt>
      <trkpt lat="48.68364" lon="1.74033">
        <ele>162.80000305176</ele>
        <time>2014-08-02T11:39:12.000Z</time>
      </trkpt>
      <trkpt lat="48.6837" lon="1.74036">
        <ele>162.80000305176</ele>
        <time>2014-08-02T11:39:18.000Z</time>
      </trkpt>
      <trkpt lat="48.68381" lon="1.74043">
        <ele>162.60000610352</ele>
        <time>2014-08-02T11:39:23.000Z</time>
      </trkpt>
      <trkpt lat="48.68393" lon="1.74051">
        <ele>162.39999389648</ele>
        <time>2014-08-02T11:39:29.000Z</time>
      </trkpt>
      <trkpt lat="48.68406" lon="1.74054">
        <ele>162.39999389648</ele>
        <time>2014-08-02T11:39:35.000Z</time>
      </trkpt>
      <trkpt lat="48.68411" lon="1.74057">
        <ele>162.39999389648</ele>
        <time>2014-08-02T11:39:40.000Z</time>
      </trkpt>
      <trkpt lat="48.68416" lon="1.74062">
        <ele>162.19999694824</ele>
        <time>2014-08-02T11:39:43.000Z</time>
      </trkpt>
      <trkpt lat="48.6843" lon="1.74067">
        <ele>162</ele>
        <time>2014-08-02T11:39:50.000Z</time>
      </trkpt>
      <trkpt lat="48.68432" lon="1.74067">
        <ele>162</ele>
        <time>2014-08-02T11:39:51.000Z</time>
      </trkpt>
      <trkpt lat="48.68439" lon="1.74069">
        <ele>162</ele>
        <time>2014-08-02T11:39:56.000Z</time>
      </trkpt>
      <trkpt lat="48.68445" lon="1.74072">
        <ele>161.60000610352</ele>
        <time>2014-08-02T11:40:00.000Z</time>
      </trkpt>
      <trkpt lat="48.68455" lon="1.74076">
        <ele>161</ele>
        <time>2014-08-02T11:40:06.000Z</time>
      </trkpt>
      <trkpt lat="48.68464" lon="1.74077">
        <ele>160.60000610352</ele>
        <time>2014-08-02T11:40:10.000Z</time>
      </trkpt>
      <trkpt lat="48.68472" lon="1.74084">
        <ele>160.19999694824</ele>
        <time>2014-08-02T11:40:16.000Z</time>
      </trkpt>
      <trkpt lat="48.68479" lon="1.74091">
        <ele>160</ele>
        <time>2014-08-02T11:40:21.000Z</time>
      </trkpt>
      <trkpt lat="48.68488" lon="1.74099">
        <ele>159.60000610352</ele>
        <time>2014-08-02T11:40:29.000Z</time>
      </trkpt>
      <trkpt lat="48.6849" lon="1.74102">
        <ele>159.39999389648</ele>
        <time>2014-08-02T11:40:31.000Z</time>
      </trkpt>
      <trkpt lat="48.68494" lon="1.74105">
        <ele>159.19999694824</ele>
        <time>2014-08-02T11:40:35.000Z</time>
      </trkpt>
      <trkpt lat="48.68501" lon="1.74106">
        <ele>159</ele>
        <time>2014-08-02T11:40:40.000Z</time>
      </trkpt>
      <trkpt lat="48.68503" lon="1.74106">
        <ele>158.80000305176</ele>
        <time>2014-08-02T11:40:41.000Z</time>
      </trkpt>
      <trkpt lat="48.68512" lon="1.74106">
        <ele>158.39999389648</ele>
        <time>2014-08-02T11:40:45.000Z</time>
      </trkpt>
      <trkpt lat="48.68528" lon="1.74115">
        <ele>158.39999389648</ele>
        <time>2014-08-02T11:40:50.000Z</time>
      </trkpt>
      <trkpt lat="48.68549" lon="1.7413">
        <ele>159</ele>
        <time>2014-08-02T11:40:56.000Z</time>
      </trkpt>
      <trkpt lat="48.68562" lon="1.74133">
        <ele>159.60000610352</ele>
        <time>2014-08-02T11:41:01.000Z</time>
      </trkpt>
      <trkpt lat="48.68573" lon="1.74134">
        <ele>160</ele>
        <time>2014-08-02T11:41:06.000Z</time>
      </trkpt>
      <trkpt lat="48.68584" lon="1.7414">
        <ele>160.39999389648</ele>
        <time>2014-08-02T11:41:11.000Z</time>
      </trkpt>
      <trkpt lat="48.6859" lon="1.74144">
        <ele>160.60000610352</ele>
        <time>2014-08-02T11:41:15.000Z</time>
      </trkpt>
      <trkpt lat="48.68594" lon="1.74147">
        <ele>160.60000610352</ele>
        <time>2014-08-02T11:41:19.000Z</time>
      </trkpt>
      <trkpt lat="48.68601" lon="1.74149">
        <ele>161</ele>
        <time>2014-08-02T11:41:24.000Z</time>
      </trkpt>
      <trkpt lat="48.68607" lon="1.74151">
        <ele>161</ele>
        <time>2014-08-02T11:41:28.000Z</time>
      </trkpt>
      <trkpt lat="48.6861" lon="1.74155">
        <ele>160.80000305176</ele>
        <time>2014-08-02T11:41:31.000Z</time>
      </trkpt>
      <trkpt lat="48.68617" lon="1.74157">
        <ele>160.39999389648</ele>
        <time>2014-08-02T11:41:35.000Z</time>
      </trkpt>
      <trkpt lat="48.68623" lon="1.74162">
        <ele>160.19999694824</ele>
        <time>2014-08-02T11:41:40.000Z</time>
      </trkpt>
      <trkpt lat="48.6863" lon="1.74167">
        <ele>159.80000305176</ele>
        <time>2014-08-02T11:41:44.000Z</time>
      </trkpt>
      <trkpt lat="48.68638" lon="1.7417">
        <ele>159.60000610352</ele>
        <time>2014-08-02T11:41:49.000Z</time>
      </trkpt>
      <trkpt lat="48.68647" lon="1.74174">
        <ele>159.19999694824</ele>
        <time>2014-08-02T11:41:54.000Z</time>
      </trkpt>
      <trkpt lat="48.68659" lon="1.74177">
        <ele>158.80000305176</ele>
        <time>2014-08-02T11:42:00.000Z</time>
      </trkpt>
      <trkpt lat="48.68668" lon="1.74179">
        <ele>158.39999389648</ele>
        <time>2014-08-02T11:42:05.000Z</time>
      </trkpt>
      <trkpt lat="48.68672" lon="1.74179">
        <ele>158.19999694824</ele>
        <time>2014-08-02T11:42:07.000Z</time>
      </trkpt>
      <trkpt lat="48.68678" lon="1.74182">
        <ele>158</ele>
        <time>2014-08-02T11:42:12.000Z</time>
      </trkpt>
      <trkpt lat="48.6869" lon="1.74179">
        <ele>157.60000610352</ele>
        <time>2014-08-02T11:42:17.000Z</time>
      </trkpt>
      <trkpt lat="48.68698" lon="1.74184">
        <ele>157.60000610352</ele>
        <time>2014-08-02T11:42:23.000Z</time>
      </trkpt>
      <trkpt lat="48.68699" lon="1.74186">
        <ele>157.60000610352</ele>
        <time>2014-08-02T11:42:24.000Z</time>
      </trkpt>
      <trkpt lat="48.68713" lon="1.74186">
        <ele>157.60000610352</ele>
        <time>2014-08-02T11:42:30.000Z</time>
      </trkpt>
      <trkpt lat="48.68722" lon="1.74179">
        <ele>157.19999694824</ele>
        <time>2014-08-02T11:42:36.000Z</time>
      </trkpt>
      <trkpt lat="48.68725" lon="1.74169">
        <ele>156.60000610352</ele>
        <time>2014-08-02T11:42:42.000Z</time>
      </trkpt>
      <trkpt lat="48.68725" lon="1.74162">
        <ele>156.39999389648</ele>
        <time>2014-08-02T11:42:46.000Z</time>
      </trkpt>
      <trkpt lat="48.68734" lon="1.74145">
        <ele>156.19999694824</ele>
        <time>2014-08-02T11:42:55.000Z</time>
      </trkpt>
      <trkpt lat="48.68743" lon="1.74133">
        <ele>156.60000610352</ele>
        <time>2014-08-02T11:43:01.000Z</time>
      </trkpt>
      <trkpt lat="48.6875" lon="1.74121">
        <ele>156.80000305176</ele>
        <time>2014-08-02T11:43:08.000Z</time>
      </trkpt>
      <trkpt lat="48.68756" lon="1.74112">
        <ele>156.80000305176</ele>
        <time>2014-08-02T11:43:14.000Z</time>
      </trkpt>
      <trkpt lat="48.68764" lon="1.74096">
        <ele>157.19999694824</ele>
        <time>2014-08-02T11:43:21.000Z</time>
      </trkpt>
      <trkpt lat="48.68772" lon="1.74081">
        <ele>157.60000610352</ele>
        <time>2014-08-02T11:43:27.000Z</time>
      </trkpt>
      <trkpt lat="48.68779" lon="1.74071">
        <ele>158.19999694824</ele>
        <time>2014-08-02T11:43:33.000Z</time>
      </trkpt>
      <trkpt lat="48.68779" lon="1.74061">
        <ele>158.80000305176</ele>
        <time>2014-08-02T11:43:38.000Z</time>
      </trkpt>
      <trkpt lat="48.68791" lon="1.74051">
        <ele>159.60000610352</ele>
        <time>2014-08-02T11:43:45.000Z</time>
      </trkpt>
      <trkpt lat="48.68797" lon="1.74042">
        <ele>160.39999389648</ele>
        <time>2014-08-02T11:43:51.000Z</time>
      </trkpt>
      <trkpt lat="48.68805" lon="1.74027">
        <ele>161.60000610352</ele>
        <time>2014-08-02T11:43:57.000Z</time>
      </trkpt>
      <trkpt lat="48.68808" lon="1.74017">
        <ele>162.39999389648</ele>
        <time>2014-08-02T11:44:02.000Z</time>
      </trkpt>
      <trkpt lat="48.68817" lon="1.73996">
        <ele>164</ele>
        <time>2014-08-02T11:44:12.000Z</time>
      </trkpt>
      <trkpt lat="48.6882" lon="1.73988">
        <ele>164.60000610352</ele>
        <time>2014-08-02T11:44:17.000Z</time>
      </trkpt>
      <trkpt lat="48.68822" lon="1.73981">
        <ele>164.80000305176</ele>
        <time>2014-08-02T11:44:22.000Z</time>
      </trkpt>
      <trkpt lat="48.68827" lon="1.73977">
        <ele>165</ele>
        <time>2014-08-02T11:44:27.000Z</time>
      </trkpt>
      <trkpt lat="48.6883" lon="1.7397">
        <ele>165.39999389648</ele>
        <time>2014-08-02T11:44:30.000Z</time>
      </trkpt>
      <trkpt lat="48.68835" lon="1.73958">
        <ele>165.60000610352</ele>
        <time>2014-08-02T11:44:37.000Z</time>
      </trkpt>
      <trkpt lat="48.6884" lon="1.73946">
        <ele>166</ele>
        <time>2014-08-02T11:44:43.000Z</time>
      </trkpt>
      <trkpt lat="48.68844" lon="1.73935">
        <ele>166.19999694824</ele>
        <time>2014-08-02T11:44:48.000Z</time>
      </trkpt>
      <trkpt lat="48.68855" lon="1.73925">
        <ele>166.60000610352</ele>
        <time>2014-08-02T11:44:54.000Z</time>
      </trkpt>
      <trkpt lat="48.68858" lon="1.7392">
        <ele>166.80000305176</ele>
        <time>2014-08-02T11:44:56.000Z</time>
      </trkpt>
      <trkpt lat="48.68868" lon="1.73904">
        <ele>167.80000305176</ele>
        <time>2014-08-02T11:45:06.000Z</time>
      </trkpt>
      <trkpt lat="48.68884" lon="1.73891">
        <ele>168.80000305176</ele>
        <time>2014-08-02T11:45:13.000Z</time>
      </trkpt>
      <trkpt lat="48.68893" lon="1.73879">
        <ele>169.39999389648</ele>
        <time>2014-08-02T11:45:19.000Z</time>
      </trkpt>
      <trkpt lat="48.68896" lon="1.73869">
        <ele>169.60000610352</ele>
        <time>2014-08-02T11:45:26.000Z</time>
      </trkpt>
      <trkpt lat="48.68902" lon="1.7386">
        <ele>169.80000305176</ele>
        <time>2014-08-02T11:45:30.000Z</time>
      </trkpt>
      <trkpt lat="48.68905" lon="1.73855">
        <ele>170</ele>
        <time>2014-08-02T11:45:33.000Z</time>
      </trkpt>
      <trkpt lat="48.68906" lon="1.73847">
        <ele>169.80000305176</ele>
        <time>2014-08-02T11:45:37.000Z</time>
      </trkpt>
      <trkpt lat="48.6891" lon="1.73837">
        <ele>169.80000305176</ele>
        <time>2014-08-02T11:45:42.000Z</time>
      </trkpt>
      <trkpt lat="48.68913" lon="1.73824">
        <ele>170</ele>
        <time>2014-08-02T11:45:48.000Z</time>
      </trkpt>
      <trkpt lat="48.68913" lon="1.7382">
        <ele>169.80000305176</ele>
        <time>2014-08-02T11:45:51.000Z</time>
      </trkpt>
      <trkpt lat="48.6892" lon="1.73814">
        <ele>170.60000610352</ele>
        <time>2014-08-02T11:45:55.000Z</time>
      </trkpt>
      <trkpt lat="48.68929" lon="1.73799">
        <ele>171</ele>
        <time>2014-08-02T11:46:03.000Z</time>
      </trkpt>
      <trkpt lat="48.68935" lon="1.7379">
        <ele>171</ele>
        <time>2014-08-02T11:46:08.000Z</time>
      </trkpt>
      <trkpt lat="48.68943" lon="1.73776">
        <ele>171.19999694824</ele>
        <time>2014-08-02T11:46:16.000Z</time>
      </trkpt>
      <trkpt lat="48.68952" lon="1.73765">
        <ele>171.80000305176</ele>
        <time>2014-08-02T11:46:22.000Z</time>
      </trkpt>
      <trkpt lat="48.6896" lon="1.73754">
        <ele>172.19999694824</ele>
        <time>2014-08-02T11:46:29.000Z</time>
      </trkpt>
      <trkpt lat="48.6897" lon="1.7374">
        <ele>172.60000610352</ele>
        <time>2014-08-02T11:46:37.000Z</time>
      </trkpt>
      <trkpt lat="48.68976" lon="1.73735">
        <ele>172.80000305176</ele>
        <time>2014-08-02T11:46:41.000Z</time>
      </trkpt>
      <trkpt lat="48.68982" lon="1.73718">
        <ele>173.19999694824</ele>
        <time>2014-08-02T11:46:50.000Z</time>
      </trkpt>
      <trkpt lat="48.68989" lon="1.73702">
        <ele>173.39999389648</ele>
        <time>2014-08-02T11:46:58.000Z</time>
      </trkpt>
      <trkpt lat="48.68994" lon="1.73694">
        <ele>173.39999389648</ele>
        <time>2014-08-02T11:47:03.000Z</time>
      </trkpt>
      <trkpt lat="48.69009" lon="1.73683">
        <ele>173.39999389648</ele>
        <time>2014-08-02T11:47:10.000Z</time>
      </trkpt>
      <trkpt lat="48.69012" lon="1.73679">
        <ele>173.39999389648</ele>
        <time>2014-08-02T11:47:13.000Z</time>
      </trkpt>
      <trkpt lat="48.69016" lon="1.7367">
        <ele>173.39999389648</ele>
        <time>2014-08-02T11:47:18.000Z</time>
      </trkpt>
      <trkpt lat="48.69028" lon="1.73658">
        <ele>173.19999694824</ele>
        <time>2014-08-02T11:47:24.000Z</time>
      </trkpt>
      <trkpt lat="48.69036" lon="1.73646">
        <ele>173.19999694824</ele>
        <time>2014-08-02T11:47:30.000Z</time>
      </trkpt>
      <trkpt lat="48.69034" lon="1.73633">
        <ele>172.80000305176</ele>
        <time>2014-08-02T11:47:36.000Z</time>
      </trkpt>
      <trkpt lat="48.69041" lon="1.7362">
        <ele>172.60000610352</ele>
        <time>2014-08-02T11:47:42.000Z</time>
      </trkpt>
      <trkpt lat="48.69044" lon="1.73611">
        <ele>172.60000610352</ele>
        <time>2014-08-02T11:47:46.000Z</time>
      </trkpt>
      <trkpt lat="48.69048" lon="1.73605">
        <ele>172.60000610352</ele>
        <time>2014-08-02T11:47:49.000Z</time>
      </trkpt>
      <trkpt lat="48.6905" lon="1.73601">
        <ele>172.39999389648</ele>
        <time>2014-08-02T11:47:54.000Z</time>
      </trkpt>
      <trkpt lat="48.69057" lon="1.73616">
        <ele>173</ele>
        <time>2014-08-02T11:47:59.000Z</time>
      </trkpt>
      <trkpt lat="48.69065" lon="1.73635">
        <ele>173.60000610352</ele>
        <time>2014-08-02T11:48:05.000Z</time>
      </trkpt>
      <trkpt lat="48.69069" lon="1.73646">
        <ele>174</ele>
        <time>2014-08-02T11:48:09.000Z</time>
      </trkpt>
      <trkpt lat="48.69076" lon="1.73665">
        <ele>174.39999389648</ele>
        <time>2014-08-02T11:48:15.000Z</time>
      </trkpt>
      <trkpt lat="48.69089" lon="1.7369">
        <ele>174.60000610352</ele>
        <time>2014-08-02T11:48:23.000Z</time>
      </trkpt>
      <trkpt lat="48.69105" lon="1.73706">
        <ele>175</ele>
        <time>2014-08-02T11:48:30.000Z</time>
      </trkpt>
      <trkpt lat="48.69112" lon="1.73717">
        <ele>175.19999694824</ele>
        <time>2014-08-02T11:48:36.000Z</time>
      </trkpt>
      <trkpt lat="48.69115" lon="1.73721">
        <ele>175.19999694824</ele>
        <time>2014-08-02T11:48:38.000Z</time>
      </trkpt>
      <trkpt lat="48.6912" lon="1.7373">
        <ele>175.19999694824</ele>
        <time>2014-08-02T11:48:43.000Z</time>
      </trkpt>
      <trkpt lat="48.69132" lon="1.73741">
        <ele>175.19999694824</ele>
        <time>2014-08-02T11:48:50.000Z</time>
      </trkpt>
      <trkpt lat="48.69133" lon="1.73743">
        <ele>175</ele>
        <time>2014-08-02T11:48:51.000Z</time>
      </trkpt>
      <trkpt lat="48.69138" lon="1.73753">
        <ele>174.60000610352</ele>
        <time>2014-08-02T11:48:57.000Z</time>
      </trkpt>
      <trkpt lat="48.69144" lon="1.73763">
        <ele>174.19999694824</ele>
        <time>2014-08-02T11:49:02.000Z</time>
      </trkpt>
      <trkpt lat="48.69151" lon="1.73768">
        <ele>174.19999694824</ele>
        <time>2014-08-02T11:49:07.000Z</time>
      </trkpt>
      <trkpt lat="48.69161" lon="1.73783">
        <ele>173.39999389648</ele>
        <time>2014-08-02T11:49:15.000Z</time>
      </trkpt>
      <trkpt lat="48.69168" lon="1.73791">
        <ele>173.19999694824</ele>
        <time>2014-08-02T11:49:21.000Z</time>
      </trkpt>
      <trkpt lat="48.69178" lon="1.73802">
        <ele>172.80000305176</ele>
        <time>2014-08-02T11:49:28.000Z</time>
      </trkpt>
      <trkpt lat="48.69182" lon="1.73814">
        <ele>172.19999694824</ele>
        <time>2014-08-02T11:49:34.000Z</time>
      </trkpt>
      <trkpt lat="48.6919" lon="1.73823">
        <ele>171.60000610352</ele>
        <time>2014-08-02T11:49:40.000Z</time>
      </trkpt>
      <trkpt lat="48.69199" lon="1.73831">
        <ele>170.80000305176</ele>
        <time>2014-08-02T11:49:46.000Z</time>
      </trkpt>
      <trkpt lat="48.69207" lon="1.73843">
        <ele>169.60000610352</ele>
        <time>2014-08-02T11:49:52.000Z</time>
      </trkpt>
      <trkpt lat="48.69219" lon="1.73857">
        <ele>168.19999694824</ele>
        <time>2014-08-02T11:49:58.000Z</time>
      </trkpt>
      <trkpt lat="48.69239" lon="1.73883">
        <ele>165.60000610352</ele>
        <time>2014-08-02T11:50:05.000Z</time>
      </trkpt>
      <trkpt lat="48.69255" lon="1.73903">
        <ele>163.60000610352</ele>
        <time>2014-08-02T11:50:10.000Z</time>
      </trkpt>
      <trkpt lat="48.69266" lon="1.73917">
        <ele>163</ele>
        <time>2014-08-02T11:50:13.000Z</time>
      </trkpt>
      <trkpt lat="48.69278" lon="1.73934">
        <ele>163</ele>
        <time>2014-08-02T11:50:17.000Z</time>
      </trkpt>
      <trkpt lat="48.693" lon="1.73963">
        <ele>163.39999389648</ele>
        <time>2014-08-02T11:50:24.000Z</time>
      </trkpt>
      <trkpt lat="48.69306" lon="1.7397">
        <ele>163.60000610352</ele>
        <time>2014-08-02T11:50:26.000Z</time>
      </trkpt>
      <trkpt lat="48.69331" lon="1.74002">
        <ele>163.19999694824</ele>
        <time>2014-08-02T11:50:34.000Z</time>
      </trkpt>
      <trkpt lat="48.69344" lon="1.7402">
        <ele>162.39999389648</ele>
        <time>2014-08-02T11:50:38.000Z</time>
      </trkpt>
      <trkpt lat="48.69365" lon="1.74038">
        <ele>162.39999389648</ele>
        <time>2014-08-02T11:50:43.000Z</time>
      </trkpt>
      <trkpt lat="48.69369" lon="1.74042">
        <ele>162.60000610352</ele>
        <time>2014-08-02T11:50:44.000Z</time>
      </trkpt>
      <trkpt lat="48.69391" lon="1.74064">
        <ele>163</ele>
        <time>2014-08-02T11:50:49.000Z</time>
      </trkpt>
      <trkpt lat="48.69405" lon="1.74077">
        <ele>163.80000305176</ele>
        <time>2014-08-02T11:50:52.000Z</time>
      </trkpt>
      <trkpt lat="48.69425" lon="1.74103">
        <ele>164.80000305176</ele>
        <time>2014-08-02T11:50:59.000Z</time>
      </trkpt>
      <trkpt lat="48.69441" lon="1.74122">
        <ele>165.80000305176</ele>
        <time>2014-08-02T11:51:06.000Z</time>
      </trkpt>
      <trkpt lat="48.69447" lon="1.74129">
        <ele>166.60000610352</ele>
        <time>2014-08-02T11:51:12.000Z</time>
      </trkpt>
      <trkpt lat="48.69453" lon="1.74137">
        <ele>167.39999389648</ele>
        <time>2014-08-02T11:51:18.000Z</time>
      </trkpt>
      <trkpt lat="48.69458" lon="1.74144">
        <ele>168</ele>
        <time>2014-08-02T11:51:23.000Z</time>
      </trkpt>
      <trkpt lat="48.69466" lon="1.74152">
        <ele>169</ele>
        <time>2014-08-02T11:51:30.000Z</time>
      </trkpt>
      <trkpt lat="48.69475" lon="1.74163">
        <ele>169.80000305176</ele>
        <time>2014-08-02T11:51:37.000Z</time>
      </trkpt>
      <trkpt lat="48.69483" lon="1.74173">
        <ele>170.60000610352</ele>
        <time>2014-08-02T11:51:44.000Z</time>
      </trkpt>
      <trkpt lat="48.6949" lon="1.74183">
        <ele>171.19999694824</ele>
        <time>2014-08-02T11:51:51.000Z</time>
      </trkpt>
      <trkpt lat="48.69494" lon="1.74194">
        <ele>171.19999694824</ele>
        <time>2014-08-02T11:51:57.000Z</time>
      </trkpt>
      <trkpt lat="48.69496" lon="1.74198">
        <ele>171.39999389648</ele>
        <time>2014-08-02T11:52:00.000Z</time>
      </trkpt>
      <trkpt lat="48.69508" lon="1.74196">
        <ele>173.39999389648</ele>
        <time>2014-08-02T11:52:07.000Z</time>
      </trkpt>
      <trkpt lat="48.69516" lon="1.74185">
        <ele>175.39999389648</ele>
        <time>2014-08-02T11:52:14.000Z</time>
      </trkpt>
      <trkpt lat="48.6952" lon="1.74168">
        <ele>177.19999694824</ele>
        <time>2014-08-02T11:52:22.000Z</time>
      </trkpt>
      <trkpt lat="48.69522" lon="1.74156">
        <ele>178</ele>
        <time>2014-08-02T11:52:28.000Z</time>
      </trkpt>
      <trkpt lat="48.69526" lon="1.74143">
        <ele>178.19999694824</ele>
        <time>2014-08-02T11:52:35.000Z</time>
      </trkpt>
      <trkpt lat="48.69528" lon="1.74138">
        <ele>178.19999694824</ele>
        <time>2014-08-02T11:52:37.000Z</time>
      </trkpt>
      <trkpt lat="48.69529" lon="1.74134">
        <ele>178.39999389648</ele>
        <time>2014-08-02T11:52:41.000Z</time>
      </trkpt>
      <trkpt lat="48.69534" lon="1.7412">
        <ele>178.60000610352</ele>
        <time>2014-08-02T11:52:47.000Z</time>
      </trkpt>
      <trkpt lat="48.69542" lon="1.74107">
        <ele>178.80000305176</ele>
        <time>2014-08-02T11:52:54.000Z</time>
      </trkpt>
      <trkpt lat="48.69543" lon="1.74104">
        <ele>179</ele>
        <time>2014-08-02T11:52:55.000Z</time>
      </trkpt>
      <trkpt lat="48.69547" lon="1.74088">
        <ele>179.19999694824</ele>
        <time>2014-08-02T11:53:01.000Z</time>
      </trkpt>
      <trkpt lat="48.69553" lon="1.7408">
        <ele>179.19999694824</ele>
        <time>2014-08-02T11:53:06.000Z</time>
      </trkpt>
      <trkpt lat="48.69554" lon="1.74078">
        <ele>179.19999694824</ele>
        <time>2014-08-02T11:53:07.000Z</time>
      </trkpt>
      <trkpt lat="48.69563" lon="1.74062">
        <ele>179.19999694824</ele>
        <time>2014-08-02T11:53:15.000Z</time>
      </trkpt>
      <trkpt lat="48.6957" lon="1.74049">
        <ele>179.39999389648</ele>
        <time>2014-08-02T11:53:20.000Z</time>
      </trkpt>
      <trkpt lat="48.69576" lon="1.74037">
        <ele>179.39999389648</ele>
        <time>2014-08-02T11:53:25.000Z</time>
      </trkpt>
      <trkpt lat="48.69578" lon="1.74035">
        <ele>179.39999389648</ele>
        <time>2014-08-02T11:53:26.000Z</time>
      </trkpt>
      <trkpt lat="48.69587" lon="1.74024">
        <ele>179.60000610352</ele>
        <time>2014-08-02T11:53:32.000Z</time>
      </trkpt>
      <trkpt lat="48.69592" lon="1.74014">
        <ele>179.60000610352</ele>
        <time>2014-08-02T11:53:38.000Z</time>
      </trkpt>
      <trkpt lat="48.69598" lon="1.74004">
        <ele>179.80000305176</ele>
        <time>2014-08-02T11:53:43.000Z</time>
      </trkpt>
      <trkpt lat="48.69597" lon="1.74002">
        <ele>179.80000305176</ele>
        <time>2014-08-02T11:53:44.000Z</time>
      </trkpt>
      <trkpt lat="48.69599" lon="1.73993">
        <ele>180</ele>
        <time>2014-08-02T11:53:49.000Z</time>
      </trkpt>
      <trkpt lat="48.69601" lon="1.73989">
        <ele>180</ele>
        <time>2014-08-02T11:53:52.000Z</time>
      </trkpt>
      <trkpt lat="48.69606" lon="1.73984">
        <ele>179.80000305176</ele>
        <time>2014-08-02T11:53:56.000Z</time>
      </trkpt>
      <trkpt lat="48.69616" lon="1.73991">
        <ele>179</ele>
        <time>2014-08-02T11:54:02.000Z</time>
      </trkpt>
      <trkpt lat="48.69619" lon="1.74002">
        <ele>178.39999389648</ele>
        <time>2014-08-02T11:54:07.000Z</time>
      </trkpt>
      <trkpt lat="48.69619" lon="1.74011">
        <ele>178.19999694824</ele>
        <time>2014-08-02T11:54:10.000Z</time>
      </trkpt>
      <trkpt lat="48.6962" lon="1.7402">
        <ele>178</ele>
        <time>2014-08-02T11:54:13.000Z</time>
      </trkpt>
      <trkpt lat="48.69621" lon="1.74027">
        <ele>177.80000305176</ele>
        <time>2014-08-02T11:54:16.000Z</time>
      </trkpt>
      <trkpt lat="48.69627" lon="1.74044">
        <ele>177</ele>
        <time>2014-08-02T11:54:22.000Z</time>
      </trkpt>
      <trkpt lat="48.6963" lon="1.74054">
        <ele>176.39999389648</ele>
        <time>2014-08-02T11:54:26.000Z</time>
      </trkpt>
      <trkpt lat="48.69635" lon="1.74068">
        <ele>175.80000305176</ele>
        <time>2014-08-02T11:54:32.000Z</time>
      </trkpt>
      <trkpt lat="48.69639" lon="1.74079">
        <ele>175.39999389648</ele>
        <time>2014-08-02T11:54:38.000Z</time>
      </trkpt>
      <trkpt lat="48.69642" lon="1.74092">
        <ele>175</ele>
        <time>2014-08-02T11:54:43.000Z</time>
      </trkpt>
      <trkpt lat="48.69646" lon="1.74105">
        <ele>174.60000610352</ele>
        <time>2014-08-02T11:54:48.000Z</time>
      </trkpt>
      <trkpt lat="48.69651" lon="1.74121">
        <ele>174</ele>
        <time>2014-08-02T11:54:55.000Z</time>
      </trkpt>
      <trkpt lat="48.69652" lon="1.74134">
        <ele>173.60000610352</ele>
        <time>2014-08-02T11:55:00.000Z</time>
      </trkpt>
      <trkpt lat="48.69658" lon="1.74149">
        <ele>173.19999694824</ele>
        <time>2014-08-02T11:55:06.000Z</time>
      </trkpt>
      <trkpt lat="48.6966" lon="1.74161">
        <ele>173</ele>
        <time>2014-08-02T11:55:11.000Z</time>
      </trkpt>
      <trkpt lat="48.69664" lon="1.74184">
        <ele>172.60000610352</ele>
        <time>2014-08-02T11:55:18.000Z</time>
      </trkpt>
      <trkpt lat="48.69666" lon="1.74192">
        <ele>172.39999389648</ele>
        <time>2014-08-02T11:55:21.000Z</time>
      </trkpt>
      <trkpt lat="48.69677" lon="1.74193">
        <ele>171.60000610352</ele>
        <time>2014-08-02T11:55:27.000Z</time>
      </trkpt>
      <trkpt lat="48.69678" lon="1.7421">
        <ele>171.60000610352</ele>
        <time>2014-08-02T11:55:33.000Z</time>
      </trkpt>
      <trkpt lat="48.69676" lon="1.74221">
        <ele>171.80000305176</ele>
        <time>2014-08-02T11:55:38.000Z</time>
      </trkpt>
      <trkpt lat="48.69677" lon="1.74231">
        <ele>171.60000610352</ele>
        <time>2014-08-02T11:55:42.000Z</time>
      </trkpt>
      <trkpt lat="48.69676" lon="1.74236">
        <ele>171.60000610352</ele>
        <time>2014-08-02T11:55:45.000Z</time>
      </trkpt>
      <trkpt lat="48.69676" lon="1.74251">
        <ele>171.39999389648</ele>
        <time>2014-08-02T11:55:52.000Z</time>
      </trkpt>
      <trkpt lat="48.69677" lon="1.74254">
        <ele>171.39999389648</ele>
        <time>2014-08-02T11:55:53.000Z</time>
      </trkpt>
      <trkpt lat="48.69684" lon="1.7427">
        <ele>170.80000305176</ele>
        <time>2014-08-02T11:55:59.000Z</time>
      </trkpt>
      <trkpt lat="48.6969" lon="1.74284">
        <ele>170.39999389648</ele>
        <time>2014-08-02T11:56:05.000Z</time>
      </trkpt>
      <trkpt lat="48.6969" lon="1.74294">
        <ele>170.19999694824</ele>
        <time>2014-08-02T11:56:08.000Z</time>
      </trkpt>
      <trkpt lat="48.69696" lon="1.74313">
        <ele>169.80000305176</ele>
        <time>2014-08-02T11:56:15.000Z</time>
      </trkpt>
      <trkpt lat="48.69702" lon="1.74327">
        <ele>169.39999389648</ele>
        <time>2014-08-02T11:56:21.000Z</time>
      </trkpt>
      <trkpt lat="48.69707" lon="1.74341">
        <ele>168.80000305176</ele>
        <time>2014-08-02T11:56:27.000Z</time>
      </trkpt>
      <trkpt lat="48.69711" lon="1.74355">
        <ele>168.39999389648</ele>
        <time>2014-08-02T11:56:33.000Z</time>
      </trkpt>
      <trkpt lat="48.69712" lon="1.74369">
        <ele>168</ele>
        <time>2014-08-02T11:56:38.000Z</time>
      </trkpt>
      <trkpt lat="48.69714" lon="1.74383">
        <ele>167.60000610352</ele>
        <time>2014-08-02T11:56:43.000Z</time>
      </trkpt>
      <trkpt lat="48.69718" lon="1.74395">
        <ele>167</ele>
        <time>2014-08-02T11:56:48.000Z</time>
      </trkpt>
      <trkpt lat="48.6972" lon="1.74404">
        <ele>166.80000305176</ele>
        <time>2014-08-02T11:56:51.000Z</time>
      </trkpt>
      <trkpt lat="48.69724" lon="1.74425">
        <ele>166.19999694824</ele>
        <time>2014-08-02T11:56:59.000Z</time>
      </trkpt>
      <trkpt lat="48.69727" lon="1.7444">
        <ele>165.60000610352</ele>
        <time>2014-08-02T11:57:05.000Z</time>
      </trkpt>
      <trkpt lat="48.69729" lon="1.74446">
        <ele>165.39999389648</ele>
        <time>2014-08-02T11:57:07.000Z</time>
      </trkpt>
      <trkpt lat="48.69729" lon="1.74452">
        <ele>165.19999694824</ele>
        <time>2014-08-02T11:57:10.000Z</time>
      </trkpt>
      <trkpt lat="48.69732" lon="1.74463">
        <ele>164.60000610352</ele>
        <time>2014-08-02T11:57:14.000Z</time>
      </trkpt>
      <trkpt lat="48.69732" lon="1.7447">
        <ele>164.19999694824</ele>
        <time>2014-08-02T11:57:18.000Z</time>
      </trkpt>
      <trkpt lat="48.69738" lon="1.74482">
        <ele>163.60000610352</ele>
        <time>2014-08-02T11:57:24.000Z</time>
      </trkpt>
      <trkpt lat="48.69737" lon="1.74492">
        <ele>163.19999694824</ele>
        <time>2014-08-02T11:57:28.000Z</time>
      </trkpt>
      <trkpt lat="48.6974" lon="1.74506">
        <ele>163</ele>
        <time>2014-08-02T11:57:34.000Z</time>
      </trkpt>
      <trkpt lat="48.6974" lon="1.74519">
        <ele>162.60000610352</ele>
        <time>2014-08-02T11:57:41.000Z</time>
      </trkpt>
      <trkpt lat="48.69747" lon="1.74537">
        <ele>162</ele>
        <time>2014-08-02T11:57:49.000Z</time>
      </trkpt>
      <trkpt lat="48.69749" lon="1.74551">
        <ele>161.80000305176</ele>
        <time>2014-08-02T11:57:55.000Z</time>
      </trkpt>
      <trkpt lat="48.69751" lon="1.74557">
        <ele>161.60000610352</ele>
        <time>2014-08-02T11:57:57.000Z</time>
      </trkpt>
      <trkpt lat="48.69752" lon="1.7457">
        <ele>161.19999694824</ele>
        <time>2014-08-02T11:58:02.000Z</time>
      </trkpt>
      <trkpt lat="48.69755" lon="1.7458">
        <ele>161.60000610352</ele>
        <time>2014-08-02T11:58:07.000Z</time>
      </trkpt>
      <trkpt lat="48.69758" lon="1.74593">
        <ele>162</ele>
        <time>2014-08-02T11:58:13.000Z</time>
      </trkpt>
      <trkpt lat="48.6976" lon="1.74612">
        <ele>162.60000610352</ele>
        <time>2014-08-02T11:58:22.000Z</time>
      </trkpt>
      <trkpt lat="48.69764" lon="1.74625">
        <ele>163</ele>
        <time>2014-08-02T11:58:28.000Z</time>
      </trkpt>
      <trkpt lat="48.69769" lon="1.74632">
        <ele>163.19999694824</ele>
        <time>2014-08-02T11:58:32.000Z</time>
      </trkpt>
      <trkpt lat="48.6977" lon="1.74643">
        <ele>163.60000610352</ele>
        <time>2014-08-02T11:58:37.000Z</time>
      </trkpt>
      <trkpt lat="48.69769" lon="1.74653">
        <ele>164</ele>
        <time>2014-08-02T11:58:44.000Z</time>
      </trkpt>
      <trkpt lat="48.69768" lon="1.74663">
        <ele>164</ele>
        <time>2014-08-02T11:58:50.000Z</time>
      </trkpt>
      <trkpt lat="48.69768" lon="1.74674">
        <ele>164</ele>
        <time>2014-08-02T11:58:55.000Z</time>
      </trkpt>
      <trkpt lat="48.69776" lon="1.74693">
        <ele>164.60000610352</ele>
        <time>2014-08-02T11:59:02.000Z</time>
      </trkpt>
      <trkpt lat="48.69778" lon="1.74709">
        <ele>165</ele>
        <time>2014-08-02T11:59:08.000Z</time>
      </trkpt>
      <trkpt lat="48.69782" lon="1.74718">
        <ele>165.19999694824</ele>
        <time>2014-08-02T11:59:12.000Z</time>
      </trkpt>
      <trkpt lat="48.6979" lon="1.74735">
        <ele>166.19999694824</ele>
        <time>2014-08-02T11:59:20.000Z</time>
      </trkpt>
      <trkpt lat="48.69797" lon="1.74748">
        <ele>166.60000610352</ele>
        <time>2014-08-02T11:59:26.000Z</time>
      </trkpt>
      <trkpt lat="48.69802" lon="1.74768">
        <ele>166.80000305176</ele>
        <time>2014-08-02T11:59:34.000Z</time>
      </trkpt>
      <trkpt lat="48.69806" lon="1.74783">
        <ele>167.19999694824</ele>
        <time>2014-08-02T11:59:40.000Z</time>
      </trkpt>
      <trkpt lat="48.6981" lon="1.74798">
        <ele>167.60000610352</ele>
        <time>2014-08-02T11:59:46.000Z</time>
      </trkpt>
      <trkpt lat="48.69814" lon="1.74811">
        <ele>168</ele>
        <time>2014-08-02T11:59:52.000Z</time>
      </trkpt>
      <trkpt lat="48.69818" lon="1.74824">
        <ele>168.19999694824</ele>
        <time>2014-08-02T11:59:58.000Z</time>
      </trkpt>
      <trkpt lat="48.69825" lon="1.74841">
        <ele>168</ele>
        <time>2014-08-02T12:00:07.000Z</time>
      </trkpt>
      <trkpt lat="48.69828" lon="1.74852">
        <ele>167.80000305176</ele>
        <time>2014-08-02T12:00:12.000Z</time>
      </trkpt>
      <trkpt lat="48.69829" lon="1.74863">
        <ele>167.19999694824</ele>
        <time>2014-08-02T12:00:17.000Z</time>
      </trkpt>
      <trkpt lat="48.6983" lon="1.74871">
        <ele>167</ele>
        <time>2014-08-02T12:00:19.000Z</time>
      </trkpt>
      <trkpt lat="48.69825" lon="1.74886">
        <ele>166.39999389648</ele>
        <time>2014-08-02T12:00:26.000Z</time>
      </trkpt>
      <trkpt lat="48.69822" lon="1.74892">
        <ele>166.39999389648</ele>
        <time>2014-08-02T12:00:29.000Z</time>
      </trkpt>
      <trkpt lat="48.69815" lon="1.74904">
        <ele>166.60000610352</ele>
        <time>2014-08-02T12:00:36.000Z</time>
      </trkpt>
      <trkpt lat="48.69812" lon="1.74917">
        <ele>166.80000305176</ele>
        <time>2014-08-02T12:00:42.000Z</time>
      </trkpt>
      <trkpt lat="48.69813" lon="1.74939">
        <ele>167.39999389648</ele>
        <time>2014-08-02T12:00:47.000Z</time>
      </trkpt>
      <trkpt lat="48.69818" lon="1.74968">
        <ele>167.80000305176</ele>
        <time>2014-08-02T12:00:51.000Z</time>
      </trkpt>
      <trkpt lat="48.69819" lon="1.74994">
        <ele>167.80000305176</ele>
        <time>2014-08-02T12:00:54.000Z</time>
      </trkpt>
      <trkpt lat="48.69824" lon="1.75027">
        <ele>168.39999389648</ele>
        <time>2014-08-02T12:00:58.000Z</time>
      </trkpt>
      <trkpt lat="48.69824" lon="1.75041">
        <ele>168.60000610352</ele>
        <time>2014-08-02T12:01:00.000Z</time>
      </trkpt>
      <trkpt lat="48.69835" lon="1.75089">
        <ele>169.60000610352</ele>
        <time>2014-08-02T12:01:06.000Z</time>
      </trkpt>
      <trkpt lat="48.69842" lon="1.75123">
        <ele>169.80000305176</ele>
        <time>2014-08-02T12:01:10.000Z</time>
      </trkpt>
      <trkpt lat="48.69849" lon="1.75175">
        <ele>170.60000610352</ele>
        <time>2014-08-02T12:01:16.000Z</time>
      </trkpt>
      <trkpt lat="48.69852" lon="1.75192">
        <ele>171.39999389648</ele>
        <time>2014-08-02T12:01:18.000Z</time>
      </trkpt>
      <trkpt lat="48.69862" lon="1.75236">
        <ele>173.19999694824</ele>
        <time>2014-08-02T12:01:24.000Z</time>
      </trkpt>
      <trkpt lat="48.69863" lon="1.75242">
        <ele>173.19999694824</ele>
        <time>2014-08-02T12:01:25.000Z</time>
      </trkpt>
      <trkpt lat="48.69866" lon="1.75259">
        <ele>172.80000305176</ele>
        <time>2014-08-02T12:01:28.000Z</time>
      </trkpt>
      <trkpt lat="48.69872" lon="1.75291">
        <ele>172.60000610352</ele>
        <time>2014-08-02T12:01:34.000Z</time>
      </trkpt>
      <trkpt lat="48.69874" lon="1.75315">
        <ele>172.39999389648</ele>
        <time>2014-08-02T12:01:39.000Z</time>
      </trkpt>
      <trkpt lat="48.69878" lon="1.75344">
        <ele>172</ele>
        <time>2014-08-02T12:01:44.000Z</time>
      </trkpt>
      <trkpt lat="48.69882" lon="1.75373">
        <ele>171.39999389648</ele>
        <time>2014-08-02T12:01:50.000Z</time>
      </trkpt>
      <trkpt lat="48.69883" lon="1.75377">
        <ele>171.39999389648</ele>
        <time>2014-08-02T12:01:51.000Z</time>
      </trkpt>
      <trkpt lat="48.69901" lon="1.7539">
        <ele>171.39999389648</ele>
        <time>2014-08-02T12:01:57.000Z</time>
      </trkpt>
      <trkpt lat="48.69906" lon="1.75389">
        <ele>171.60000610352</ele>
        <time>2014-08-02T12:01:58.000Z</time>
      </trkpt>
      <trkpt lat="48.69939" lon="1.75367">
        <ele>172.39999389648</ele>
        <time>2014-08-02T12:02:03.000Z</time>
      </trkpt>
      <trkpt lat="48.69962" lon="1.75361">
        <ele>171.39999389648</ele>
        <time>2014-08-02T12:02:09.000Z</time>
      </trkpt>
      <trkpt lat="48.69973" lon="1.75356">
        <ele>170.80000305176</ele>
        <time>2014-08-02T12:02:11.000Z</time>
      </trkpt>
      <trkpt lat="48.69992" lon="1.75347">
        <ele>171</ele>
        <time>2014-08-02T12:02:15.000Z</time>
      </trkpt>
      <trkpt lat="48.70003" lon="1.7534">
        <ele>171.39999389648</ele>
        <time>2014-08-02T12:02:17.000Z</time>
      </trkpt>
      <trkpt lat="48.70016" lon="1.75334">
        <ele>171.39999389648</ele>
        <time>2014-08-02T12:02:21.000Z</time>
      </trkpt>
      <trkpt lat="48.70019" lon="1.75332">
        <ele>171.39999389648</ele>
        <time>2014-08-02T12:02:22.000Z</time>
      </trkpt>
      <trkpt lat="48.70032" lon="1.75332">
        <ele>171.39999389648</ele>
        <time>2014-08-02T12:02:27.000Z</time>
      </trkpt>
      <trkpt lat="48.70046" lon="1.75325">
        <ele>172</ele>
        <time>2014-08-02T12:02:32.000Z</time>
      </trkpt>
      <trkpt lat="48.70053" lon="1.7532">
        <ele>172.39999389648</ele>
        <time>2014-08-02T12:02:35.000Z</time>
      </trkpt>
      <trkpt lat="48.70072" lon="1.75314">
        <ele>172.80000305176</ele>
        <time>2014-08-02T12:02:42.000Z</time>
      </trkpt>
      <trkpt lat="48.70085" lon="1.75301">
        <ele>173.19999694824</ele>
        <time>2014-08-02T12:02:48.000Z</time>
      </trkpt>
      <trkpt lat="48.70102" lon="1.75293">
        <ele>173.60000610352</ele>
        <time>2014-08-02T12:02:52.000Z</time>
      </trkpt>
      <trkpt lat="48.70118" lon="1.75284">
        <ele>174.39999389648</ele>
        <time>2014-08-02T12:02:57.000Z</time>
      </trkpt>
      <trkpt lat="48.70126" lon="1.75282">
        <ele>174.80000305176</ele>
        <time>2014-08-02T12:03:02.000Z</time>
      </trkpt>
      <trkpt lat="48.70128" lon="1.7528">
        <ele>174.80000305176</ele>
        <time>2014-08-02T12:03:06.000Z</time>
      </trkpt>
      <trkpt lat="48.70131" lon="1.75275">
        <ele>175</ele>
        <time>2014-08-02T12:03:11.000Z</time>
      </trkpt>
      <trkpt lat="48.70137" lon="1.75272">
        <ele>175.39999389648</ele>
        <time>2014-08-02T12:03:15.000Z</time>
      </trkpt>
      <trkpt lat="48.70144" lon="1.75272">
        <ele>175.39999389648</ele>
        <time>2014-08-02T12:03:20.000Z</time>
      </trkpt>
      <trkpt lat="48.70146" lon="1.75268">
        <ele>175.60000610352</ele>
        <time>2014-08-02T12:03:23.000Z</time>
      </trkpt>
      <trkpt lat="48.70181" lon="1.7525">
        <ele>176</ele>
        <time>2014-08-02T12:03:41.000Z</time>
      </trkpt>
      <trkpt lat="48.70201" lon="1.75234">
        <ele>176.60000610352</ele>
        <time>2014-08-02T12:03:58.000Z</time>
      </trkpt>
      <trkpt lat="48.70202" lon="1.75235">
        <ele>176.80000305176</ele>
        <time>2014-08-02T12:04:02.000Z</time>
      </trkpt>
      <trkpt lat="48.70207" lon="1.75235">
        <ele>177</ele>
        <time>2014-08-02T12:04:06.000Z</time>
      </trkpt>
      <trkpt lat="48.70213" lon="1.75235">
        <ele>177.19999694824</ele>
        <time>2014-08-02T12:04:10.000Z</time>
      </trkpt>
      <trkpt lat="48.70219" lon="1.75241">
        <ele>177.60000610352</ele>
        <time>2014-08-02T12:04:14.000Z</time>
      </trkpt>
      <trkpt lat="48.70235" lon="1.75244">
        <ele>178.19999694824</ele>
        <time>2014-08-02T12:04:19.000Z</time>
      </trkpt>
      <trkpt lat="48.7025" lon="1.7525">
        <ele>178.80000305176</ele>
        <time>2014-08-02T12:04:26.000Z</time>
      </trkpt>
      <trkpt lat="48.7027" lon="1.75262">
        <ele>179.60000610352</ele>
        <time>2014-08-02T12:04:34.000Z</time>
      </trkpt>
      <trkpt lat="48.70277" lon="1.75267">
        <ele>179.80000305176</ele>
        <time>2014-08-02T12:04:39.000Z</time>
      </trkpt>
      <trkpt lat="48.70282" lon="1.75277">
        <ele>179.80000305176</ele>
        <time>2014-08-02T12:04:45.000Z</time>
      </trkpt>
      <trkpt lat="48.70289" lon="1.75282">
        <ele>180</ele>
        <time>2014-08-02T12:04:51.000Z</time>
      </trkpt>
      <trkpt lat="48.70292" lon="1.75286">
        <ele>180</ele>
        <time>2014-08-02T12:04:56.000Z</time>
      </trkpt>
      <trkpt lat="48.70299" lon="1.75286">
        <ele>180.19999694824</ele>
        <time>2014-08-02T12:05:01.000Z</time>
      </trkpt>
      <trkpt lat="48.703" lon="1.75287">
        <ele>180.19999694824</ele>
        <time>2014-08-02T12:05:02.000Z</time>
      </trkpt>
      <trkpt lat="48.70303" lon="1.75298">
        <ele>180</ele>
        <time>2014-08-02T12:05:07.000Z</time>
      </trkpt>
      <trkpt lat="48.70306" lon="1.75307">
        <ele>180</ele>
        <time>2014-08-02T12:05:12.000Z</time>
      </trkpt>
      <trkpt lat="48.70307" lon="1.75317">
        <ele>180</ele>
        <time>2014-08-02T12:05:16.000Z</time>
      </trkpt>
      <trkpt lat="48.70308" lon="1.75324">
        <ele>180</ele>
        <time>2014-08-02T12:05:20.000Z</time>
      </trkpt>
      <trkpt lat="48.70316" lon="1.75333">
        <ele>180.19999694824</ele>
        <time>2014-08-02T12:05:26.000Z</time>
      </trkpt>
      <trkpt lat="48.70324" lon="1.75344">
        <ele>180.19999694824</ele>
        <time>2014-08-02T12:05:32.000Z</time>
      </trkpt>
      <trkpt lat="48.70326" lon="1.75351">
        <ele>180.39999389648</ele>
        <time>2014-08-02T12:05:36.000Z</time>
      </trkpt>
      <trkpt lat="48.70336" lon="1.75357">
        <ele>180.60000610352</ele>
        <time>2014-08-02T12:05:43.000Z</time>
      </trkpt>
      <trkpt lat="48.7034" lon="1.7536">
        <ele>180.60000610352</ele>
        <time>2014-08-02T12:05:47.000Z</time>
      </trkpt>
      <trkpt lat="48.70346" lon="1.75369">
        <ele>180.80000305176</ele>
        <time>2014-08-02T12:05:53.000Z</time>
      </trkpt>
      <trkpt lat="48.70352" lon="1.75377">
        <ele>181</ele>
        <time>2014-08-02T12:05:58.000Z</time>
      </trkpt>
      <trkpt lat="48.70357" lon="1.75381">
        <ele>181</ele>
        <time>2014-08-02T12:06:02.000Z</time>
      </trkpt>
      <trkpt lat="48.70362" lon="1.7539">
        <ele>181.19999694824</ele>
        <time>2014-08-02T12:06:06.000Z</time>
      </trkpt>
      <trkpt lat="48.70369" lon="1.75398">
        <ele>181.19999694824</ele>
        <time>2014-08-02T12:06:12.000Z</time>
      </trkpt>
      <trkpt lat="48.70377" lon="1.75402">
        <ele>181.19999694824</ele>
        <time>2014-08-02T12:06:18.000Z</time>
      </trkpt>
      <trkpt lat="48.70379" lon="1.75402">
        <ele>181.39999389648</ele>
        <time>2014-08-02T12:06:19.000Z</time>
      </trkpt>
      <trkpt lat="48.70384" lon="1.75402">
        <ele>181.39999389648</ele>
        <time>2014-08-02T12:06:25.000Z</time>
      </trkpt>
      <trkpt lat="48.70391" lon="1.75404">
        <ele>181.39999389648</ele>
        <time>2014-08-02T12:06:31.000Z</time>
      </trkpt>
      <trkpt lat="48.70393" lon="1.75406">
        <ele>181.60000610352</ele>
        <time>2014-08-02T12:06:35.000Z</time>
      </trkpt>
      <trkpt lat="48.70393" lon="1.75406">
        <ele>181.60000610352</ele>
        <time>2014-08-02T12:06:36.000Z</time>
      </trkpt>
      <trkpt lat="48.704" lon="1.75417">
        <ele>181.80000305176</ele>
        <time>2014-08-02T12:06:45.000Z</time>
      </trkpt>
      <trkpt lat="48.70401" lon="1.75412">
        <ele>181.80000305176</ele>
        <time>2014-08-02T12:06:58.000Z</time>
      </trkpt>
      <trkpt lat="48.70393" lon="1.75412">
        <ele>181.60000610352</ele>
        <time>2014-08-02T12:07:11.000Z</time>
      </trkpt>
      <trkpt lat="48.70401" lon="1.75419">
        <ele>182</ele>
        <time>2014-08-02T12:07:23.000Z</time>
      </trkpt>
      <trkpt lat="48.70407" lon="1.7542">
        <ele>182</ele>
        <time>2014-08-02T12:07:28.000Z</time>
      </trkpt>
      <trkpt lat="48.70413" lon="1.75421">
        <ele>182.19999694824</ele>
        <time>2014-08-02T12:07:33.000Z</time>
      </trkpt>
      <trkpt lat="48.70419" lon="1.75419">
        <ele>182.19999694824</ele>
        <time>2014-08-02T12:07:37.000Z</time>
      </trkpt>
      <trkpt lat="48.70427" lon="1.75423">
        <ele>182.39999389648</ele>
        <time>2014-08-02T12:07:43.000Z</time>
      </trkpt>
      <trkpt lat="48.7043" lon="1.75428">
        <ele>182.39999389648</ele>
        <time>2014-08-02T12:07:48.000Z</time>
      </trkpt>
      <trkpt lat="48.70441" lon="1.75434">
        <ele>182.60000610352</ele>
        <time>2014-08-02T12:07:54.000Z</time>
      </trkpt>
      <trkpt lat="48.70447" lon="1.75437">
        <ele>182.39999389648</ele>
        <time>2014-08-02T12:07:58.000Z</time>
      </trkpt>
      <trkpt lat="48.70455" lon="1.75444">
        <ele>182.19999694824</ele>
        <time>2014-08-02T12:08:04.000Z</time>
      </trkpt>
      <trkpt lat="48.70459" lon="1.75446">
        <ele>182.19999694824</ele>
        <time>2014-08-02T12:08:07.000Z</time>
      </trkpt>
      <trkpt lat="48.70462" lon="1.75451">
        <ele>182.19999694824</ele>
        <time>2014-08-02T12:08:11.000Z</time>
      </trkpt>
      <trkpt lat="48.70464" lon="1.75452">
        <ele>182.19999694824</ele>
        <time>2014-08-02T12:08:12.000Z</time>
      </trkpt>
      <trkpt lat="48.70474" lon="1.75457">
        <ele>182</ele>
        <time>2014-08-02T12:08:19.000Z</time>
      </trkpt>
      <trkpt lat="48.70479" lon="1.7546">
        <ele>181.80000305176</ele>
        <time>2014-08-02T12:08:23.000Z</time>
      </trkpt>
      <trkpt lat="48.70483" lon="1.75468">
        <ele>181.80000305176</ele>
        <time>2014-08-02T12:08:29.000Z</time>
      </trkpt>
      <trkpt lat="48.70486" lon="1.75471">
        <ele>181.80000305176</ele>
        <time>2014-08-02T12:08:32.000Z</time>
      </trkpt>
      <trkpt lat="48.70493" lon="1.75478">
        <ele>181.80000305176</ele>
        <time>2014-08-02T12:08:37.000Z</time>
      </trkpt>
      <trkpt lat="48.70501" lon="1.75483">
        <ele>181.60000610352</ele>
        <time>2014-08-02T12:08:41.000Z</time>
      </trkpt>
      <trkpt lat="48.70513" lon="1.75493">
        <ele>181.39999389648</ele>
        <time>2014-08-02T12:08:48.000Z</time>
      </trkpt>
      <trkpt lat="48.7052" lon="1.75498">
        <ele>181.60000610352</ele>
        <time>2014-08-02T12:08:53.000Z</time>
      </trkpt>
      <trkpt lat="48.70522" lon="1.75501">
        <ele>181.60000610352</ele>
        <time>2014-08-02T12:08:57.000Z</time>
      </trkpt>
      <trkpt lat="48.70522" lon="1.75506">
        <ele>181.80000305176</ele>
        <time>2014-08-02T12:09:02.000Z</time>
      </trkpt>
      <trkpt lat="48.70521" lon="1.75507">
        <ele>182</ele>
        <time>2014-08-02T12:09:04.000Z</time>
      </trkpt>
      <trkpt lat="48.70523" lon="1.75512">
        <ele>182</ele>
        <time>2014-08-02T12:09:09.000Z</time>
      </trkpt>
      <trkpt lat="48.70525" lon="1.75519">
        <ele>182.39999389648</ele>
        <time>2014-08-02T12:09:13.000Z</time>
      </trkpt>
      <trkpt lat="48.70529" lon="1.75527">
        <ele>182.60000610352</ele>
        <time>2014-08-02T12:09:19.000Z</time>
      </trkpt>
      <trkpt lat="48.70533" lon="1.75534">
        <ele>183</ele>
        <time>2014-08-02T12:09:23.000Z</time>
      </trkpt>
      <trkpt lat="48.70539" lon="1.75542">
        <ele>183.19999694824</ele>
        <time>2014-08-02T12:09:27.000Z</time>
      </trkpt>
      <trkpt lat="48.70545" lon="1.75554">
        <ele>183.60000610352</ele>
        <time>2014-08-02T12:09:31.000Z</time>
      </trkpt>
      <trkpt lat="48.70553" lon="1.7556">
        <ele>183.80000305176</ele>
        <time>2014-08-02T12:09:38.000Z</time>
      </trkpt>
      <trkpt lat="48.70554" lon="1.75561">
        <ele>183.60000610352</ele>
        <time>2014-08-02T12:09:39.000Z</time>
      </trkpt>
      <trkpt lat="48.70558" lon="1.75565">
        <ele>183.80000305176</ele>
        <time>2014-08-02T12:09:43.000Z</time>
      </trkpt>
      <trkpt lat="48.70567" lon="1.75566">
        <ele>183.60000610352</ele>
        <time>2014-08-02T12:09:50.000Z</time>
      </trkpt>
      <trkpt lat="48.70571" lon="1.7557">
        <ele>183.80000305176</ele>
        <time>2014-08-02T12:09:53.000Z</time>
      </trkpt>
      <trkpt lat="48.70577" lon="1.75576">
        <ele>183.80000305176</ele>
        <time>2014-08-02T12:09:57.000Z</time>
      </trkpt>
      <trkpt lat="48.70582" lon="1.75579">
        <ele>183.80000305176</ele>
        <time>2014-08-02T12:10:00.000Z</time>
      </trkpt>
      <trkpt lat="48.70593" lon="1.75589">
        <ele>183.60000610352</ele>
        <time>2014-08-02T12:10:06.000Z</time>
      </trkpt>
      <trkpt lat="48.70599" lon="1.756">
        <ele>183.80000305176</ele>
        <time>2014-08-02T12:10:12.000Z</time>
      </trkpt>
      <trkpt lat="48.70603" lon="1.75609">
        <ele>184</ele>
        <time>2014-08-02T12:10:18.000Z</time>
      </trkpt>
      <trkpt lat="48.7061" lon="1.75619">
        <ele>183.39999389648</ele>
        <time>2014-08-02T12:10:24.000Z</time>
      </trkpt>
      <trkpt lat="48.70615" lon="1.75628">
        <ele>183</ele>
        <time>2014-08-02T12:10:29.000Z</time>
      </trkpt>
      <trkpt lat="48.70623" lon="1.75639">
        <ele>182.39999389648</ele>
        <time>2014-08-02T12:10:37.000Z</time>
      </trkpt>
      <trkpt lat="48.70627" lon="1.75646">
        <ele>182</ele>
        <time>2014-08-02T12:10:42.000Z</time>
      </trkpt>
      <trkpt lat="48.7064" lon="1.75651">
        <ele>180.39999389648</ele>
        <time>2014-08-02T12:10:50.000Z</time>
      </trkpt>
      <trkpt lat="48.7064" lon="1.75647">
        <ele>180.39999389648</ele>
        <time>2014-08-02T12:10:55.000Z</time>
      </trkpt>
      <trkpt lat="48.7064" lon="1.75632">
        <ele>180</ele>
        <time>2014-08-02T12:11:01.000Z</time>
      </trkpt>
      <trkpt lat="48.7064" lon="1.75629">
        <ele>180</ele>
        <time>2014-08-02T12:11:02.000Z</time>
      </trkpt>
      <trkpt lat="48.70642" lon="1.75613">
        <ele>179.39999389648</ele>
        <time>2014-08-02T12:11:08.000Z</time>
      </trkpt>
      <trkpt lat="48.70644" lon="1.75605">
        <ele>179</ele>
        <time>2014-08-02T12:11:12.000Z</time>
      </trkpt>
      <trkpt lat="48.70647" lon="1.75598">
        <ele>178.80000305176</ele>
        <time>2014-08-02T12:11:16.000Z</time>
      </trkpt>
      <trkpt lat="48.70655" lon="1.75581">
        <ele>178</ele>
        <time>2014-08-02T12:11:23.000Z</time>
      </trkpt>
      <trkpt lat="48.70666" lon="1.7557">
        <ele>177</ele>
        <time>2014-08-02T12:11:30.000Z</time>
      </trkpt>
      <trkpt lat="48.70676" lon="1.75558">
        <ele>174.80000305176</ele>
        <time>2014-08-02T12:11:38.000Z</time>
      </trkpt>
      <trkpt lat="48.70683" lon="1.75545">
        <ele>174.39999389648</ele>
        <time>2014-08-02T12:11:46.000Z</time>
      </trkpt>
      <trkpt lat="48.70687" lon="1.7553">
        <ele>174</ele>
        <time>2014-08-02T12:11:54.000Z</time>
      </trkpt>
      <trkpt lat="48.70689" lon="1.75518">
        <ele>173.60000610352</ele>
        <time>2014-08-02T12:12:01.000Z</time>
      </trkpt>
      <trkpt lat="48.70692" lon="1.75505">
        <ele>173.19999694824</ele>
        <time>2014-08-02T12:12:09.000Z</time>
      </trkpt>
      <trkpt lat="48.70695" lon="1.75498">
        <ele>172.80000305176</ele>
        <time>2014-08-02T12:12:14.000Z</time>
      </trkpt>
      <trkpt lat="48.70696" lon="1.75488">
        <ele>172.80000305176</ele>
        <time>2014-08-02T12:12:19.000Z</time>
      </trkpt>
      <trkpt lat="48.70695" lon="1.75479">
        <ele>172.60000610352</ele>
        <time>2014-08-02T12:12:25.000Z</time>
      </trkpt>
      <trkpt lat="48.70692" lon="1.75477">
        <ele>172.60000610352</ele>
        <time>2014-08-02T12:12:32.000Z</time>
      </trkpt>
      <trkpt lat="48.70687" lon="1.75476">
        <ele>172.80000305176</ele>
        <time>2014-08-02T12:12:45.000Z</time>
      </trkpt>
      <trkpt lat="48.70684" lon="1.75477">
        <ele>172.80000305176</ele>
        <time>2014-08-02T12:12:49.000Z</time>
      </trkpt>
      <trkpt lat="48.70684" lon="1.75477">
        <ele>172.80000305176</ele>
        <time>2014-08-02T12:12:50.000Z</time>
      </trkpt>
    </trkseg>
  </trk>
</gpx>